GFSNGP_925_rhum_003.txt.gz
RH
41 38 34 38 42 44 56 53 51 32 37 31 32 34 35 44 50 52 52 49 50 60 80 77 66 62 58 55 51 48 50 48 54 47 43 43 45 47 48 49 50 50 49 46
37 33 33 34 34 36 39 42 49 47 44 32 32 34 43 54 51 53 49 49 65 82 80 70 65 59 52 47 44 42 41 44 43 41 41 44 45 46 48 48 47 47 47 51
43 44 44 49 42 41 39 34 34 43 34 31 33 39 44 45 53 54 51 71 80 78 73 66 60 48 46 45 42 39 37 38 32 32 39 40 41 42 43 43 41 40 50 44
60 52 68 39 36 34 41 40 38 37 37 39 40 50 49 43 58 58 73 76 77 74 64 56 47 46 44 41 36 29 31 25 23 27 32 34 36 38 38 39 38 38 40 36
71 73 59 46 47 42 41 45 42 41 47 55 50 47 63 64 66 75 78 78 69 58 54 49 45 41 38 32 27 19 23 24 26 27 30 32 34 34 34 33 36 32 32 36
92 82 78 54 42 38 39 56 47 46 48 55 50 62 62 71 71 70 68 65 60 55 52 46 40 34 29 22 21 23 26 28 29 29 31 33 32 31 31 32 33 32 30 31
79 82 71 52 42 38 53 55 52 50 50 52 64 62 67 71 68 69 66 61 56 52 48 41 31 24 22 24 25 26 28 30 32 33 34 34 33 33 34 34 33 34 32 31
80 82 84 44 43 50 54 54 59 59 57 48 59 68 70 72 76 72 68 56 48 47 40 30 24 24 26 27 27 29 32 34 36 37 38 38 38 39 39 40 38 35 35 37
76 73 52 47 52 48 51 54 55 54 54 46 60 66 68 76 74 69 58 49 40 36 34 28 27 27 28 29 31 33 36 38 40 40 41 42 43 44 44 42 42 41 42 44
60 51 51 53 58 56 55 58 60 58 57 56 56 62 69 75 78 71 55 43 35 34 31 31 30 30 31 33 35 37 40 41 42 44 46 47 48 48 48 49 48 49 54 59
74 60 55 52 53 53 57 57 60 58 58 60 62 78 85 88 81 61 44 36 32 32 33 33 32 32 34 36 39 41 43 45 46 49 50 51 51 51 52 53 55 61 64 66
87 64 65 64 56 58 63 63 67 66 73 85 84 91 87 78 52 40 36 34 33 33 34 34 35 36 37 38 41 43 46 47 49 51 53 54 54 54 57 61 65 65 65 64
69 52 59 61 61 60 61 60 60 68 73 94 91 79 66 45 34 34 33 33 34 35 34 36 38 39 37 39 42 45 48 51 53 54 54 56 58 62 67 68 66 66 66 62
58 57 62 71 71 72 76 97 97 98 98 93 78 59 41 36 32 34 36 35 35 36 37 38 40 40 40 41 45 48 50 54 56 56 60 64 68 72 72 71 73 71 67 67
83 76 71 73 84 92 95 94 94 98 98 83 64 45 35 36 39 38 36 37 38 40 40 40 41 42 41 44 48 50 54 57 58 62 67 69 70 72 74 74 73 72 72 68
89 94 96 97 95 89 91 94 98 96 81 63 46 37 35 36 38 40 40 39 44 47 41 42 43 42 44 47 50 55 58 61 63 66 69 71 73 76 74 73 75 77 81 77
77 74 97 97 97 93 97 87 86 85 68 41 38 37 38 41 43 42 39 39 40 42 43 45 44 44 46 50 55 59 63 65 67 68 74 76 75 74 75 80 87 80 75 80
75 83 85 88 90 92 89 84 74 43 43 39 38 40 42 45 50 45 42 42 45 46 44 40 43 48 55 54 56 62 68 70 72 74 73 74 74 77 72 76 84 77 75 73
70 77 79 81 87 90 79 50 44 40 37 38 41 44 44 45 46 45 45 49 52 56 48 45 48 58 56 57 64 65 68 71 74 75 78 75 75 82 88 84 78 79 78 76
54 50 58 84 82 67 53 44 40 37 37 40 42 46 50 46 45 48 49 56 52 52 50 54 58 62 60 59 66 68 73 78 87 85 81 78 78 78 79 78 78 80 70 72
59 50 39 41 38 36 37 35 36 40 40 43 46 49 50 47 48 50 58 59 51 51 56 59 60 60 64 68 70 73 76 79 81 80 80 81 82 86 88 82 78 74 78 78
66 57 46 41 41 40 38 39 41 44 47 48 48 49 51 52 53 56 56 61 56 59 64 64 65 65 66 68 72 75 76 79 84 85 84 81 80 80 80 81 83 86 88 89
79 59 47 44 44 42 41 44 47 50 50 50 51 51 55 57 58 66 64 56 62 64 61 63 66 67 69 70 74 75 74 73 73 74 75 78 80 83 88 91 92 93 92 92
83 66 48 41 41 49 62 53 52 51 52 53 54 53 56 62 62 59 59 62 60 64 66 68 70 70 69 70 70 71 72 74 75 79 82 80 86 92 97 97 96 96 97 96
80 71 53 56 63 62 56 53 56 55 54 54 54 55 56 56 60 60 64 67 68 70 70 69 67 67 69 71 73 74 76 78 81 86 90 94 93 95 97 99 98 98 98 96
80 70 62 58 59 61 60 56 58 57 60 65 60 58 60 63 67 69 68 68 66 66 65 66 68 71 73 75 78 79 79 82 83 84 84 92 95 96 98 97 97 97 96 91
73 71 67 67 62 58 56 58 66 66 62 66 71 70 69 67 67 66 66 66 65 66 69 73 75 77 78 79 80 81 81 83 84 85 91 95 96 96 98 98 98 98 94 90

GFSNGP_925_rhum_006.txt.gz
RH
42 39 39 45 49 56 57 50 46 39 44 33 35 34 35 38 49 61 59 55 66 89 88 74 66 58 52 48 44 41 39 43 35 24 20 21 23 28 31 36 38 42 40 39
37 35 36 36 35 37 44 48 52 47 43 33 34 35 44 48 59 60 55 61 87 85 79 74 64 53 48 45 42 35 36 29 22 20 21 23 25 28 30 32 34 37 37 38
38 48 44 45 44 44 38 36 34 36 31 35 37 48 55 54 58 57 58 84 82 79 74 65 53 48 47 42 34 22 26 22 21 23 25 25 27 30 32 34 35 36 35 36
56 51 60 38 40 39 40 39 37 39 42 46 53 56 57 58 62 60 79 82 79 72 63 54 48 45 40 31 22 18 22 24 25 27 30 30 32 34 34 34 34 34 35 34
69 70 56 46 44 42 41 52 50 51 48 51 50 55 57 69 65 78 83 79 71 60 55 50 43 37 29 21 20 21 25 27 28 29 32 34 35 36 36 35 37 37 36 36
90 80 69 47 42 40 37 54 53 52 52 55 53 74 66 75 78 82 72 63 60 56 50 44 34 25 21 23 23 25 27 29 30 32 35 37 37 38 39 40 40 40 41 40
81 81 72 53 48 40 54 50 62 61 61 64 66 68 72 79 75 70 65 60 55 52 46 34 25 23 24 25 26 28 30 32 35 36 38 39 40 42 43 45 45 47 44 44
83 81 80 48 47 52 57 58 56 56 55 60 72 79 78 77 76 70 65 56 50 44 36 28 24 26 28 29 30 32 34 36 38 39 41 42 45 47 48 50 50 49 50 50
72 72 55 54 54 51 54 54 52 50 49 51 72 77 75 77 74 71 59 46 40 37 34 28 28 29 31 31 33 36 38 40 41 42 44 48 49 51 53 52 54 55 57 63
62 57 66 56 53 53 54 56 55 54 54 53 56 64 75 78 78 66 53 42 38 33 31 31 31 31 32 34 36 39 41 43 45 48 51 52 53 54 54 57 58 62 69 71
78 67 58 65 58 61 60 58 60 61 59 60 61 68 80 88 85 62 46 42 34 32 34 34 33 33 33 34 37 41 44 47 49 52 54 55 55 55 57 60 65 69 70 71
83 69 66 66 56 58 62 64 68 68 63 76 81 83 88 87 63 47 39 35 33 34 36 34 36 35 34 35 39 44 50 51 53 56 58 57 56 57 62 67 69 69 68 67
69 61 61 59 65 62 62 64 67 72 71 85 86 91 77 45 37 36 34 34 35 36 36 38 37 36 35 37 40 45 51 54 58 60 60 59 62 67 72 73 69 68 68 66
60 61 64 66 68 71 80 97 95 92 92 88 86 70 49 40 35 35 36 36 37 38 37 38 39 38 35 37 42 46 48 57 61 62 65 69 72 74 73 74 74 73 70 70
75 73 69 75 85 94 90 88 89 89 86 89 77 56 39 38 38 38 38 37 37 36 37 40 41 39 36 40 46 50 55 60 63 66 68 69 71 74 74 76 74 74 74 76
85 90 98 97 96 94 88 88 94 92 95 80 63 43 36 36 38 37 35 36 44 47 42 43 44 38 41 45 50 56 60 67 65 66 71 71 74 77 74 74 76 79 83 77
79 80 94 95 97 99 90 90 96 88 84 60 43 37 37 38 40 42 40 39 41 44 43 44 42 41 46 54 60 64 68 71 70 70 76 75 75 74 77 86 90 79 81 82
70 79 82 84 88 89 91 91 88 75 53 42 39 38 41 46 50 46 43 43 44 46 39 38 42 51 60 60 61 68 71 72 72 73 74 76 78 81 76 80 86 85 82 83
77 73 76 82 84 89 91 88 71 44 41 38 40 44 42 45 47 46 45 48 51 57 46 44 48 61 62 61 67 67 70 74 76 79 81 80 86 94 94 85 82 85 90 80
62 62 67 84 86 86 77 59 46 43 38 38 41 47 49 45 45 47 49 55 50 49 51 56 62 64 63 65 70 72 76 80 84 83 79 75 77 82 90 82 80 84 76 76
69 60 51 60 69 59 59 50 44 41 38 43 46 48 50 48 48 49 56 61 49 47 59 62 64 68 69 72 73 74 77 80 80 80 81 83 84 84 83 80 79 80 82 82
72 72 62 49 44 41 38 37 37 39 42 46 48 50 53 53 50 52 52 60 55 59 66 69 68 68 70 69 74 77 78 78 76 74 74 77 80 84 86 88 90 91 93 96
72 76 71 57 49 44 38 42 43 44 48 50 52 53 55 56 58 68 68 57 62 66 65 67 69 68 72 72 75 75 73 74 76 77 80 83 87 91 94 95 96 98 97 97
72 76 81 65 50 47 54 45 47 50 53 54 54 54 56 60 60 55 57 63 63 69 67 69 71 70 70 72 73 75 77 78 80 84 88 88 95 99 99 98 97 98 98 96
68 76 83 63 62 58 52 54 55 56 59 56 52 52 55 55 62 64 66 64 68 72 71 69 67 69 72 75 77 79 80 83 86 90 93 93 93 98 98 98 98 98 98 97
83 86 80 68 60 58 60 62 63 59 59 63 60 56 58 61 65 65 62 68 68 66 66 67 71 74 77 80 82 83 83 85 86 87 88 93 96 98 98 98 98 98 98 98
79 76 73 74 70 64 60 59 61 65 62 66 72 66 69 70 62 66 65 64 68 70 74 76 78 80 82 83 85 86 86 89 90 91 95 97 98 97 98 98 98 99 99 97

GFSNGP_925_rhum_009.txt.gz
RH
46 46 52 54 58 57 52 47 48 40 50 34 33 36 33 36 44 58 65 62 79 92 88 75 64 56 50 46 41 32 30 20 19 18 18 20 21 23 24 25 26 26 27 26
38 40 36 35 37 60 57 52 51 50 46 38 34 36 43 49 54 62 62 64 87 88 82 73 62 53 48 43 33 19 19 20 21 21 23 24 24 24 24 25 28 29 31 33
38 47 42 41 46 42 38 39 39 36 30 39 50 56 52 52 58 61 61 81 91 83 75 67 53 49 44 35 21 16 20 22 24 26 27 27 28 28 31 34 36 36 37 38
51 50 53 34 43 40 40 45 37 49 49 49 56 54 52 55 59 62 71 88 83 75 66 53 48 43 35 22 18 20 23 25 28 30 32 33 33 34 36 38 40 41 41 42
64 61 48 49 44 48 47 59 53 52 51 56 53 52 53 65 67 64 84 82 74 63 57 49 44 35 23 20 22 24 27 29 31 32 35 35 36 38 40 42 44 45 46 46
87 76 64 46 42 41 37 74 58 57 62 60 61 73 71 71 80 84 76 67 62 56 51 45 33 24 22 25 24 27 29 31 33 35 36 37 39 41 44 46 49 49 51 51
75 73 66 50 45 42 56 50 61 57 59 56 65 70 68 81 79 74 70 65 57 54 47 34 26 24 26 26 27 30 31 33 34 36 38 40 43 44 47 51 54 56 55 57
81 77 70 51 50 57 60 62 58 56 53 53 56 68 77 80 81 76 67 59 53 47 36 29 26 26 27 27 30 32 34 35 37 38 40 44 48 49 52 55 58 57 60 62
68 68 58 55 56 57 57 59 54 50 50 56 65 73 76 82 82 78 64 50 44 40 35 28 27 29 29 29 32 35 38 39 38 41 44 50 51 53 57 58 59 62 64 71
66 65 61 56 56 53 52 52 52 53 52 54 55 59 71 79 84 74 55 47 41 38 30 29 29 29 32 33 36 38 40 41 42 46 52 52 55 59 58 61 63 66 72 74
75 67 69 61 57 54 55 57 58 60 59 59 62 67 75 85 86 72 51 44 40 33 33 33 32 32 32 34 37 40 43 45 47 51 56 59 61 59 59 61 68 72 73 73
80 69 67 67 61 58 63 62 62 67 66 74 77 80 86 90 78 56 49 38 35 34 35 33 34 33 33 35 39 43 47 51 54 61 63 64 62 62 65 70 70 69 70 69
70 67 63 61 67 64 65 78 90 87 85 75 88 91 83 57 45 42 36 34 35 36 36 37 37 37 35 37 40 43 49 53 60 63 64 66 68 72 74 74 71 70 70 68
62 68 69 65 74 85 89 97 94 93 93 93 89 78 65 46 41 37 34 35 36 37 38 39 39 36 34 36 40 44 48 54 61 63 69 73 74 73 72 75 75 74 71 70
77 79 79 81 84 92 92 90 90 91 87 87 88 72 47 42 39 36 36 37 39 38 36 38 38 34 34 38 44 51 57 62 68 71 72 70 70 73 74 76 74 73 75 76
92 96 99 98 97 95 94 90 91 87 87 90 89 63 46 38 36 38 39 38 40 42 37 39 40 36 40 45 56 62 66 70 69 71 73 71 74 76 75 76 76 80 82 78
86 82 93 92 99 92 93 92 85 90 95 91 76 54 39 38 41 40 36 36 39 40 39 42 42 42 50 61 64 65 70 74 73 72 76 74 76 77 80 87 94 82 84 81
73 77 69 67 77 85 88 92 94 94 91 82 49 40 41 44 44 41 40 38 39 42 38 39 43 54 63 59 61 69 73 74 75 76 77 80 82 84 79 84 88 85 83 85
74 73 68 73 80 87 90 91 90 87 59 46 43 42 40 41 43 44 44 47 50 54 43 42 46 61 60 57 70 72 74 76 80 83 85 81 81 90 92 83 88 87 85 82
69 68 69 73 81 89 91 87 82 58 46 42 39 42 45 44 46 48 50 53 46 47 48 54 64 65 61 68 75 76 78 83 83 82 82 77 77 80 79 78 78 78 79 80
67 62 58 57 69 78 83 75 59 53 46 39 41 44 46 45 49 51 54 62 46 46 60 61 62 67 70 76 76 76 79 83 82 81 78 76 78 80 81 82 85 88 87 86
64 72 69 61 56 52 46 45 50 49 41 40 43 48 52 53 53 52 52 57 52 58 68 68 68 70 72 70 75 78 79 79 76 75 77 80 83 87 91 93 94 94 95 97
63 66 70 74 66 56 48 42 40 39 41 44 49 53 56 56 57 66 70 53 58 61 66 66 70 69 72 72 75 77 75 76 79 80 83 86 90 95 98 98 96 98 97 97
62 65 68 70 74 62 59 47 42 43 48 52 56 57 58 58 58 52 54 60 65 70 67 69 71 69 70 74 72 76 80 82 84 86 90 91 98 98 96 96 97 97 96 95
60 64 76 84 76 69 58 50 50 58 61 61 58 55 57 56 63 64 65 58 58 68 69 69 66 69 74 75 80 82 84 86 90 93 95 96 96 98 98 98 97 98 98 99
70 75 79 82 78 67 61 63 66 64 61 62 59 57 57 59 62 61 57 61 67 64 62 63 70 78 80 82 84 87 88 90 91 93 92 97 99 99 98 99 99 100 100 100
86 84 77 76 71 68 65 63 62 65 64 67 70 65 68 67 58 65 62 57 59 63 69 75 78 81 84 86 88 89 91 93 94 94 97 98 97 99 98 100 100 99 100 100

GFSNGP_925_rhum_012.txt.gz
RH
48 53 55 56 57 56 53 48 53 46 51 38 34 35 35 37 43 56 67 70 85 92 90 72 61 53 47 42 31 22 16 18 20 20 20 22 23 22 23 24 25 25 26 26
42 42 38 44 53 60 54 54 44 50 50 40 40 43 53 52 51 56 67 68 88 91 84 74 59 51 46 37 23 16 18 21 22 22 24 27 27 25 24 26 28 29 31 35
50 45 41 38 44 67 58 52 55 61 47 40 56 56 50 52 51 53 63 70 93 88 79 65 53 48 41 28 18 18 18 19 23 27 30 30 28 28 31 34 33 34 36 38
53 49 46 32 44 40 44 45 38 50 50 52 58 55 52 56 60 63 61 87 90 82 69 53 49 42 32 21 20 18 20 23 28 31 32 32 31 34 35 37 40 40 43 46
58 56 45 49 51 52 49 60 52 60 61 58 56 53 53 63 68 70 75 88 79 67 57 50 43 31 23 21 21 21 26 29 30 33 35 36 35 37 38 43 43 44 51 53
85 75 58 45 46 41 44 70 59 60 64 66 62 68 67 60 76 83 82 74 67 59 51 43 32 25 22 23 25 28 31 31 32 34 35 34 36 41 43 44 51 54 56 58
73 70 63 46 46 42 56 55 67 63 62 63 67 63 66 82 81 78 72 66 58 52 45 35 28 24 26 27 29 31 31 32 32 30 33 36 42 44 47 51 57 59 60 60
81 73 68 51 51 54 59 62 60 58 57 58 58 64 76 85 85 77 70 61 54 47 38 30 27 27 29 29 31 32 32 32 33 32 35 40 47 50 52 57 62 61 62 66
68 68 59 57 54 63 59 62 58 56 54 54 59 64 70 80 84 79 65 55 47 43 36 30 30 30 29 31 32 34 33 33 34 35 39 48 53 56 61 63 62 64 66 71
67 65 61 61 60 57 53 56 57 57 55 57 59 64 68 82 87 82 61 51 44 40 32 30 32 31 31 32 34 35 37 37 37 43 52 53 58 59 64 64 67 67 74 74
75 73 66 61 58 58 61 62 64 64 62 64 63 70 77 86 87 74 58 46 43 34 32 32 31 30 30 34 36 38 40 42 46 52 56 60 61 62 63 65 70 72 71 73
76 71 70 70 62 61 65 67 76 70 69 77 75 80 84 91 85 63 52 42 36 33 33 31 31 32 31 34 38 43 47 49 53 61 62 63 66 69 70 70 69 67 68 70
70 68 70 75 75 67 77 88 88 90 87 81 91 91 87 68 57 49 39 35 33 34 34 34 32 32 33 38 41 43 48 52 62 62 64 69 75 77 76 70 69 70 71 68
72 74 74 68 77 86 92 96 92 91 91 92 90 81 67 48 47 41 37 34 35 36 35 34 35 36 37 41 44 46 50 53 59 63 72 76 78 74 71 73 75 75 73 72
84 80 78 87 90 93 93 92 90 90 86 84 86 79 58 49 44 40 34 36 36 35 34 37 41 38 40 42 44 50 55 60 69 74 75 74 72 73 74 76 76 76 77 79
93 98 94 94 96 99 97 96 88 91 84 85 90 83 61 48 40 34 35 36 39 39 39 42 40 37 38 42 54 59 61 71 73 74 76 74 76 76 78 78 80 84 88 80
88 84 94 82 96 85 83 85 89 88 90 96 94 83 55 41 39 40 39 39 42 41 39 38 39 39 45 59 62 62 69 75 76 75 79 78 80 82 86 93 84 83 85 82
75 77 64 55 69 76 81 87 92 93 98 91 87 70 48 44 45 40 39 42 42 38 35 39 41 50 63 57 58 70 75 77 78 80 81 85 84 79 78 84 84 82 84 80
68 69 70 71 76 83 85 87 88 89 89 80 63 49 43 41 41 42 45 43 44 49 40 43 46 59 57 52 69 74 76 77 82 86 86 80 82 80 79 80 82 82 84 80
73 65 64 64 71 81 85 86 88 88 78 55 48 46 46 44 44 45 47 50 46 46 48 51 63 63 55 60 77 80 79 82 85 84 85 77 75 76 77 80 80 82 84 84
63 61 58 59 62 66 79 82 78 71 60 50 46 44 43 44 47 51 55 60 45 48 59 54 55 59 63 75 80 76 77 81 84 83 79 77 79 82 83 86 90 91 90 88
66 70 68 63 62 59 54 54 59 63 59 51 44 45 48 50 52 54 54 56 49 51 65 64 65 66 75 71 74 76 78 81 80 78 79 82 85 90 94 95 95 94 96 95
60 63 64 72 72 67 60 53 47 44 46 44 44 48 53 56 57 63 68 51 53 57 68 64 68 70 72 70 74 75 74 76 80 83 86 90 94 98 99 98 96 96 97 98
62 62 65 70 73 73 74 64 53 47 46 48 53 57 60 60 55 52 52 56 65 70 68 68 71 68 67 71 69 73 80 85 87 89 93 94 99 99 98 99 99 98 99 97
62 66 74 79 83 82 74 61 53 56 58 61 62 58 57 58 61 59 62 56 54 66 67 66 65 68 72 74 80 84 85 87 91 94 95 97 99 100 99 99 98 98 98 99
70 71 75 81 82 75 68 64 68 68 64 63 61 57 56 58 60 57 55 60 68 65 59 58 65 78 80 80 84 87 88 90 93 95 94 97 99 99 98 98 98 99 99 98
88 86 80 79 73 69 67 66 65 70 65 62 64 64 64 58 54 58 59 56 58 60 66 71 75 78 86 87 90 90 91 94 96 96 98 99 98 100 99 99 100 100 100 100

GFSNGP_925_rhum_015.txt.gz
RH
49 50 52 56 57 53 49 43 44 44 49 40 40 44 48 47 54 58 64 72 81 85 77 67 59 51 45 36 27 20 16 16 17 20 24 22 21 22 24 25 27 29 31 36
45 51 53 58 59 50 46 52 49 48 49 41 43 51 54 55 52 54 64 70 83 83 75 67 58 50 45 32 22 18 19 20 23 23 23 24 25 26 26 29 30 30 38 42
58 45 42 50 50 62 50 56 43 52 39 48 58 58 57 58 57 60 64 67 84 82 76 64 54 49 39 26 20 19 21 24 25 28 27 27 26 27 31 34 34 42 42 42
56 46 54 42 44 51 52 49 49 44 46 52 60 58 58 60 58 62 64 76 87 80 71 56 50 42 31 22 20 21 22 24 30 31 28 27 28 31 33 41 46 46 45 48
62 57 45 50 52 54 50 55 47 64 68 65 60 55 57 64 72 74 72 84 84 73 57 52 43 32 25 22 21 21 26 29 31 30 31 30 30 34 39 49 48 47 50 51
82 63 47 39 46 44 46 56 61 61 66 66 60 61 61 70 78 85 85 80 74 60 51 42 32 27 23 24 23 26 29 31 31 31 31 32 35 40 42 46 52 53 53 58
72 64 58 47 48 42 54 47 67 66 70 70 62 59 70 79 82 80 74 67 58 51 46 37 29 25 26 25 26 29 31 31 30 30 32 35 39 40 44 50 57 59 59 58
77 70 56 51 49 52 56 65 63 61 58 60 65 73 79 82 82 76 70 64 54 46 37 31 28 26 27 25 28 30 33 33 31 30 33 35 40 44 49 59 63 62 59 62
63 63 63 60 57 65 59 62 60 61 60 61 66 71 83 85 86 78 69 60 53 42 34 31 30 28 26 29 32 34 34 32 32 32 32 38 49 55 60 64 66 63 64 69
61 64 64 67 62 60 57 62 63 61 61 62 67 70 75 86 89 81 65 52 47 42 35 34 31 28 30 34 35 34 35 34 32 35 47 48 52 60 67 68 68 67 70 69
79 74 67 60 60 69 71 72 72 69 65 67 72 73 77 86 90 79 61 51 47 39 32 33 32 32 33 33 35 37 36 35 37 44 51 60 64 65 67 69 74 70 69 71
74 71 70 69 69 69 72 76 75 73 75 80 74 81 84 90 87 71 55 47 39 33 32 33 33 32 34 36 37 38 40 47 50 61 64 64 68 69 74 75 70 69 70 71
69 72 78 79 78 71 84 87 85 86 79 86 91 90 88 79 73 63 51 41 35 32 32 34 34 33 34 35 37 39 44 50 63 66 66 70 75 77 76 69 70 72 73 71
79 74 77 70 78 84 91 92 89 92 92 93 90 85 72 58 56 48 41 36 34 35 34 34 33 32 36 37 38 42 51 55 63 66 73 76 79 76 72 73 74 73 74 74
79 76 76 89 92 95 96 95 90 89 91 90 79 76 66 54 53 45 38 37 37 34 34 34 34 34 38 40 44 54 56 58 65 76 79 76 74 75 76 77 76 77 79 75
95 92 90 88 94 100 98 95 80 87 91 89 82 81 67 56 48 40 38 38 36 35 35 36 36 39 40 45 53 51 50 63 74 76 78 75 79 78 79 78 82 79 78 78
92 99 99 98 97 98 94 83 82 85 91 90 96 94 72 50 42 40 40 38 35 36 37 39 40 40 43 50 53 55 62 72 78 77 82 80 82 83 83 82 80 81 77 80
74 79 69 58 72 77 82 86 89 90 94 98 93 88 63 49 44 39 38 40 40 38 38 40 42 44 51 53 55 64 73 78 83 83 83 86 84 77 80 80 77 81 80 81
62 69 72 72 73 77 80 84 86 88 91 92 89 77 63 49 41 40 42 45 46 47 40 42 44 51 54 50 69 72 75 80 85 86 86 81 83 79 76 78 80 82 82 81
74 69 68 72 72 74 81 82 86 90 90 79 68 56 51 44 42 44 46 47 46 46 45 48 55 54 52 54 68 81 79 83 86 84 85 77 74 76 77 79 81 81 84 84
72 69 67 67 67 70 75 77 81 81 76 62 54 52 47 42 44 48 53 57 46 49 58 52 53 57 59 73 80 75 76 80 83 83 81 77 79 82 84 88 91 92 90 88
70 68 65 62 62 61 58 60 67 68 65 60 54 47 46 49 52 54 54 56 50 50 56 64 63 63 73 71 73 72 77 80 78 78 80 82 86 92 96 97 96 94 94 94
61 62 63 68 68 67 63 59 54 50 53 53 49 48 50 52 56 61 62 54 57 62 71 62 68 71 72 70 70 69 68 72 79 84 87 92 97 100 99 97 96 96 97 97
64 64 65 69 72 73 73 70 60 52 48 48 52 56 57 60 56 56 56 57 57 67 69 58 68 69 67 68 64 70 78 84 87 89 93 96 100 99 99 100 100 98 97 97
65 71 77 81 81 82 75 62 59 60 61 64 62 60 59 58 57 58 56 50 49 65 58 52 65 69 66 70 75 81 85 86 91 95 96 97 99 98 99 100 100 97 99 100
76 78 80 83 81 76 70 65 72 69 65 66 64 62 61 60 54 52 51 52 54 54 50 52 62 77 81 79 85 88 90 91 93 96 97 99 100 99 99 99 100 100 100 100
89 87 79 77 72 69 67 66 70 70 63 60 63 66 56 52 49 49 52 46 48 54 62 67 70 75 87 89 92 90 92 94 98 98 99 100 100 100 100 100 100 100 100 100

GFSNGP_925_rhum_018.txt.gz
RH
41 43 38 42 48 45 47 42 44 35 35 28 24 31 35 36 36 37 42 50 55 57 53 52 48 43 39 36 31 25 24 25 27 28 28 29 30 29 29 31 31 32 33 30
43 46 43 44 39 41 44 42 38 33 33 25 26 30 33 35 38 39 41 48 53 58 56 52 47 43 42 32 27 24 24 24 28 28 30 32 31 31 31 32 32 34 32 30
50 41 45 51 43 42 36 33 32 39 30 31 37 35 36 38 38 40 42 46 56 59 58 54 48 45 39 28 25 24 24 26 27 30 31 31 32 31 32 33 34 33 32 31
50 42 83 37 37 32 37 33 30 31 32 32 33 40 43 40 41 44 48 50 59 62 61 53 48 43 31 26 24 24 25 25 29 31 31 30 29 29 31 33 33 32 32 34
52 47 38 34 42 40 45 40 36 36 36 42 45 44 52 52 51 51 51 54 63 65 57 50 44 36 30 25 25 24 25 26 30 32 31 30 29 31 33 34 35 34 35 37
68 61 52 33 40 34 34 38 38 36 43 48 47 46 47 57 59 64 66 68 66 57 50 44 35 30 27 25 23 23 27 31 32 33 32 30 33 34 36 36 37 37 37 37
83 90 37 39 41 39 41 41 47 43 46 48 45 46 57 63 66 63 65 64 56 49 44 38 32 28 27 25 23 28 33 34 33 32 32 33 35 37 38 37 38 37 36 37
76 63 59 43 44 41 47 52 51 50 49 52 57 60 61 64 66 63 59 56 50 46 40 34 30 29 28 23 29 33 36 35 33 33 34 36 38 38 37 37 38 36 37 44
42 43 55 54 52 53 47 51 50 49 48 51 56 58 62 68 66 62 59 54 49 44 38 34 32 28 24 28 34 35 35 33 33 34 35 38 38 39 38 37 38 42 45 49
52 57 58 56 54 49 45 49 48 48 50 49 56 60 63 65 68 63 60 55 49 44 39 35 33 32 31 35 36 37 34 33 34 35 40 39 41 40 40 39 44 50 53 54
64 64 58 55 50 53 55 54 55 53 52 54 55 59 61 65 68 66 60 53 49 46 41 32 32 32 35 33 38 37 34 34 36 37 39 39 38 40 48 52 63 68 65 66
44 46 46 48 52 53 56 58 55 59 63 65 59 64 64 66 71 66 59 52 49 42 32 32 33 34 35 37 42 41 38 36 39 44 41 40 40 42 48 59 64 67 71 71
46 46 54 49 54 55 60 63 62 59 62 70 73 69 69 72 70 64 54 49 44 36 32 35 36 36 39 42 45 43 42 42 43 41 39 43 45 50 51 48 54 59 63 66
57 59 67 58 61 62 64 68 72 73 73 73 75 78 72 66 67 58 50 43 37 35 36 36 36 36 40 43 46 45 47 52 49 45 49 51 53 54 52 54 54 53 56 61
60 64 53 61 68 79 78 78 78 70 69 73 73 71 65 57 56 49 42 38 38 38 36 38 38 37 43 47 48 49 51 47 47 50 52 58 57 56 56 56 56 55 55 56
82 84 83 84 92 94 87 74 61 65 69 72 71 72 71 63 54 46 41 40 37 32 34 39 39 41 45 49 54 53 48 53 62 56 56 56 58 57 58 57 56 56 57 57
89 96 96 100 99 85 67 58 56 61 68 73 75 81 69 54 48 43 40 41 39 38 40 41 41 45 47 59 59 52 50 53 61 62 61 61 61 60 59 58 59 58 58 61
62 64 63 64 68 63 64 64 69 74 76 81 86 87 72 54 48 40 39 42 43 43 41 42 44 52 60 59 57 56 56 58 64 65 64 61 61 62 61 59 60 60 62 65
60 57 46 48 50 54 61 68 74 79 86 88 87 82 71 58 47 38 41 43 40 38 40 44 46 56 59 57 63 59 60 67 66 63 61 61 60 58 59 60 62 65 66 67
54 55 56 64 66 63 66 74 79 82 87 88 83 74 64 53 44 43 45 41 42 43 47 53 60 59 58 59 68 75 70 67 63 59 58 61 57 58 61 65 68 69 72 73
58 58 62 63 66 69 69 77 77 76 80 73 65 57 52 46 46 47 48 43 48 49 58 58 60 59 59 70 73 65 66 62 59 56 56 57 60 64 67 71 77 80 81 83
54 53 54 55 55 57 63 69 72 70 68 62 56 52 47 49 52 54 54 52 57 52 62 63 62 64 72 73 66 64 61 58 56 57 59 63 69 77 82 84 86 86 87 90
56 56 58 58 57 60 62 59 57 58 59 59 55 51 48 48 53 53 50 59 64 65 66 61 66 72 73 67 61 60 59 61 64 66 70 76 83 89 91 90 89 90 93 92
58 59 61 68 71 68 63 68 60 54 50 48 48 50 58 60 61 60 56 52 48 62 66 62 67 70 71 63 63 66 68 68 73 81 84 88 91 91 91 92 91 90 92 91
67 71 75 80 73 72 77 66 61 62 64 65 65 62 58 56 57 61 57 54 48 64 58 59 68 74 72 71 71 72 73 79 83 87 84 89 94 94 92 92 92 93 96 95
73 72 77 79 78 75 67 65 62 64 62 63 66 69 66 54 48 52 50 53 56 59 58 63 69 76 75 76 79 79 78 80 83 85 92 93 94 94 94 95 95 95 96 98
87 83 78 73 73 71 69 68 65 66 63 60 66 67 56 50 48 52 53 55 58 62 69 72 75 78 81 82 83 81 84 88 94 95 94 97 98 98 97 98 100 100 100 100

GFSNGP_925_rhum_021.txt.gz
RH
31 35 40 47 52 53 54 45 44 33 31 24 23 26 28 29 31 34 38 42 43 46 44 44 43 40 37 38 32 28 26 26 27 28 26 26 27 27 26 28 29 30 31 31
42 38 36 37 37 41 43 40 36 32 31 23 21 21 27 29 31 34 38 41 42 45 44 45 43 40 37 34 30 27 25 24 26 26 26 28 28 28 28 29 31 31 31 30
48 38 42 50 38 36 36 34 33 39 31 25 28 28 28 30 31 33 34 39 44 47 47 47 44 41 39 33 28 26 25 24 24 25 26 26 27 27 28 30 30 31 30 30
61 43 74 36 30 30 33 30 30 32 28 25 27 27 29 30 32 34 36 38 44 48 51 49 45 43 34 29 27 26 25 23 24 25 25 26 26 26 28 30 30 31 30 31
59 50 36 32 33 33 36 36 28 28 26 28 36 42 48 42 37 39 39 44 50 53 53 48 45 36 32 28 26 25 24 23 24 25 26 26 26 28 31 31 32 33 32 33
59 58 59 34 34 29 29 41 25 27 29 35 44 45 47 49 49 53 53 56 59 55 50 46 40 34 32 28 24 23 23 25 26 26 27 27 28 31 32 33 33 33 33 31
90 74 56 35 34 32 39 44 34 30 31 40 43 42 48 50 54 55 59 58 54 50 45 38 34 33 30 26 24 25 27 27 28 27 28 29 32 33 34 33 33 32 31 30
94 94 84 36 39 38 47 43 38 37 38 45 54 53 53 56 59 57 56 54 48 44 39 36 33 33 28 24 26 27 29 29 29 29 30 32 32 33 33 33 32 30 31 36
54 57 48 44 46 44 40 44 43 44 44 47 52 56 58 60 60 57 54 50 47 43 38 35 32 28 25 26 28 28 28 28 28 30 32 32 35 34 34 32 31 33 38 44
41 46 48 46 48 45 42 44 42 43 44 44 52 54 58 59 59 56 53 50 47 42 39 37 34 29 27 29 31 31 28 28 31 32 35 35 34 34 32 32 39 45 54 59
48 54 52 50 46 45 44 44 45 43 42 46 49 52 54 57 58 57 55 52 49 46 43 37 30 28 29 32 32 32 30 32 33 34 36 36 34 32 35 38 48 59 63 66
40 39 38 43 46 46 49 51 50 54 56 52 51 56 53 58 59 59 56 52 51 49 40 32 28 27 30 34 35 36 36 35 35 38 37 34 33 35 37 43 47 50 55 59
40 38 41 43 46 44 48 50 49 50 55 59 56 56 55 61 62 60 56 53 50 42 34 31 29 29 32 35 39 41 41 40 40 43 37 36 39 41 45 46 46 48 50 52
46 47 52 50 54 49 53 55 54 54 55 56 61 62 63 64 66 58 53 51 44 36 34 32 32 32 34 37 42 42 42 44 44 40 41 42 44 49 48 48 48 48 49 50
49 52 47 46 52 58 61 64 66 58 58 59 60 62 59 60 60 54 48 41 37 34 34 34 33 33 37 42 45 44 46 46 44 49 50 48 49 49 50 49 50 50 50 52
68 67 65 70 80 84 79 63 50 52 54 58 60 64 63 60 57 48 43 39 37 32 31 34 35 35 41 45 47 50 46 45 48 51 51 51 51 51 52 51 52 54 55 55
90 99 100 99 96 74 55 41 44 53 56 59 61 68 65 60 54 46 42 39 35 32 34 36 37 41 47 51 54 50 46 46 50 51 52 55 56 54 53 56 56 55 56 57
54 63 64 67 61 52 51 53 54 58 61 66 72 77 68 57 52 47 42 38 37 38 39 39 42 47 54 55 53 53 50 49 51 57 58 55 53 56 54 54 55 56 59 62
55 54 54 55 47 49 55 60 62 68 76 78 78 76 70 62 56 46 37 37 36 34 34 44 46 48 56 52 59 60 56 59 59 56 54 52 50 52 52 53 57 61 63 66
47 46 49 53 54 57 61 62 66 69 77 80 78 75 70 63 52 41 38 36 35 38 47 52 56 55 52 52 57 68 66 60 57 54 50 50 49 50 54 57 60 66 72 76
54 57 60 57 58 58 61 64 66 69 78 75 69 64 60 52 45 41 41 38 43 49 53 56 58 57 55 60 69 67 61 57 53 50 48 49 51 55 62 68 76 80 83 85
51 55 57 58 57 62 65 65 63 66 63 61 57 53 49 47 44 47 48 46 55 54 61 56 56 58 69 73 71 61 56 54 51 52 54 56 64 74 82 85 88 89 90 90
49 50 51 53 53 55 55 56 57 56 57 56 54 50 45 42 45 45 45 58 60 62 63 55 57 67 71 70 61 54 54 55 58 59 64 73 81 87 90 94 94 93 92 93
51 52 56 59 59 57 59 60 54 51 52 51 52 51 52 53 58 59 58 55 51 57 62 59 61 69 72 70 59 59 61 62 65 76 82 82 86 90 92 94 95 94 94 93
73 75 77 73 65 67 74 70 64 59 56 59 61 62 60 57 54 59 54 50 52 56 53 53 59 68 69 65 64 64 67 72 74 78 81 86 91 94 94 96 96 95 96 96
63 64 70 70 70 66 61 57 54 54 54 57 61 63 60 51 47 51 49 53 52 55 56 59 63 70 71 70 72 73 73 75 78 83 88 94 95 97 96 96 97 96 97 98
79 74 72 68 67 64 62 60 59 60 57 58 62 58 53 48 48 51 53 50 52 55 60 62 66 69 74 76 79 77 81 85 89 91 97 98 97 98 98 98 98 99 100 98

GFSNGP_925_rhum_024.txt.gz
RH
71 66 62 68 65 65 67 57 54 41 36 36 40 42 41 38 42 45 47 49 52 59 57 50 45 41 39 35 31 28 28 28 28 27 26 25 27 27 27 27 29 30 31 32
47 62 65 65 58 60 57 54 52 49 41 26 26 34 39 41 42 45 46 49 54 56 57 52 44 39 38 33 28 27 26 26 26 25 25 27 27 27 27 28 29 30 31 31
58 42 42 54 46 54 52 50 50 56 39 29 33 36 37 39 41 46 48 51 53 58 56 49 43 38 36 32 28 26 25 25 24 25 25 25 26 26 26 28 30 31 32 32
79 50 75 40 32 33 38 38 40 38 35 30 36 43 48 40 40 44 46 50 57 62 55 46 42 40 34 29 26 27 26 24 24 24 25 26 26 26 28 30 32 33 34 34
71 61 47 39 35 35 43 44 34 36 36 49 52 56 60 56 51 53 56 60 62 56 49 45 42 32 30 27 27 25 25 23 24 25 26 26 27 28 30 33 34 34 34 34
83 77 70 43 35 31 32 55 40 36 38 52 53 66 71 60 63 67 66 63 60 52 47 43 34 32 28 27 25 24 24 25 26 26 27 27 28 30 33 35 35 34 34 33
88 83 76 38 34 34 52 53 46 39 46 53 64 62 61 63 68 67 64 58 52 49 46 37 35 32 29 25 24 24 25 27 28 28 28 29 32 32 34 34 34 34 33 32
94 96 92 39 39 45 53 44 40 53 55 67 66 64 66 68 68 64 61 55 49 41 37 34 33 30 27 25 26 26 28 28 28 28 30 32 33 35 35 35 34 33 35 42
84 80 50 50 52 45 44 49 54 62 61 60 64 67 67 69 67 62 56 51 43 40 36 34 33 29 26 27 27 28 28 27 28 30 33 35 36 35 36 34 33 37 44 52
52 52 52 50 49 47 47 55 57 56 58 59 67 67 68 66 64 60 54 51 43 39 37 35 30 25 27 28 28 29 29 28 31 33 37 36 37 36 34 33 37 43 53 59
55 56 55 51 51 53 54 54 54 53 57 62 65 70 70 69 68 63 56 50 43 42 39 36 31 28 28 30 29 30 31 34 35 36 38 39 38 35 36 39 43 50 53 56
55 47 48 57 56 53 56 60 61 61 66 66 66 69 70 74 67 62 58 52 50 46 38 31 28 28 30 29 29 32 38 39 40 42 44 42 38 40 42 46 50 51 52 53
47 47 52 54 55 54 61 63 64 68 69 70 66 67 70 75 65 59 55 55 51 39 33 29 28 28 30 32 32 38 41 41 44 46 45 42 45 48 51 52 52 52 52 52
51 53 62 58 64 61 63 64 64 65 66 68 69 66 69 72 64 59 58 52 41 35 33 31 31 32 33 33 37 39 41 44 47 46 45 50 52 52 53 54 55 54 54 55
57 55 60 61 65 72 73 71 75 74 72 73 66 69 70 77 70 59 48 41 37 35 33 32 32 33 35 37 38 40 45 48 48 48 50 53 53 53 55 56 56 56 58 59
85 78 73 78 86 86 82 70 67 69 72 74 76 68 64 61 53 45 41 39 37 37 34 32 34 36 37 36 39 47 50 51 50 50 51 53 55 59 60 58 59 60 60 59
88 100 97 98 92 83 65 57 64 69 72 74 78 69 63 55 49 45 41 39 32 32 33 34 38 38 38 41 52 53 52 51 52 50 53 58 59 59 58 60 60 59 59 61
74 86 81 83 75 58 63 65 70 70 76 73 74 65 62 61 60 49 42 38 36 36 35 38 38 39 41 51 54 54 55 57 58 61 61 58 57 56 54 56 57 59 63 66
69 73 71 63 58 63 70 75 77 75 75 78 80 80 67 60 55 46 40 38 37 37 40 40 40 44 52 53 56 58 61 67 66 62 58 55 52 53 53 55 59 64 69 74
61 55 56 64 63 67 76 74 76 81 80 78 78 76 71 59 45 39 38 38 42 45 45 46 47 51 53 53 60 67 70 68 63 58 54 53 52 53 57 61 68 78 82 81
61 62 64 65 71 69 70 72 77 84 79 74 73 71 65 52 44 41 41 46 52 46 48 51 54 57 56 62 73 71 68 62 57 54 53 54 57 61 71 81 89 87 87 89
56 61 66 69 72 74 66 67 68 66 64 59 55 52 49 46 44 46 49 53 56 51 52 55 55 61 68 71 66 64 60 55 54 56 59 61 67 78 86 92 95 95 96 93
58 60 62 64 66 65 60 58 59 57 57 54 51 48 48 50 49 50 62 58 58 58 47 51 60 66 71 69 59 62 59 59 62 63 66 75 82 88 97 98 93 94 98 97
60 64 65 59 58 63 66 55 53 53 52 51 51 50 51 55 57 55 56 57 54 57 51 52 59 65 69 58 62 64 64 65 68 72 75 83 86 90 96 94 97 97 97 98
78 73 66 70 78 78 68 58 55 57 58 58 58 57 54 54 54 56 44 43 43 46 43 42 61 65 61 64 67 69 73 75 76 80 83 86 94 97 99 98 98 98 98 99
75 80 75 69 72 67 61 57 59 56 58 64 62 58 50 44 46 45 41 44 39 47 43 47 55 65 66 69 76 77 78 79 83 88 93 97 99 100 100 100 99 100 100 100
77 75 72 69 63 60 58 58 60 61 60 62 60 52 45 42 44 41 45 43 45 48 52 56 59 66 74 76 76 75 79 83 91 95 98 94 98 100 100 100 100 100 100 100

GFSNGP_925_rhum_027.txt.gz
RH
92 81 72 75 74 76 83 77 65 51 50 50 48 46 46 50 52 54 57 60 64 64 64 58 54 46 38 32 28 27 28 29 29 27 24 23 22 21 22 24 27 29 30 31
92 65 66 68 65 71 70 66 58 57 50 35 43 47 47 53 52 54 56 58 64 60 62 58 52 45 36 31 29 29 29 30 26 25 23 22 22 23 24 26 28 31 32 33
84 68 65 72 69 67 65 57 56 62 48 38 45 44 45 54 50 52 56 61 63 60 58 54 48 41 34 29 27 27 27 26 25 23 22 23 24 24 26 28 31 33 33 34
84 58 73 46 38 52 64 55 55 49 40 37 51 64 63 53 52 54 55 58 61 61 56 51 44 38 31 29 27 27 26 25 24 23 22 24 25 26 29 32 33 35 34 34
76 76 58 42 38 40 47 48 44 51 46 54 60 58 66 71 60 57 59 61 67 60 55 46 40 34 31 28 28 27 25 24 23 22 24 25 27 29 32 33 34 34 34 34
89 83 74 45 38 34 36 56 47 42 54 55 55 60 74 75 74 74 68 62 57 53 44 38 34 31 28 28 27 26 24 24 23 25 26 27 30 32 33 35 35 35 34 33
87 91 76 46 37 39 46 47 54 48 54 56 56 60 74 76 74 65 60 56 51 44 39 35 31 30 30 27 26 25 24 24 25 27 28 31 33 34 35 36 35 34 34 36
88 95 91 40 37 39 48 48 62 72 71 78 78 77 78 73 70 65 63 54 46 42 40 34 31 31 27 26 26 25 24 26 27 28 32 34 36 36 36 36 35 35 38 44
83 74 55 52 49 47 51 56 64 73 72 72 76 78 74 74 68 64 55 45 41 40 37 33 30 32 26 27 26 26 26 27 29 32 35 37 37 38 37 36 38 42 47 55
72 58 54 54 50 50 54 64 69 68 68 68 76 73 73 68 63 60 51 47 41 38 36 32 30 27 28 28 25 26 28 30 34 36 41 38 39 38 39 42 45 53 57 59
59 60 54 53 52 61 64 62 65 65 65 68 69 71 68 68 65 62 56 46 40 40 36 31 28 29 28 27 26 28 32 35 37 40 42 42 41 43 47 49 52 57 58 58
66 51 49 54 61 58 58 64 66 70 76 74 69 72 71 71 64 62 59 48 45 41 39 32 30 30 28 27 28 31 34 37 41 46 45 45 47 49 50 55 57 56 57 57
47 51 58 63 63 60 67 70 69 69 69 74 76 72 72 73 68 60 56 53 48 42 34 30 30 30 31 31 31 33 37 41 46 46 46 48 50 56 61 58 58 57 57 58
59 56 64 58 69 67 69 73 71 74 74 75 78 75 72 76 68 64 63 52 41 34 31 29 30 32 33 31 32 36 40 45 48 49 50 51 55 55 58 63 63 61 60 61
65 62 63 69 72 76 72 73 78 80 79 82 76 77 72 74 72 64 52 40 36 35 34 32 32 34 35 35 35 40 47 49 52 51 51 56 53 58 62 65 64 62 62 61
86 79 76 78 82 82 79 76 78 82 79 79 81 80 70 64 54 46 42 39 39 39 34 32 34 38 37 36 41 48 48 48 56 54 53 55 61 62 65 63 62 61 61 60
84 94 91 89 85 75 70 70 71 73 76 77 80 71 58 52 48 46 43 40 38 34 32 33 38 38 38 45 51 51 51 46 58 58 64 65 63 62 61 60 60 60 60 64
78 83 76 76 73 66 73 73 69 71 77 79 70 62 58 56 56 48 42 36 36 37 36 36 38 40 45 51 54 53 52 56 62 68 67 62 59 56 55 58 60 64 68 75
82 85 80 65 63 68 74 78 77 82 80 70 67 69 63 57 52 47 41 39 38 40 44 43 45 48 51 55 58 56 62 63 69 67 62 58 55 56 58 62 66 75 82 84
76 64 60 68 69 72 80 82 84 86 81 76 73 70 64 55 47 43 40 47 44 44 47 50 50 52 53 51 68 66 59 65 66 60 55 58 58 63 65 73 80 85 88 87
65 66 70 72 80 80 85 85 87 89 83 75 75 72 58 46 43 42 48 58 57 54 53 53 56 55 56 64 70 54 58 61 58 57 60 64 67 74 82 88 94 94 93 92
63 67 71 73 78 85 81 78 76 73 68 65 60 52 48 51 50 52 50 53 64 57 49 48 53 66 70 74 56 53 58 60 62 64 67 71 76 84 93 98 98 97 96 98
64 68 70 70 72 76 70 66 62 58 56 54 53 51 52 52 50 57 68 64 58 58 41 42 62 67 72 60 52 59 62 65 70 74 75 78 87 90 95 98 97 98 100 98
63 66 68 66 64 63 67 62 58 55 53 53 53 53 52 57 59 59 61 61 58 40 37 59 66 70 73 52 57 62 70 74 77 79 85 88 88 92 97 100 100 100 100 100
72 75 74 74 71 70 71 64 61 60 59 58 56 55 54 55 54 48 41 40 46 42 38 47 60 69 55 59 65 73 75 76 84 88 89 96 100 100 100 100 100 100 100 96
73 79 79 73 72 67 64 62 65 66 64 63 54 48 46 46 42 38 38 41 40 42 43 44 49 57 60 67 76 72 74 79 84 91 99 99 96 94 95 97 99 99 100 100
77 74 72 70 64 61 59 62 66 70 63 58 54 46 42 43 44 38 40 42 43 46 48 49 52 61 67 73 71 76 81 83 90 99 96 92 94 96 96 98 98 97 100 100

GFSNGP_925_rhum_030.txt.gz
RH
97 94 95 78 90 83 78 68 78 61 80 62 48 51 58 58 62 67 73 75 71 70 68 59 53 45 37 31 29 29 29 30 30 28 24 22 21 21 22 24 27 30 32 31
99 84 94 93 82 78 82 85 92 69 59 42 51 56 64 62 62 65 69 71 69 67 67 61 52 44 35 31 29 28 30 31 28 25 23 22 22 22 23 26 30 32 33 33
100 77 90 99 94 88 96 84 80 74 47 47 46 49 62 63 57 60 65 69 68 67 63 58 49 40 35 30 29 30 32 28 26 24 22 22 22 23 27 30 32 33 33 34
98 67 74 48 41 58 60 58 53 54 41 44 50 67 66 60 57 60 61 67 65 65 61 54 45 38 32 31 30 30 28 26 25 22 21 22 24 28 30 32 34 34 34 34
97 86 59 44 41 51 64 59 57 56 54 62 66 58 66 82 57 62 63 66 64 62 57 49 41 35 31 29 28 28 26 25 24 21 23 24 28 32 33 35 35 35 34 34
95 83 73 47 39 36 38 58 48 46 60 63 60 60 66 84 77 79 75 68 63 55 49 42 37 32 30 30 29 27 25 25 22 23 25 28 32 34 36 36 36 36 35 37
93 94 76 53 40 40 48 47 51 50 58 58 52 63 85 75 71 65 61 54 49 46 42 38 34 32 31 30 28 26 25 23 24 25 28 33 35 36 37 36 36 38 41 46
92 94 78 46 37 36 44 61 69 70 73 87 87 81 77 72 68 62 56 49 45 42 39 34 32 31 30 28 26 25 24 24 26 29 33 37 37 37 36 38 41 44 50 55
82 76 59 53 49 50 55 63 70 82 80 80 81 79 76 74 64 56 50 47 44 41 37 33 33 34 28 28 26 25 25 26 30 34 39 39 39 39 40 43 48 54 59 61
73 60 56 52 51 54 57 70 77 77 76 74 80 75 73 67 58 54 49 46 43 39 38 35 32 30 29 28 26 24 26 31 34 37 46 41 41 42 47 52 56 63 63 64
73 57 55 53 52 65 74 73 74 74 72 73 72 72 68 66 60 54 48 44 40 38 36 34 29 29 29 26 25 26 30 35 38 43 44 44 44 47 53 56 60 62 62 62
72 51 51 52 64 65 69 74 73 74 77 74 67 69 66 66 61 53 52 45 42 35 32 32 30 30 29 26 25 28 34 38 44 46 46 47 50 51 49 61 62 61 61 62
50 54 64 65 66 63 73 75 72 74 72 76 72 67 66 69 66 56 50 46 44 39 33 32 32 30 29 28 29 33 37 45 47 47 50 52 55 57 62 58 62 61 60 62
60 58 66 61 73 73 74 76 75 79 78 76 78 72 68 73 69 63 58 48 45 39 33 32 32 31 32 32 34 36 41 46 49 50 51 55 58 58 61 67 69 65 61 62
69 65 64 73 74 78 74 75 82 86 85 87 77 77 73 77 78 68 55 46 38 34 32 32 32 36 36 36 36 41 46 48 53 53 54 61 62 63 61 65 68 64 62 62
88 81 76 80 85 84 82 82 84 88 86 86 82 78 73 68 61 49 42 38 38 41 36 34 34 38 38 37 43 47 48 45 61 60 61 65 66 61 65 64 62 63 63 64
84 93 91 90 86 82 78 76 76 79 81 77 77 70 60 55 50 46 43 41 40 36 33 33 37 39 40 45 47 49 50 52 64 62 67 67 60 63 59 60 63 63 67 72
71 73 70 72 76 78 80 79 76 69 73 75 67 60 57 55 55 49 44 40 38 38 37 38 39 41 46 49 53 53 57 57 61 67 66 59 61 58 58 64 67 71 79 82
80 82 78 70 69 74 77 79 74 76 74 67 62 63 57 53 49 43 40 39 40 43 48 48 47 47 49 57 67 64 56 56 60 61 57 61 60 61 67 70 77 83 86 88
82 69 67 71 67 69 78 77 77 76 73 64 67 67 65 56 48 44 41 46 44 43 48 50 49 52 52 57 79 57 50 56 58 57 60 66 67 73 77 84 87 91 94 92
71 69 71 73 79 77 78 80 79 82 77 68 66 62 58 50 45 46 55 64 62 54 54 54 54 58 59 77 63 46 52 56 60 64 68 72 77 84 91 96 100 98 96 95
67 70 78 79 85 93 90 84 85 82 77 69 57 50 50 52 51 53 52 57 66 54 50 49 57 70 74 72 45 50 56 60 66 71 75 81 88 94 96 100 100 100 100 100
70 73 75 78 80 83 77 75 72 69 65 57 54 54 56 58 57 62 72 67 62 46 40 54 67 73 80 45 49 55 63 70 74 76 84 89 94 92 95 99 100 100 100 100
69 72 75 75 71 68 69 66 59 57 55 55 54 52 54 63 65 62 64 68 64 38 44 67 69 74 56 49 56 66 71 71 73 83 90 91 91 96 100 100 100 99 98 100
74 74 72 71 69 72 76 66 62 61 59 60 57 55 53 54 51 49 45 56 59 37 38 55 58 64 51 57 64 72 70 75 85 94 88 96 99 96 96 94 93 100 99 97
69 71 72 65 68 68 66 63 65 63 58 58 55 50 45 42 40 39 40 39 42 42 42 43 47 51 53 59 72 70 75 79 81 83 100 95 94 95 93 93 95 95 98 98
79 76 73 71 68 66 63 65 64 65 56 52 51 46 42 40 41 40 41 43 47 48 47 45 44 50 57 71 72 76 80 82 84 96 96 94 94 93 94 96 96 96 97 98

GFSNGP_925_rhum_036.txt.gz
RH
94 85 87 96 100 98 98 86 90 59 55 44 47 46 56 84 95 92 88 81 73 66 60 52 46 40 36 32 29 28 28 29 30 28 25 22 20 21 23 27 29 29 29 27
96 83 96 99 98 100 95 92 79 62 59 40 48 60 62 86 94 93 86 77 71 63 58 52 44 40 37 33 30 29 31 32 29 26 23 21 21 22 27 29 30 30 29 28
92 91 100 100 99 98 95 75 70 79 56 42 55 56 65 81 86 86 81 76 70 62 55 49 43 38 37 32 31 32 33 31 28 25 22 22 23 27 30 31 31 31 31 32
98 99 96 76 79 86 92 70 64 57 57 64 64 66 64 69 77 81 80 76 71 62 56 49 42 38 34 32 33 34 32 29 27 24 22 23 27 31 32 32 32 32 32 33
100 98 86 60 89 90 97 90 76 72 59 58 67 71 69 67 69 76 77 74 70 61 54 46 41 37 35 35 34 34 30 28 25 22 23 27 31 33 33 34 32 32 35 35
94 99 97 58 52 74 72 87 79 75 75 76 68 70 66 76 78 81 75 74 70 59 50 45 42 37 36 37 35 32 30 26 23 23 26 32 34 34 35 34 35 35 33 41
99 97 81 56 55 66 76 51 59 78 76 82 79 80 87 84 86 80 76 70 61 54 49 45 40 36 38 36 34 31 28 25 24 27 32 35 36 36 35 35 36 36 42 45
89 96 80 54 49 54 51 58 62 63 65 73 84 81 77 77 76 73 70 63 55 50 45 42 38 36 37 35 32 28 25 26 28 33 36 37 37 37 37 38 40 43 54 53
84 82 61 59 54 56 63 66 68 74 83 80 81 78 73 72 68 61 57 53 49 46 44 40 37 35 35 33 29 27 25 28 33 38 39 39 39 39 41 42 47 55 66 69
80 64 63 58 55 70 72 80 87 84 80 76 76 69 66 62 59 56 53 50 46 44 42 41 36 34 32 30 27 25 28 34 38 43 41 42 42 43 45 46 53 66 71 72
80 72 68 62 61 79 83 80 79 76 73 70 65 65 62 60 56 51 48 46 43 42 42 40 35 32 30 28 25 27 33 37 42 42 43 44 45 46 48 48 67 67 68 67
76 60 59 56 74 78 81 82 79 76 76 70 62 61 56 55 50 49 49 46 44 42 40 37 33 31 29 27 24 28 36 41 46 45 46 45 45 45 45 54 66 67 65 65
64 56 68 76 73 72 78 77 76 74 70 69 62 56 54 56 53 50 47 45 44 43 38 34 33 31 29 28 28 31 37 44 46 46 45 48 52 60 65 44 45 60 62 65
65 66 69 65 76 77 76 75 72 72 69 66 64 58 59 60 53 50 50 45 39 37 36 34 33 34 33 31 31 36 48 47 47 48 50 53 63 65 61 65 69 56 45 66
75 69 65 76 79 84 76 72 77 77 74 77 69 65 58 60 61 56 43 39 37 37 37 34 34 38 35 34 36 40 45 49 53 52 50 63 62 56 59 61 61 62 63 66
89 86 83 84 88 88 81 77 79 83 79 77 73 72 69 63 57 47 41 38 42 46 38 36 37 39 37 38 41 45 48 54 65 50 53 59 54 58 65 60 64 70 72 74
87 96 95 95 91 83 76 74 74 78 80 76 73 65 60 58 55 50 44 42 39 38 36 35 41 40 42 44 47 50 49 46 57 50 54 51 55 67 60 67 73 76 80 84
68 75 72 74 81 86 88 86 80 75 71 68 63 60 58 54 56 54 46 41 40 42 41 42 42 44 47 52 54 54 48 43 48 51 51 54 69 63 69 78 83 88 90 90
75 81 80 79 77 80 83 83 77 69 66 64 62 62 58 55 52 49 43 41 44 49 52 50 48 49 58 72 62 49 40 44 47 50 54 70 65 73 83 88 92 94 94 96
85 81 79 81 76 76 80 71 66 65 66 64 60 57 58 54 48 45 41 48 45 50 57 51 50 52 55 69 60 40 42 46 52 56 61 76 77 87 86 92 94 96 98 96
86 83 82 82 81 76 70 67 66 68 65 59 57 56 56 50 45 44 51 69 67 56 53 54 55 58 66 66 42 39 44 51 58 63 69 78 84 88 92 92 93 99 100 100
85 86 84 78 77 76 72 71 69 66 63 60 56 54 55 57 53 55 54 61 71 57 54 54 65 84 72 44 39 43 52 59 62 67 73 83 91 95 94 94 95 96 99 94
82 81 78 75 79 82 74 68 64 62 61 59 58 58 60 61 60 68 78 68 55 49 52 66 78 87 54 39 43 51 60 62 66 72 82 88 94 94 95 94 99 95 92 95
78 78 80 78 73 69 72 70 65 62 59 57 56 55 56 61 62 58 60 65 66 45 54 64 78 82 43 43 49 58 61 67 74 81 88 95 89 92 93 95 94 92 93 94
81 81 78 75 75 79 80 73 68 64 61 62 59 56 53 53 55 70 60 57 42 38 43 64 59 41 41 46 56 64 68 76 81 96 82 86 89 92 92 93 93 96 100 97
76 75 74 73 75 72 68 64 66 66 63 64 59 55 54 58 58 54 46 40 38 38 37 37 36 38 44 56 65 70 77 79 76 78 89 87 89 90 92 93 94 94 91 92
76 72 72 70 68 66 64 63 62 65 59 56 58 52 46 41 41 38 38 41 43 41 38 35 34 40 52 63 69 77 77 76 80 84 84 85 85 88 92 94 95 94 87 83

GFSNGP_925_rhum_039.txt.gz
RH
78 76 82 96 97 96 98 88 94 59 67 54 43 57 52 52 86 85 87 78 71 64 55 48 44 40 39 37 33 30 29 30 29 27 24 22 22 22 24 26 28 28 28 26
96 82 82 99 95 100 97 88 94 80 76 54 44 57 62 67 84 82 85 76 67 59 50 45 41 39 38 36 34 30 32 31 29 26 24 22 22 24 28 29 30 29 28 28
95 78 84 94 97 99 96 88 80 94 69 55 54 50 56 70 76 83 82 72 64 56 48 43 40 38 37 37 33 33 33 31 28 25 23 23 25 28 30 32 31 30 29 30
96 93 93 65 83 87 96 84 78 69 59 54 60 64 71 75 80 85 76 69 60 53 47 42 40 39 38 36 35 35 33 30 27 24 23 25 28 30 32 32 31 31 31 31
100 98 78 59 64 88 95 82 80 70 63 57 64 72 71 72 80 79 73 65 57 52 46 42 41 39 38 39 37 35 33 29 26 23 24 28 31 34 34 33 32 32 33 34
99 99 97 65 62 71 78 86 74 69 68 73 75 81 78 85 82 80 72 64 59 51 45 42 42 39 40 41 38 36 32 27 24 22 26 31 34 34 35 34 34 33 32 40
96 99 86 61 63 72 75 73 63 74 73 78 85 84 86 86 86 79 72 64 55 49 44 44 41 39 41 39 39 32 27 24 24 27 31 34 35 36 35 35 35 32 35 42
89 96 92 56 53 57 51 62 67 68 77 84 88 85 82 81 80 73 68 60 53 49 46 43 40 38 39 39 33 28 25 25 30 33 35 36 36 37 38 38 36 40 50 50
78 77 60 63 60 54 66 70 69 76 74 81 78 83 78 75 70 64 59 55 50 46 46 43 40 37 38 36 29 27 26 31 34 37 38 39 40 40 41 41 45 56 67 67
81 64 75 64 58 70 80 82 85 84 79 74 76 71 68 63 61 58 54 51 48 45 43 42 38 36 34 30 28 26 30 37 40 39 41 42 42 42 46 48 56 68 69 68
82 72 69 66 63 77 82 78 75 71 70 70 68 68 63 61 58 53 51 48 45 43 43 43 37 34 30 28 26 30 34 39 43 42 43 43 43 45 49 54 67 67 69 69
76 61 61 60 73 77 80 80 73 69 69 65 62 62 56 55 52 50 48 46 44 43 42 40 34 31 30 27 26 28 38 44 44 44 44 45 45 43 43 46 63 66 64 66
65 63 75 77 76 74 80 79 71 67 64 63 57 54 52 52 50 50 46 45 44 44 41 36 32 31 29 28 28 32 38 45 48 46 47 46 51 55 62 37 38 42 62 67
60 70 71 72 76 77 75 73 68 65 61 58 57 55 54 53 50 48 48 47 44 40 38 34 33 34 32 31 33 40 47 48 48 48 45 53 56 56 54 66 62 56 42 70
72 67 66 76 79 80 73 70 74 72 65 64 57 54 51 52 51 50 47 43 41 39 38 35 36 40 36 35 37 44 48 52 50 44 47 51 49 48 57 61 63 65 66 68
88 85 82 84 85 83 79 77 74 75 70 62 62 61 56 52 51 49 45 41 41 46 40 37 38 41 40 40 42 46 54 68 52 41 44 45 46 60 65 65 68 70 72 75
91 98 98 96 90 81 73 71 70 70 68 65 64 58 53 52 50 49 45 41 38 39 38 36 42 44 44 45 46 47 44 38 44 42 43 46 59 70 68 72 75 78 81 84
69 68 75 73 77 81 81 76 71 67 64 62 59 56 53 50 53 55 48 42 43 45 43 43 45 46 48 50 51 45 36 37 40 42 47 56 75 65 74 81 84 88 88 87
76 84 81 78 75 78 76 74 70 66 61 59 57 59 56 54 53 52 46 47 51 55 60 53 50 52 59 60 48 36 34 38 41 46 54 73 64 73 86 89 91 92 90 89
89 86 83 83 77 75 74 69 64 63 63 60 58 56 57 55 50 48 44 51 48 56 57 50 50 54 63 59 42 34 36 40 50 56 61 72 73 88 86 92 94 93 94 92
91 86 85 82 78 71 68 66 64 63 61 57 55 56 56 52 47 47 59 75 71 55 52 53 53 56 60 48 34 35 41 51 56 60 65 73 80 84 92 93 93 98 98 99
89 86 83 76 73 72 67 65 64 62 59 58 57 56 56 60 53 56 56 62 72 58 55 57 66 68 56 35 35 41 50 56 59 64 71 81 87 91 92 93 94 95 100 96
86 81 78 75 74 75 70 67 64 59 57 57 57 57 60 63 63 71 80 71 56 53 56 74 92 75 35 36 40 48 54 57 64 71 76 82 89 93 94 95 98 97 94 93
79 76 79 74 69 67 70 67 62 60 60 57 54 53 57 64 64 58 55 62 69 52 59 74 84 60 38 39 43 52 57 62 70 74 80 92 86 90 91 93 94 94 94 90
82 79 75 71 70 72 76 75 70 67 63 63 60 57 55 56 55 66 63 70 63 54 59 74 67 37 37 42 51 56 61 70 74 87 80 81 86 88 90 92 94 96 100 92
77 73 71 67 71 70 68 64 68 67 65 68 62 58 58 60 61 56 44 38 36 35 34 34 34 35 39 46 52 59 68 73 74 76 82 85 86 88 89 91 91 89 90 86
77 74 74 72 70 68 66 65 64 66 63 61 67 66 62 55 48 41 38 38 38 37 34 33 32 35 38 46 55 67 72 74 78 81 83 84 85 85 87 87 86 87 89 82

GFSNGP_925_rhum_042.txt.gz
RH
76 65 61 72 83 94 99 94 95 59 52 41 37 39 36 33 39 58 72 71 68 64 61 55 47 42 39 36 34 33 32 33 33 32 31 30 30 30 31 32 34 34 34 33
95 60 64 91 80 94 96 96 97 92 80 46 42 39 39 45 53 71 75 73 65 61 54 46 42 39 38 36 35 35 37 36 35 33 32 33 32 32 34 36 36 36 35 34
91 63 67 82 84 96 94 88 80 97 64 47 48 53 50 53 56 57 74 69 63 56 49 43 42 40 37 36 36 36 36 35 33 32 32 32 33 34 36 37 36 35 35 36
97 77 77 60 67 80 93 86 75 65 57 52 49 47 55 74 68 69 73 62 56 50 47 43 41 42 39 37 35 36 35 33 32 31 32 32 34 37 38 37 35 34 35 36
96 86 56 56 56 68 93 81 66 72 61 55 51 58 93 84 70 66 61 54 51 49 44 38 36 35 34 35 36 35 34 33 31 30 31 32 35 37 37 36 36 36 38 38
90 91 75 55 55 65 69 96 60 68 64 60 63 64 76 86 74 65 54 51 47 43 40 37 35 35 35 36 35 35 33 30 29 30 32 36 38 38 39 38 38 38 36 40
90 95 66 46 50 65 75 88 66 72 70 69 67 75 76 74 70 61 54 50 44 41 38 36 35 35 35 35 35 33 31 29 31 35 34 36 39 39 39 40 40 37 38 39
96 100 87 50 49 56 50 60 65 71 71 76 72 75 79 76 71 61 55 48 44 42 39 38 37 37 37 36 35 30 29 29 31 35 38 39 40 40 41 41 38 35 39 37
59 58 45 51 54 51 56 58 60 68 72 84 83 75 74 74 67 59 53 51 48 42 39 37 38 37 37 36 30 28 29 36 40 40 40 41 39 42 40 41 38 38 41 40
67 49 55 52 54 59 68 68 69 73 71 70 72 72 73 66 63 54 50 46 43 40 38 38 39 37 36 33 29 30 38 39 41 41 42 43 45 44 42 40 41 45 43 44
62 52 48 51 60 62 68 70 63 61 62 62 64 64 64 62 56 51 48 45 42 39 37 38 38 37 34 31 33 36 40 44 45 44 42 43 45 43 44 50 60 52 48 49
51 50 52 54 65 66 66 68 62 61 63 59 58 59 54 54 50 48 46 44 41 39 38 37 36 36 35 36 37 37 40 42 42 43 43 44 42 40 42 40 51 62 64 64
54 53 59 64 65 64 66 63 59 58 56 57 52 51 49 49 47 48 44 42 40 38 37 36 36 37 39 39 39 41 42 45 49 43 42 42 43 42 36 37 46 51 59 67
54 56 62 63 64 64 65 65 65 53 52 51 50 50 50 49 46 43 42 42 40 38 38 37 37 40 40 40 39 45 51 49 47 46 47 48 46 42 40 41 38 36 45 62
57 58 61 67 70 72 61 58 59 59 56 53 50 49 46 45 44 43 41 40 41 40 40 40 41 46 46 45 48 50 51 53 51 50 55 50 45 43 46 42 43 46 50 53
75 74 75 80 84 83 75 66 67 64 56 50 48 46 46 45 44 43 42 42 39 40 40 41 45 50 47 44 47 60 65 68 50 47 46 42 44 49 46 46 50 52 55 58
82 96 96 97 91 88 81 73 56 54 53 50 48 48 46 45 44 44 43 42 42 42 43 44 52 46 41 43 52 53 49 54 47 44 43 46 54 52 51 56 58 60 62 64
66 76 73 66 75 73 80 67 58 54 52 50 48 46 44 42 43 45 46 46 46 47 49 52 47 46 47 50 50 46 46 47 46 46 49 54 57 57 60 64 66 67 66 65
67 70 65 65 64 65 65 61 56 55 52 49 47 45 46 47 46 46 45 43 44 49 58 59 49 56 62 48 36 41 44 44 46 50 54 65 58 62 67 69 70 71 69 70
76 71 68 69 67 64 63 60 55 53 52 52 52 50 49 49 49 48 44 44 46 56 68 66 71 77 66 44 32 37 41 50 52 54 58 63 63 69 71 75 78 76 76 76
78 75 74 70 67 64 60 56 54 54 56 53 50 49 50 49 50 52 53 57 69 61 57 55 62 59 53 36 32 39 50 56 56 59 63 66 71 74 77 79 84 85 85 84
76 74 71 66 63 62 59 56 56 57 54 52 52 52 53 55 62 64 59 59 70 67 59 62 60 52 44 31 35 45 49 56 62 66 69 74 81 87 89 90 93 94 95 96
74 71 67 65 64 64 62 59 57 56 54 53 52 53 53 56 59 62 68 77 70 56 62 79 83 45 29 33 38 42 50 63 69 74 79 89 95 97 96 96 98 98 100 100
74 70 71 68 65 62 60 59 57 56 56 55 57 58 60 66 67 60 65 60 69 60 78 86 79 35 32 34 39 48 61 70 79 89 92 97 97 99 100 100 100 100 100 100
80 77 75 70 65 63 70 71 68 64 63 65 65 60 58 59 61 72 71 76 79 67 75 84 54 34 33 38 46 54 66 74 83 91 87 95 100 100 100 100 100 100 100 100
74 70 68 64 66 66 64 59 59 61 61 64 69 64 60 61 60 62 64 58 47 37 33 34 33 33 36 41 51 54 64 69 75 80 90 97 99 93 93 91 92 95 98 97
76 71 70 68 67 65 62 61 60 61 61 62 71 73 66 61 56 46 41 36 33 33 32 30 31 34 36 42 45 56 65 70 74 78 85 85 84 86 86 88 93 95 95 90

GFSNGP_925_rhum_045.txt.gz
RH
68 58 56 62 68 68 96 96 97 68 70 56 53 48 40 35 32 30 43 59 60 59 56 58 56 50 46 44 40 36 34 33 32 30 30 30 29 29 29 30 31 32 31 31
92 62 57 68 54 55 73 95 93 95 93 62 48 38 47 42 36 52 57 74 68 61 60 51 46 43 40 36 35 35 35 34 33 32 31 32 31 31 33 34 34 34 33 32
78 55 51 76 69 75 92 90 93 90 58 45 48 61 79 73 74 65 67 72 64 60 50 44 40 37 37 37 39 40 40 36 35 34 33 32 32 34 35 35 35 34 34 34
77 56 75 42 48 60 74 80 69 72 62 56 54 55 76 85 79 70 68 64 58 51 48 42 40 40 40 41 42 43 41 39 34 33 32 32 34 37 37 36 34 33 34 35
78 65 49 40 49 57 80 86 67 70 59 54 52 84 88 87 67 65 58 53 50 46 45 49 48 50 47 47 41 38 36 35 32 32 31 33 35 35 35 34 34 33 36 35
74 84 73 49 49 56 65 97 58 77 74 65 57 94 96 83 58 56 52 52 54 57 68 82 76 71 68 60 55 54 40 30 30 30 32 36 37 37 37 37 37 37 34 35
84 85 55 36 44 62 65 81 61 76 75 67 68 76 85 75 58 50 54 60 60 57 68 62 60 47 39 36 33 31 29 30 33 34 34 38 38 37 37 38 38 35 34 33
98 98 81 41 46 60 52 61 57 86 74 72 69 73 74 64 57 51 48 43 39 37 35 34 34 35 34 33 32 33 35 35 34 36 37 38 38 38 38 38 36 32 31 35
63 55 36 42 47 44 48 53 54 62 87 78 80 91 82 68 72 75 62 60 49 40 42 43 43 42 41 38 35 32 31 35 38 38 37 37 38 39 37 37 34 32 35 37
53 41 43 41 41 49 56 57 58 64 61 90 77 73 67 61 57 55 60 64 57 50 42 39 38 37 37 35 32 32 36 38 38 38 37 41 40 40 37 35 35 39 36 38
51 44 42 49 53 55 59 59 56 58 60 64 74 77 73 80 57 49 44 41 38 37 37 38 38 37 35 33 32 35 37 39 42 41 38 39 41 38 37 41 47 52 48 50
48 48 48 51 56 58 58 63 56 58 60 58 60 65 58 55 50 46 44 40 38 38 38 38 37 36 34 35 37 39 39 38 39 40 40 39 37 33 37 33 30 32 62 66
48 48 52 56 57 55 57 56 54 55 55 57 53 51 50 50 47 46 42 40 40 40 39 38 37 37 36 36 36 36 37 41 42 37 37 36 34 35 33 32 37 44 53 54
46 50 56 57 58 56 60 61 58 52 50 50 49 49 49 49 46 42 41 41 40 39 39 39 39 39 38 40 42 42 44 43 41 42 42 40 38 36 35 35 34 33 38 49
48 48 52 55 59 60 54 53 55 54 52 51 50 49 46 45 43 41 40 40 39 39 40 41 44 45 45 46 46 46 46 47 45 45 47 42 38 37 39 37 37 40 44 48
61 61 63 66 73 71 66 61 59 57 53 51 47 46 44 42 41 41 41 40 40 40 40 43 45 46 46 47 52 57 58 39 41 40 38 36 36 41 40 40 44 47 50 53
78 93 93 95 86 80 74 64 59 56 55 47 45 45 44 43 42 41 41 41 41 41 42 46 48 48 47 48 48 48 50 50 38 37 37 41 46 45 44 49 52 54 57 58
59 63 71 72 77 80 80 70 50 48 48 46 45 44 44 42 42 43 43 42 42 44 47 50 51 49 49 49 46 42 42 41 40 41 43 45 52 53 52 57 58 59 60 60
58 66 80 65 68 69 66 55 50 48 46 45 44 43 42 44 44 43 41 42 45 49 54 57 50 50 50 41 41 40 40 39 40 41 46 52 50 52 57 59 63 65 65 64
66 62 59 64 62 63 58 53 50 47 46 45 46 46 46 45 43 41 40 41 42 52 60 53 66 63 51 32 37 39 41 43 44 44 48 58 54 59 63 65 67 69 71 71
71 67 67 63 63 59 55 51 48 48 51 49 48 48 48 46 44 50 56 58 65 66 61 66 65 61 53 35 39 43 48 47 46 49 54 57 60 64 68 72 79 80 82 81
70 69 66 63 60 55 52 50 51 52 51 50 50 48 49 50 52 50 51 57 67 68 63 67 62 55 34 32 42 48 49 52 54 56 60 64 74 84 89 88 90 91 92 94
67 66 63 60 57 53 52 53 52 52 51 51 50 51 52 58 58 58 61 67 68 68 70 72 64 33 28 42 43 46 52 57 60 65 74 79 89 93 94 95 94 95 96 97
67 65 62 60 57 55 55 55 53 53 52 51 51 53 56 60 62 59 66 70 73 77 79 81 62 30 32 36 41 49 56 60 72 84 89 86 92 96 96 97 97 97 98 98
75 74 70 67 61 58 64 63 62 57 56 59 59 58 57 57 58 69 68 75 81 76 81 85 52 33 34 36 41 48 54 68 77 85 84 89 95 98 97 97 95 96 100 99
74 70 68 63 63 64 63 58 56 58 58 61 65 62 60 61 67 71 74 72 64 63 52 44 39 33 33 35 42 45 57 69 76 79 90 91 95 92 94 92 91 94 96 95
73 68 68 65 64 62 58 58 57 58 59 61 66 68 70 70 66 62 57 48 38 33 32 30 30 32 31 33 35 46 63 71 78 82 81 80 82 86 89 88 93 95 94 90

GFSNGP_925_rhum_048.txt.gz
RH
76 66 60 67 73 76 88 84 95 67 69 63 70 65 60 57 64 64 43 69 66 65 64 71 70 59 52 46 41 38 37 37 36 34 33 33 32 32 31 29 28 28 28 27
92 65 62 77 67 66 66 70 95 94 95 74 58 47 56 67 76 80 66 74 68 63 66 56 49 49 45 41 38 36 37 38 34 32 33 33 31 30 30 31 29 29 30 30
86 63 60 76 65 63 83 84 90 97 78 63 67 57 80 84 82 78 70 75 78 69 52 46 44 42 43 39 41 42 40 38 37 35 35 35 32 32 32 32 32 31 31 32
95 72 89 48 54 62 72 77 76 80 67 61 61 77 88 90 84 73 70 73 69 52 46 42 40 39 41 42 45 46 44 40 38 37 38 36 35 34 34 34 33 32 33 33
85 66 58 52 55 57 70 84 76 79 80 70 74 86 90 81 60 63 59 54 50 46 43 41 43 47 50 50 53 49 52 46 39 42 40 37 35 35 34 32 32 33 34 34
95 91 81 49 54 53 70 98 68 84 83 76 76 92 98 80 58 55 49 48 53 56 54 60 56 53 56 54 54 56 50 46 49 53 43 39 34 34 35 36 34 34 33 34
95 93 70 41 61 70 92 79 64 82 84 76 90 91 85 73 80 83 87 80 76 80 88 92 87 84 89 92 91 90 85 81 71 44 35 36 38 37 35 34 36 35 32 33
92 96 92 43 52 66 62 62 67 84 78 77 80 78 65 57 79 83 86 88 95 99 99 100 100 96 95 86 78 61 43 35 35 43 50 39 34 34 36 36 34 32 32 35
78 72 46 46 52 49 55 60 58 62 85 81 93 87 73 66 70 64 60 48 50 54 51 48 42 37 38 39 35 36 36 39 45 39 37 36 36 38 37 35 33 35 37 37
68 52 52 55 54 60 63 65 61 63 78 92 90 88 77 86 85 84 74 77 71 64 62 62 46 43 44 39 38 37 38 37 36 35 36 36 35 37 36 36 37 40 42 46
63 55 52 58 61 60 64 60 59 59 66 82 81 70 68 78 62 66 68 68 48 46 43 41 40 40 38 36 35 36 37 37 39 39 38 38 37 35 34 41 35 30 46 54
65 55 56 65 62 58 62 63 59 62 70 78 78 84 72 70 51 45 46 41 41 40 39 39 38 36 35 34 34 37 40 39 38 38 37 37 35 33 35 35 33 34 36 53
58 51 62 65 62 57 60 60 59 62 66 70 66 60 58 55 48 46 47 42 42 41 39 37 38 38 37 37 35 36 39 38 38 36 37 36 36 35 34 34 37 46 55 49
53 57 63 64 70 62 61 62 59 56 56 57 56 52 51 50 45 45 43 44 43 42 42 40 39 39 37 36 36 37 42 39 38 40 40 38 35 35 37 38 37 37 40 48
54 54 61 65 65 67 64 59 60 59 57 57 53 52 48 47 46 43 42 43 42 43 43 41 40 42 39 35 36 40 42 43 42 40 32 34 34 38 40 39 41 45 49 52
70 70 69 74 76 72 71 67 58 58 57 54 51 48 46 44 43 42 43 42 43 49 49 45 46 45 41 38 39 42 44 47 37 35 34 34 37 44 43 44 50 53 56 58
84 90 84 94 84 75 65 59 56 55 52 50 48 45 45 46 45 46 46 44 45 46 44 42 46 45 46 46 48 51 42 32 38 35 36 38 46 49 49 52 57 59 60 62
68 68 83 78 73 74 70 62 62 52 49 47 46 45 45 45 48 48 47 46 46 46 45 44 42 42 43 43 41 37 34 33 32 34 38 42 54 51 52 58 60 63 66 67
63 71 80 74 78 76 72 66 53 49 48 46 45 45 46 47 47 47 48 50 53 57 54 49 46 42 43 41 31 30 32 34 37 40 42 52 52 53 59 62 65 68 70 72
69 67 82 80 72 68 65 63 50 48 47 47 48 48 48 47 45 46 46 49 49 51 52 54 49 45 33 35 30 29 32 36 38 42 47 55 56 62 64 68 73 78 80 82
73 72 75 75 72 59 54 49 48 48 50 48 48 49 48 45 47 51 58 67 64 54 63 60 52 46 31 30 30 32 35 36 39 47 53 58 62 70 79 86 89 91 93 93
74 74 72 66 62 58 52 49 51 51 52 52 51 49 51 56 52 54 56 64 70 68 60 56 51 40 32 30 32 33 33 37 47 53 58 66 76 84 93 95 93 94 95 94
74 72 68 65 60 55 52 54 54 53 53 52 51 52 53 57 56 62 70 66 67 60 57 56 52 30 28 30 31 33 38 46 53 61 70 81 88 90 92 93 96 93 89 90
71 69 67 59 56 57 59 58 54 54 53 53 54 55 56 59 57 53 58 63 69 68 64 66 40 27 27 29 32 35 43 50 59 64 74 86 80 85 92 92 89 83 87 93
76 69 64 63 69 68 64 62 59 57 57 59 57 57 57 57 57 68 62 70 82 74 71 77 32 25 28 30 33 40 44 50 63 81 77 78 81 87 86 81 80 89 100 94
78 76 72 65 65 67 64 58 59 60 61 65 65 59 56 55 62 64 69 76 73 68 57 46 31 28 29 30 35 37 41 50 61 70 82 76 78 78 77 77 79 90 94 92
73 70 68 68 65 63 60 60 60 62 63 66 71 65 64 66 68 69 71 65 54 40 33 30 28 28 26 29 31 36 48 59 68 76 75 75 74 76 75 78 84 92 93 88

GFSNGP_925_rhum_051.txt.gz
RH
80 76 74 76 79 76 84 71 90 61 62 54 53 66 66 64 67 60 63 71 79 69 72 88 69 63 57 51 49 50 49 48 44 44 40 38 39 39 37 35 29 28 35 46
93 72 75 83 72 73 73 70 67 66 74 63 62 63 60 81 81 79 76 79 75 72 78 66 57 48 51 59 54 48 44 43 42 38 40 39 37 34 31 32 36 34 36 41
94 66 69 85 73 73 72 75 67 91 76 70 74 73 90 91 86 79 76 80 77 60 55 46 46 48 51 54 51 48 44 39 38 40 44 46 47 46 32 34 35 32 35 32
98 82 88 54 51 59 70 72 77 76 74 73 74 85 84 66 70 68 68 68 53 49 49 47 48 49 51 54 48 44 42 48 59 65 68 63 44 40 41 45 50 43 32 32
89 89 65 55 61 60 74 79 73 78 69 77 78 86 91 62 54 55 52 48 48 48 48 50 52 53 58 64 56 56 54 57 72 65 51 45 42 40 35 34 36 35 34 34
96 94 88 58 54 59 72 94 73 75 83 82 87 93 98 87 60 58 54 52 54 53 56 58 56 64 72 72 86 87 87 77 58 46 38 39 49 63 60 44 35 32 32 33
83 96 76 53 58 71 85 74 67 78 89 82 94 91 86 85 84 75 73 76 78 80 78 82 78 76 85 87 98 94 84 71 80 88 90 86 72 51 38 34 34 32 33 34
88 97 92 46 71 70 61 59 66 82 82 87 79 65 80 83 88 88 86 96 98 97 99 99 98 96 100 100 98 96 91 95 92 78 59 46 43 37 35 34 32 33 34 36
80 74 50 47 52 62 61 66 67 71 89 83 80 69 64 67 74 87 93 97 100 100 100 100 100 99 100 100 97 95 68 52 49 51 42 36 34 35 35 34 34 38 39 42
74 59 58 53 64 63 64 66 62 65 89 88 85 74 72 71 64 64 62 62 65 63 60 50 49 51 55 47 42 40 56 74 43 38 38 36 36 36 36 36 33 35 40 45
68 61 61 62 63 62 66 60 61 60 79 85 85 82 79 81 73 69 68 67 67 69 64 55 49 50 47 44 45 49 42 39 39 36 36 36 35 33 34 36 32 33 41 48
75 57 61 64 64 60 63 62 61 68 89 80 72 83 79 85 74 70 54 49 48 46 44 43 42 41 41 40 35 35 40 38 37 38 38 35 36 42 42 41 44 47 48 57
61 56 63 67 61 59 64 63 64 74 84 86 79 70 70 54 46 46 44 45 44 43 41 40 40 38 35 35 36 36 38 39 38 38 36 35 32 31 32 32 32 38 48 50
55 63 68 71 70 62 64 64 63 62 64 66 66 67 73 70 59 67 54 44 42 42 43 43 42 40 38 37 36 36 38 38 40 40 34 30 30 35 38 39 41 43 47 58
62 61 64 70 71 70 66 63 66 63 61 61 56 54 52 64 58 47 45 44 44 45 45 42 41 42 38 36 38 39 39 40 35 28 32 32 34 39 41 42 47 53 54 54
76 74 75 75 78 75 69 66 65 63 63 60 54 50 49 47 46 46 46 46 46 50 49 44 44 43 38 36 38 42 44 35 29 28 29 32 40 45 46 50 55 58 61 63
76 84 82 90 82 77 72 62 56 57 55 51 49 48 47 47 47 48 51 49 48 45 44 44 48 45 42 39 38 36 31 38 32 29 33 39 47 49 52 56 60 62 65 67
82 72 79 79 81 74 66 59 55 52 50 49 51 49 49 48 50 52 55 49 46 47 46 47 45 42 40 40 36 28 25 26 29 34 35 47 56 51 55 60 64 68 69 71
68 70 79 77 69 68 67 62 55 51 53 53 48 49 49 50 52 54 50 50 53 56 54 46 42 38 39 33 26 24 26 30 33 37 42 51 49 56 61 67 72 76 79 81
76 77 79 80 78 76 78 72 52 49 48 48 49 50 50 51 52 53 51 54 54 52 52 44 41 40 36 28 24 25 28 31 34 40 54 49 56 65 72 81 88 86 86 90
79 80 92 78 73 72 77 71 56 49 51 50 49 50 51 51 50 50 54 62 58 55 47 45 39 32 29 26 26 28 29 31 38 43 47 55 65 72 79 86 89 88 91 95
80 77 77 72 63 59 54 51 50 52 52 52 51 51 54 57 53 54 55 59 64 64 52 48 42 29 29 27 27 27 30 35 40 44 54 65 75 82 85 86 87 93 93 90
78 74 69 65 61 56 53 56 54 54 55 54 52 53 53 57 57 64 75 67 68 58 51 48 40 46 25 27 28 30 33 37 42 50 61 69 82 83 83 83 92 92 89 85
77 75 71 62 57 59 68 70 70 60 54 52 52 52 56 60 58 54 53 65 60 55 53 62 55 40 26 26 29 31 34 37 42 57 68 76 72 78 78 82 89 84 87 86
79 74 67 64 71 71 66 62 60 57 57 59 55 54 54 54 55 63 60 68 74 59 60 65 50 29 26 28 30 32 31 36 49 74 68 69 76 75 73 79 84 84 89 85
82 78 71 65 65 66 66 61 60 62 62 65 64 57 56 55 56 60 64 76 69 63 55 51 31 26 28 28 29 29 32 44 57 63 70 74 74 72 74 78 81 80 82 84
77 75 72 71 68 64 61 60 62 62 63 65 71 65 62 67 67 67 76 78 70 58 44 30 28 27 27 27 26 30 43 56 65 70 72 73 71 72 75 80 83 84 81 80

GFSNGP_925_rhum_054.txt.gz
RH
82 76 74 73 76 80 87 72 87 64 68 53 44 45 55 64 76 76 75 72 70 77 82 88 70 59 54 57 60 63 61 59 54 53 50 45 44 42 42 43 45 52 45 32
89 74 81 89 80 79 76 71 70 67 68 45 43 66 71 86 82 80 72 73 77 76 80 66 58 67 70 68 65 64 60 56 52 51 53 54 52 54 47 42 40 51 65 78
92 71 72 90 80 77 73 72 64 78 59 51 70 73 88 78 73 71 66 78 65 52 49 53 57 64 70 73 78 71 60 62 61 55 57 56 58 51 57 67 72 74 66 49
97 83 94 56 59 62 68 62 63 62 68 68 71 86 71 68 62 61 61 55 56 50 52 56 66 78 85 80 80 80 82 79 72 72 73 66 64 72 70 63 54 56 67 67
87 99 71 56 63 67 77 72 70 73 70 68 76 91 89 82 53 53 49 56 52 52 54 57 61 65 73 79 85 88 89 90 88 78 84 83 86 79 78 68 60 60 45 36
94 97 85 59 55 64 68 93 71 74 74 87 84 94 94 86 64 59 53 55 56 59 62 68 71 70 71 79 84 90 96 99 94 94 95 95 79 59 83 97 98 66 48 37
91 87 82 55 51 70 83 70 65 73 82 80 92 87 86 84 76 72 80 81 77 79 79 78 76 77 95 98 100 100 100 97 98 98 89 95 99 100 94 61 41 36 35 36
90 96 93 48 75 72 61 65 66 79 82 87 78 80 84 84 84 83 89 96 98 99 100 100 100 99 100 100 100 99 99 100 100 100 100 100 90 67 50 39 35 36 38 41
79 75 52 48 54 56 64 70 66 73 86 81 74 80 81 86 88 88 92 98 100 100 99 100 100 97 100 100 100 99 99 100 99 95 70 48 38 37 35 35 35 38 39 40
73 62 63 57 56 63 64 66 63 66 86 79 69 69 68 75 82 88 91 93 99 98 96 93 99 100 98 99 98 89 65 56 52 45 39 38 37 36 36 31 30 34 38 40
78 62 59 64 61 62 65 61 61 62 89 86 66 72 71 73 70 66 67 62 60 56 55 56 73 80 82 57 51 55 61 47 43 43 39 37 36 35 32 36 33 34 39 47
82 59 58 60 63 62 65 62 62 78 94 78 75 75 67 76 69 66 67 68 62 52 52 53 54 50 47 46 60 56 42 42 39 38 38 40 40 43 53 55 57 53 58 60
67 58 64 64 62 60 63 62 64 83 85 82 79 77 74 74 68 57 53 52 50 47 45 44 45 45 45 48 44 38 39 40 39 36 35 31 29 30 32 34 37 50 62 63
62 64 67 69 65 63 62 66 67 73 81 81 77 74 70 82 64 60 60 48 46 44 44 45 45 42 39 36 36 36 37 36 36 36 30 29 32 37 38 39 44 47 48 67
76 67 70 73 70 69 67 66 70 72 70 74 73 76 71 70 86 64 47 45 46 47 46 40 40 42 39 36 35 36 36 39 34 29 31 33 38 41 41 46 52 55 56 54
74 72 71 70 76 75 69 70 69 69 67 63 59 63 70 81 76 51 46 47 48 49 46 40 40 41 38 36 36 38 38 31 30 30 32 37 41 42 46 52 57 61 63 63
89 83 79 88 82 80 74 66 62 63 60 56 54 54 59 61 55 50 48 47 47 45 42 40 42 41 38 36 38 40 37 35 29 30 33 42 46 47 52 58 62 66 68 70
90 88 81 74 83 75 71 62 57 55 53 50 53 62 68 66 54 55 56 50 48 46 43 41 40 41 40 39 35 31 29 28 29 30 37 47 46 50 58 62 68 71 73 74
82 82 79 79 75 67 63 59 55 53 54 58 68 72 65 58 56 57 54 53 54 57 53 47 46 43 42 36 27 24 26 28 30 33 44 46 49 59 62 71 79 79 80 81
83 84 75 73 67 66 64 58 55 63 65 71 56 53 53 55 56 55 52 52 52 49 47 43 40 39 34 28 25 25 26 27 30 36 50 48 60 64 71 78 86 82 83 86
85 83 96 88 79 77 77 74 74 68 61 56 52 52 55 56 54 54 56 56 50 46 44 41 39 37 29 26 26 26 25 27 31 36 44 54 62 69 76 82 84 86 86 84
86 80 82 76 79 80 79 78 55 53 54 53 51 54 56 59 56 53 50 52 53 48 42 41 37 32 27 27 26 24 26 30 34 40 51 60 70 77 80 80 83 84 81 81
83 78 80 76 65 63 67 62 55 54 55 54 54 55 55 57 57 59 67 56 56 51 44 41 34 38 27 26 25 26 28 31 36 45 54 61 70 74 75 77 83 80 76 85
83 80 74 65 59 60 71 72 75 71 66 53 51 51 52 60 59 54 49 54 57 51 48 46 63 63 25 25 26 27 28 31 36 47 60 71 70 73 72 73 73 72 75 86
87 78 72 66 68 69 72 78 75 68 58 55 54 52 52 53 52 58 57 60 68 52 53 71 69 47 25 26 27 27 27 30 40 57 62 66 69 69 68 70 73 73 78 84
88 87 78 70 68 67 68 67 66 62 62 64 62 56 55 53 50 54 62 63 65 55 60 65 60 29 26 27 27 26 27 34 48 60 65 67 69 68 68 71 73 75 79 80
87 79 77 74 70 67 65 63 64 64 62 62 66 61 57 56 59 61 66 69 64 62 58 50 34 26 27 27 25 25 31 46 57 62 63 64 66 67 69 72 76 78 78 80

GFSNGP_925_rhum_057.txt.gz
RH
75 74 74 76 76 88 84 79 85 70 72 55 46 46 42 75 78 74 73 71 72 76 88 76 67 70 70 66 67 71 75 78 80 78 73 69 60 52 50 49 46 47 44 35
88 73 80 88 80 77 83 77 78 71 72 48 43 42 66 83 74 72 67 60 71 61 60 62 74 76 73 67 66 61 60 61 60 58 56 55 54 57 55 48 42 39 46 49
94 74 75 87 83 81 75 74 66 79 58 45 56 69 82 76 71 64 65 58 53 54 56 66 75 75 76 74 67 70 68 68 61 66 70 71 68 62 66 66 64 74 85 89
95 85 94 59 55 64 70 62 63 54 51 52 66 79 71 72 62 58 54 61 58 55 63 76 81 80 82 85 80 81 87 85 82 82 86 83 77 82 86 87 90 93 94 95
94 96 75 58 72 73 74 71 62 58 55 67 78 91 88 77 56 54 52 55 57 59 64 70 82 87 93 99 99 99 97 98 95 94 94 92 92 95 98 96 100 98 98 89
94 94 88 54 61 64 64 83 62 69 69 78 82 96 95 79 63 60 62 59 62 72 74 75 73 75 79 85 95 100 100 100 98 96 95 100 98 97 99 99 98 95 60 54
83 85 75 58 51 68 74 68 61 68 76 83 86 86 90 75 81 84 79 79 84 88 88 89 92 88 100 100 100 100 100 100 99 98 99 97 98 100 100 88 59 47 40 44
97 97 91 49 70 73 59 63 65 74 78 81 80 82 84 82 83 86 90 94 100 99 100 100 92 92 100 100 100 99 100 100 100 100 100 100 98 74 49 41 40 40 41 42
77 76 53 50 59 54 63 69 66 72 81 80 82 83 84 88 86 90 92 92 99 99 99 100 99 99 100 100 100 100 100 100 99 100 83 55 44 42 38 37 38 40 41 40
75 61 61 55 58 60 63 64 64 64 84 75 76 79 81 88 89 89 92 93 99 100 100 100 100 100 99 100 100 99 98 85 57 45 41 39 37 37 37 35 34 37 39 42
70 69 60 59 64 58 66 62 62 62 86 74 70 72 74 81 82 87 86 87 81 75 67 88 100 99 99 98 89 68 55 46 45 41 39 40 37 32 32 36 33 34 41 50
84 66 66 68 58 62 69 64 64 71 93 79 66 72 73 77 68 70 67 64 61 66 68 71 80 77 70 66 61 54 43 42 38 37 38 42 43 57 61 61 60 65 66 64
71 60 67 67 64 61 62 63 64 79 89 85 74 72 70 77 68 70 69 62 57 59 65 62 53 49 48 54 67 39 40 41 39 37 37 33 32 33 34 39 41 63 69 70
67 72 74 68 68 66 62 67 72 85 85 82 83 72 74 72 71 61 59 55 52 49 49 50 49 45 45 57 38 38 39 38 36 36 29 28 30 32 33 36 42 44 46 70
82 76 76 72 68 68 69 71 78 87 87 84 79 76 83 88 81 73 69 51 47 46 47 47 47 46 42 38 37 37 36 38 35 27 27 30 35 38 40 46 51 55 54 51
84 82 73 72 73 73 70 73 75 76 80 79 82 76 77 85 85 66 51 49 53 53 48 46 41 40 39 38 36 36 37 32 27 28 30 35 38 40 46 52 58 60 62 62
97 90 82 85 81 77 77 71 70 71 69 67 72 77 83 88 85 69 56 56 50 49 45 39 40 41 39 36 33 35 34 30 26 28 32 39 42 46 52 56 60 65 68 70
94 92 90 89 87 78 74 67 65 64 59 57 63 70 76 80 74 68 67 55 56 47 42 39 39 40 37 34 36 36 30 31 28 29 38 47 45 49 54 59 66 74 73 72
83 85 90 89 87 78 69 63 59 56 54 57 68 76 76 78 81 76 55 52 52 52 47 42 38 36 36 38 36 30 27 27 30 34 43 52 48 53 59 71 76 74 73 75
84 81 87 74 71 68 65 60 59 61 62 68 76 82 83 86 80 63 56 53 50 45 43 43 39 39 40 36 28 24 26 28 29 36 42 43 51 58 66 74 76 74 77 81
88 84 94 87 77 67 60 60 67 75 81 80 80 81 78 71 59 55 55 56 51 44 43 44 41 38 37 29 26 26 26 27 30 34 41 46 56 64 71 74 74 77 80 81
97 89 89 80 82 83 80 79 80 79 82 78 67 58 59 60 58 56 51 49 48 47 45 42 38 37 32 27 25 26 26 27 30 34 42 52 59 68 72 72 72 77 77 76
97 86 86 92 78 78 77 72 58 59 61 59 56 56 58 59 58 59 58 50 47 50 42 38 39 36 35 25 26 25 27 28 30 36 46 54 62 66 68 70 72 76 71 73
91 87 80 75 80 79 76 86 74 72 57 55 52 51 53 60 58 53 48 49 49 46 40 39 38 56 51 25 26 27 28 28 31 38 48 64 64 66 69 70 70 70 70 74
94 87 81 73 70 69 71 77 83 86 82 76 63 53 52 52 51 53 49 54 53 45 41 42 63 74 36 26 27 27 27 27 29 40 52 58 62 66 69 69 69 69 71 76
96 92 85 80 75 71 70 78 76 70 67 69 70 62 54 52 51 50 52 55 59 47 46 58 73 68 31 27 27 28 26 26 32 47 54 59 64 66 68 68 68 70 74 78
92 95 94 87 76 72 70 69 70 67 66 64 66 61 57 56 54 57 66 66 63 53 51 64 66 53 27 27 28 27 25 28 40 51 57 60 64 67 68 68 69 74 76 78

GFSNGP_925_rhum_060.txt.gz
RH
71 71 74 78 82 86 83 80 85 69 76 58 51 48 48 46 76 76 69 65 63 71 78 74 76 73 71 68 69 73 79 83 81 81 84 78 71 76 75 72 65 56 50 48
87 71 81 89 80 83 84 78 81 73 77 49 45 44 48 78 76 75 68 62 55 58 63 70 77 78 68 66 63 64 63 65 66 70 72 75 75 76 72 68 68 68 60 53
91 80 81 88 84 81 82 80 73 88 61 45 49 53 77 78 71 66 58 62 58 62 68 73 77 78 81 76 71 68 68 72 75 77 79 80 78 82 89 90 73 68 68 74
92 84 92 53 56 65 71 63 69 61 51 47 49 76 72 70 62 60 55 59 59 60 73 82 83 86 89 87 88 87 89 88 81 81 85 84 84 86 81 79 80 87 94 97
90 91 73 64 71 74 70 68 62 61 53 49 70 84 92 66 57 57 57 56 62 70 72 79 84 90 94 95 98 98 100 100 100 94 99 98 98 100 99 98 100 100 100 99
95 87 89 52 62 62 60 94 57 61 59 71 81 91 91 77 63 71 63 63 72 76 77 76 79 83 94 100 99 99 100 100 100 100 99 100 100 100 100 99 99 98 91 94
85 91 72 56 58 61 90 74 58 65 72 79 87 85 87 72 86 83 78 81 88 93 94 91 91 88 99 99 100 100 100 99 100 100 98 100 99 99 99 99 74 50 55 51
94 99 93 49 69 73 60 61 64 68 74 80 88 85 81 79 86 91 88 92 99 98 100 99 94 96 100 100 100 100 100 100 100 100 100 99 100 85 48 42 43 47 46 44
80 76 54 48 60 55 58 64 65 70 71 80 83 86 82 87 85 95 88 92 100 98 100 100 100 99 100 100 100 99 99 100 100 100 94 66 49 44 41 41 41 45 42 39
74 60 65 55 54 56 60 66 63 64 71 82 79 82 85 88 90 88 86 92 99 100 100 100 100 99 98 100 100 99 99 91 61 44 42 40 39 39 38 36 36 36 35 42
74 70 64 61 58 61 62 65 64 62 77 81 78 78 83 90 90 86 90 95 92 89 98 100 100 99 99 99 97 79 51 45 45 41 40 37 33 32 33 37 35 39 47 55
86 67 72 71 60 59 67 67 67 66 83 80 71 74 78 85 86 86 84 79 70 76 87 95 95 96 95 81 67 49 45 42 41 41 42 45 56 66 67 65 70 67 69 68
67 64 72 74 78 66 65 66 64 70 80 88 70 72 75 75 74 73 72 68 71 75 79 80 80 79 72 62 57 41 39 40 40 41 41 40 42 38 38 54 65 67 74 72
77 76 77 69 76 70 62 62 70 81 86 86 76 85 84 75 82 73 70 66 73 75 75 71 62 50 53 67 43 38 38 37 35 34 28 29 32 34 34 36 40 41 44 72
77 78 82 81 73 68 69 73 77 88 90 90 86 83 82 80 86 84 64 62 61 62 62 55 48 47 51 57 38 37 37 36 35 29 31 33 34 33 36 43 48 51 52 53
84 85 84 84 77 73 71 71 76 83 89 88 87 87 84 89 89 83 68 57 53 56 53 53 48 48 46 40 38 38 38 35 29 31 31 32 33 37 44 49 53 57 59 62
97 94 90 92 88 80 75 69 70 75 81 86 87 83 89 90 86 80 73 63 52 48 48 50 48 41 40 39 37 36 36 34 27 27 30 34 37 40 47 52 58 63 65 66
86 93 95 95 94 91 84 74 68 67 70 70 78 83 87 89 88 89 83 61 55 53 49 47 40 40 40 38 35 34 34 31 26 27 32 38 39 45 50 57 64 69 67 66
86 86 84 86 93 93 91 76 66 63 61 64 74 78 82 85 88 89 86 79 92 80 53 44 41 40 38 35 35 36 30 27 26 30 35 51 53 49 54 62 65 69 70 72
92 84 85 90 73 74 78 65 61 58 57 63 71 80 84 88 91 95 98 96 90 74 48 45 42 38 35 36 36 32 25 26 27 31 37 39 43 51 56 62 68 69 71 72
100 94 88 88 78 65 61 61 62 67 71 73 78 83 87 92 93 98 98 95 89 51 42 43 40 36 36 36 32 25 25 27 28 31 38 45 44 54 59 65 68 68 69 70
100 99 96 95 90 83 74 69 71 79 83 83 82 85 91 89 96 92 72 63 58 48 44 43 40 37 37 36 28 25 26 26 28 30 33 38 45 52 60 64 65 66 69 69
96 94 96 96 97 89 82 76 80 85 84 83 85 86 82 74 64 61 59 52 48 52 44 42 39 36 37 34 26 26 26 26 28 29 32 40 46 54 60 62 65 67 68 67
96 90 88 78 76 90 83 90 78 62 63 68 66 62 59 61 61 56 51 48 47 47 44 41 37 37 47 36 27 27 26 27 27 28 33 42 50 58 62 66 66 67 67 68
96 94 90 87 78 78 75 82 92 92 86 76 59 55 54 54 54 55 53 52 50 49 44 40 38 60 55 39 27 26 26 26 26 27 32 41 53 58 64 67 66 67 67 70
95 98 98 91 81 77 74 77 82 78 81 86 88 85 76 65 56 50 51 52 59 52 43 41 49 70 62 35 27 27 27 26 25 26 34 46 55 60 63 62 63 65 68 73
87 83 84 90 92 94 85 75 74 73 71 70 72 78 81 70 58 55 54 58 66 62 45 42 58 68 64 32 27 27 27 25 24 29 44 53 57 60 61 62 64 68 73 75

GFSNGP_925_rhum_063.txt.gz
RH
67 73 74 77 85 80 81 78 79 64 72 54 49 51 50 50 71 71 66 63 58 60 70 76 79 76 71 65 67 68 71 75 81 82 78 78 77 75 72 67 67 67 67 62
85 72 80 88 78 83 74 74 74 72 72 48 45 44 47 73 73 71 64 62 57 59 67 73 78 82 78 74 68 69 75 76 81 83 82 83 80 80 80 85 86 89 92 92
89 79 83 92 84 81 82 80 70 86 64 49 48 51 78 77 71 64 58 62 58 63 76 81 84 87 88 87 81 81 81 82 87 92 85 91 96 96 96 98 99 88 83 80
92 82 94 52 57 66 70 67 72 66 55 50 48 70 73 68 64 60 60 60 59 64 79 85 88 94 94 91 88 90 94 95 96 99 100 100 100 100 100 99 99 100 100 100
87 95 69 73 72 76 74 73 62 62 53 51 53 81 88 63 55 56 61 62 66 72 75 79 88 92 95 99 99 95 100 99 99 100 100 100 99 100 100 100 100 99 99 99
97 90 79 52 64 63 63 96 59 57 61 64 78 91 87 71 62 66 67 68 73 76 78 85 93 94 99 100 99 100 100 99 100 100 99 100 100 100 100 99 99 99 98 98
94 96 75 52 52 59 90 84 56 64 70 73 88 83 83 73 79 78 78 84 88 92 96 96 95 98 100 100 100 100 100 100 99 100 99 100 100 100 99 99 91 77 78 82
92 98 88 50 61 76 63 59 60 66 72 79 84 82 76 80 87 90 89 91 95 98 99 98 95 99 100 100 100 100 98 99 100 100 100 100 94 60 45 47 52 53 49 47
72 71 53 48 57 52 54 59 66 69 69 80 85 84 80 89 93 89 86 94 100 97 100 100 99 100 99 100 100 100 99 100 100 98 78 47 39 42 42 41 41 43 38 38
74 60 66 54 54 53 54 64 64 64 66 84 80 82 84 85 90 87 88 88 97 99 100 100 99 100 98 100 100 100 98 79 54 43 40 39 39 39 38 38 36 36 42 48
79 71 65 62 61 62 62 62 65 63 69 82 81 85 84 88 88 86 89 94 97 99 100 99 100 100 100 100 98 84 50 43 42 40 38 33 35 36 33 35 32 37 51 58
88 69 70 70 64 62 67 67 65 66 73 81 77 81 83 87 87 89 91 90 84 96 100 100 98 99 98 96 77 44 44 42 41 39 40 46 57 69 70 74 76 76 73 72
71 70 73 72 78 71 71 69 66 67 74 88 75 74 82 87 89 89 86 76 80 87 93 94 97 95 83 73 50 40 38 41 42 43 47 54 55 48 55 67 75 78 78 74
81 79 76 72 77 78 73 65 71 78 82 88 76 75 78 85 88 84 81 75 80 83 85 84 86 83 66 62 43 38 38 38 38 37 32 31 31 30 32 35 39 41 44 68
81 79 84 85 84 76 68 73 72 80 88 92 84 87 85 82 85 77 76 74 78 81 82 80 72 59 62 62 39 38 38 36 35 29 28 30 32 33 36 40 44 48 50 52
89 86 86 87 86 82 72 70 74 76 87 91 94 92 87 82 89 90 80 72 71 72 76 70 54 52 59 59 39 38 36 35 30 30 34 33 33 35 38 43 48 54 58 60
96 93 92 95 93 88 85 76 70 70 75 87 90 89 87 92 94 90 78 69 69 70 72 61 53 49 53 45 38 36 36 35 30 30 31 32 34 35 40 46 52 58 60 61
86 86 88 93 97 97 93 85 78 71 71 72 83 89 91 90 89 89 85 76 73 61 59 61 52 50 43 40 39 35 37 37 30 28 31 35 34 37 43 49 57 61 61 62
92 89 84 83 86 89 92 95 91 76 67 70 81 86 87 89 89 92 93 95 89 82 59 52 51 42 41 41 37 37 36 31 27 29 32 40 46 39 45 54 61 64 64 64
97 98 89 90 84 72 80 84 79 68 64 69 77 82 87 89 92 98 98 95 89 94 75 64 47 42 42 40 37 36 32 26 26 28 32 35 34 40 48 56 65 64 64 64
98 98 96 97 92 80 64 62 61 61 64 66 75 80 84 89 93 98 99 97 98 99 99 96 59 43 41 40 39 35 28 24 25 26 29 38 37 43 50 55 60 62 63 64
98 97 96 97 98 96 90 74 71 73 74 76 81 83 88 95 97 99 98 98 99 99 99 89 48 41 39 40 35 30 25 24 25 26 28 30 33 39 45 54 59 61 63 65
99 98 91 96 99 100 99 93 86 90 88 88 88 89 90 92 97 97 95 98 100 98 76 48 44 39 42 38 33 27 24 24 23 25 25 27 32 38 48 56 60 63 64 64
94 97 99 91 74 76 92 94 91 75 73 82 86 88 91 91 95 88 72 75 72 69 49 46 44 40 54 37 31 26 24 23 24 25 24 28 31 41 52 57 59 62 64 66
93 96 96 96 85 85 79 81 89 95 95 83 75 63 63 63 63 62 57 54 53 56 50 49 47 66 47 39 31 25 23 23 24 24 23 24 31 46 54 59 61 62 63 66
92 95 89 87 96 96 92 78 80 78 79 86 89 84 76 80 65 55 55 54 58 56 50 52 61 72 49 42 33 25 24 24 25 24 22 24 38 49 54 58 60 61 64 68
68 65 72 74 81 98 100 99 85 78 73 72 73 74 87 92 95 85 64 63 67 68 53 50 57 62 55 49 36 26 25 25 25 23 22 30 45 51 55 58 61 61 65 70

GFSNGP_925_rhum_066.txt.gz
RH
61 62 63 69 75 69 82 67 77 45 43 33 33 36 40 40 55 61 58 55 53 58 57 59 62 61 63 64 66 68 70 76 79 82 81 81 79 78 79 77 77 75 76 78
79 65 68 78 67 68 65 57 56 53 53 34 33 35 40 58 66 64 59 56 53 58 60 60 63 66 68 69 67 69 71 75 81 86 93 96 96 98 93 92 86 80 86 96
80 68 70 76 69 66 66 59 55 66 46 37 40 41 50 66 67 63 56 55 54 59 66 67 70 72 70 71 74 75 78 78 85 91 96 99 100 100 98 97 98 99 100 99
72 65 74 50 50 54 59 54 55 50 46 43 43 43 65 64 63 59 55 54 53 61 71 71 75 79 79 78 80 83 82 86 93 96 100 99 100 99 99 99 100 100 100 99
74 69 55 69 64 60 64 74 49 49 46 45 47 73 74 60 55 53 53 52 58 64 72 76 79 84 88 87 89 91 94 97 98 100 99 100 100 100 100 99 100 99 98 98
83 81 64 58 64 56 54 96 58 50 52 61 69 74 69 64 57 56 55 59 65 69 74 77 85 89 91 97 100 100 100 99 99 100 99 100 100 100 100 99 99 98 98 98
67 71 52 41 44 47 82 84 56 53 56 62 70 68 72 62 64 61 63 71 79 79 77 82 93 99 100 99 99 99 100 100 100 100 99 99 98 96 95 97 94 90 84 79
71 73 73 42 62 67 61 52 48 54 56 62 71 74 70 71 69 67 71 77 83 85 90 91 97 100 98 99 100 100 100 100 100 100 100 97 89 83 71 65 59 53 52 53
52 52 44 42 49 43 45 50 54 60 58 64 76 76 74 76 74 77 76 82 87 81 87 96 99 100 98 100 100 100 99 99 99 93 62 44 41 43 43 42 40 36 36 39
60 49 48 42 43 50 48 56 59 58 55 66 71 71 74 77 80 78 80 83 89 89 93 98 100 99 99 100 100 96 84 69 50 42 41 43 43 40 38 35 31 31 35 42
60 52 48 53 53 54 60 60 61 57 54 62 65 71 73 81 77 78 78 84 90 92 94 100 99 100 99 99 88 70 49 44 45 42 36 34 36 32 33 40 36 38 49 51
51 44 52 48 51 61 66 63 68 61 58 67 64 70 72 81 78 79 79 84 89 89 97 98 98 98 96 84 69 45 41 43 42 44 47 50 54 61 77 76 77 67 70 66
55 63 62 58 61 64 66 61 60 58 56 66 66 66 70 76 83 79 80 81 84 84 86 90 90 90 83 77 54 43 41 46 48 47 50 50 47 48 60 75 78 79 76 76
64 64 65 65 66 62 65 62 65 66 66 67 68 67 72 80 82 86 82 74 81 84 86 87 87 84 75 74 45 39 42 42 45 44 43 39 33 32 31 31 31 39 46 69
70 69 69 65 66 67 66 66 68 65 66 76 76 69 72 76 82 88 84 75 81 80 80 83 85 81 71 61 42 39 44 43 39 38 36 36 36 37 38 40 42 44 50 50
70 73 76 78 76 76 74 70 70 67 65 72 80 75 73 74 84 84 82 77 80 78 78 79 79 76 64 61 42 42 42 34 35 36 43 38 38 39 40 43 44 47 51 55
81 81 82 85 82 79 78 75 73 70 69 74 80 84 84 79 85 90 85 79 79 83 78 77 73 63 62 64 41 44 44 42 39 40 37 37 38 38 41 45 48 52 56 61
80 78 78 81 85 83 81 76 76 77 74 68 74 86 88 90 89 90 87 81 84 88 88 80 71 55 57 62 43 40 42 49 44 36 38 40 39 41 46 49 53 57 59 65
89 94 89 83 82 84 88 86 81 80 81 72 73 82 87 88 89 92 90 88 89 88 84 85 75 55 52 54 41 38 38 38 33 34 38 41 49 43 49 52 57 62 65 65
90 96 92 92 93 88 71 66 68 78 80 71 73 81 86 88 90 92 94 93 89 83 81 86 97 70 52 44 42 37 36 36 32 35 39 48 46 44 48 48 62 67 66 66
98 99 98 98 98 100 91 70 62 59 65 72 74 79 84 90 93 96 100 97 99 97 92 99 99 98 48 44 43 38 36 34 30 31 33 46 40 47 46 54 59 64 68 69
98 96 96 98 98 97 99 98 85 75 72 72 75 80 84 91 95 99 95 93 97 99 100 100 99 98 52 46 44 37 36 31 26 28 30 34 37 35 42 58 66 75 73 74
95 98 99 98 98 99 99 99 99 99 98 91 90 93 90 90 95 98 96 98 99 99 99 99 99 100 55 60 42 36 35 28 26 25 25 26 25 28 37 49 56 60 66 70
83 92 91 94 98 98 94 97 99 98 77 97 99 99 99 98 98 98 96 99 99 99 99 99 100 95 75 56 41 35 31 27 25 24 24 24 24 28 33 42 51 56 60 61
87 90 84 86 86 90 93 95 80 80 94 98 98 96 96 98 98 94 98 97 99 99 98 99 98 80 76 51 39 34 30 26 24 23 24 24 24 26 34 46 50 55 59 61
69 70 68 72 88 92 100 98 85 78 76 77 84 93 82 68 63 61 67 63 74 98 91 64 70 75 69 52 39 33 29 26 24 24 24 24 24 25 36 48 51 54 57 58
63 62 63 58 72 87 93 99 98 96 88 76 73 71 80 93 98 96 73 69 76 87 71 63 72 79 66 55 43 35 30 26 24 24 25 24 24 29 42 50 52 55 58 60

GFSNGP_925_rhum_069.txt.gz
RH
52 52 54 64 68 61 88 65 76 38 34 30 30 29 30 37 45 52 53 51 50 52 52 52 54 55 58 61 63 64 68 73 78 82 83 85 87 89 87 85 84 83 83 81
80 54 56 70 58 59 60 53 47 42 43 28 26 32 36 41 54 59 55 53 49 54 52 52 56 59 62 63 64 65 69 73 80 83 89 95 98 97 98 100 99 97 98 98
72 60 60 72 60 57 57 50 46 58 41 35 37 37 40 48 59 59 55 52 51 53 56 59 62 62 62 64 68 70 71 76 81 86 92 98 98 100 100 100 99 98 99 98
60 58 73 51 43 47 52 48 45 43 39 37 38 38 43 52 57 56 53 52 50 55 61 64 67 69 69 70 73 75 76 82 86 92 99 99 100 100 100 100 99 99 99 96
67 56 46 61 57 54 59 64 44 46 40 41 44 61 62 55 53 51 51 48 50 57 64 71 71 75 78 78 80 83 87 94 97 100 99 99 100 100 100 100 100 100 98 99
69 75 60 62 60 48 50 85 51 45 48 54 63 68 69 58 52 53 50 53 58 63 68 71 78 81 84 86 89 97 100 100 100 99 100 99 99 99 100 100 100 100 98 94
60 63 49 42 44 43 82 86 53 48 49 53 59 62 63 56 58 53 54 61 66 70 70 76 86 89 95 99 100 99 99 99 100 100 100 100 98 95 95 93 84 80 72 77
58 63 67 51 57 54 61 48 48 51 51 55 64 67 64 63 63 58 61 70 73 77 81 83 90 98 99 99 99 99 100 100 100 100 100 98 94 88 73 66 54 48 49 52
47 50 43 36 45 38 41 48 52 56 52 56 65 71 68 70 65 63 65 69 80 81 81 90 94 100 99 100 100 100 100 100 100 89 62 44 42 42 39 35 32 31 34 38
54 40 39 37 36 47 44 51 55 53 52 55 61 67 67 68 70 67 67 70 71 72 86 93 96 100 99 100 100 94 88 77 51 37 37 39 38 35 33 30 28 30 34 40
48 42 42 41 41 50 54 56 60 57 52 52 55 64 66 70 70 67 70 74 78 78 86 92 97 100 100 97 86 72 53 40 39 39 35 31 30 31 31 43 37 36 46 46
46 40 40 46 48 51 57 59 59 63 56 54 57 58 62 70 70 67 67 74 82 83 89 96 100 98 93 86 72 49 38 40 38 37 39 45 54 65 68 76 55 50 50 57
40 51 50 52 52 56 59 60 57 56 54 53 57 57 62 68 72 70 68 74 82 80 88 96 94 92 87 75 58 37 37 41 44 42 44 44 42 50 65 74 66 54 49 63
52 56 57 52 55 55 55 56 57 58 58 55 57 60 63 70 75 75 74 74 76 78 82 83 84 82 79 69 47 41 42 44 43 42 42 40 34 32 30 32 30 36 43 51
57 60 61 59 57 57 60 60 63 61 57 60 66 63 64 68 74 76 81 76 76 78 80 82 81 80 75 62 45 42 44 43 42 40 37 33 32 32 32 34 34 35 42 47
62 63 65 68 67 66 66 67 65 61 61 59 65 69 66 68 73 81 84 76 80 79 80 81 82 80 69 60 44 42 43 38 38 37 36 35 34 34 35 35 36 38 42 45
75 77 77 77 72 65 67 66 66 66 65 67 68 75 75 71 72 84 86 79 80 80 77 78 82 79 69 61 45 43 42 39 41 36 38 34 33 34 34 36 38 42 45 50
76 75 72 71 75 76 74 69 70 72 70 69 69 75 84 83 80 86 86 82 81 82 81 79 78 75 71 65 51 43 42 42 45 38 35 34 34 34 36 40 42 45 49 54
77 84 85 85 83 82 83 82 79 76 73 73 74 71 78 83 84 88 89 85 87 89 89 86 86 74 67 64 60 44 44 45 46 37 34 37 40 38 38 41 45 49 53 56
81 94 97 93 92 97 96 81 66 61 62 74 78 71 70 78 88 92 91 89 86 85 86 90 95 90 69 60 61 47 43 43 40 34 34 37 41 42 39 43 46 52 57 58
90 94 97 98 98 99 98 99 89 66 61 66 71 71 73 80 88 92 96 96 93 90 90 90 96 97 95 94 69 49 43 39 36 34 34 44 43 41 37 40 46 50 54 58
95 98 99 97 98 98 99 99 99 98 83 74 76 79 83 87 92 96 94 94 92 96 97 100 100 100 99 98 87 50 43 38 35 34 34 37 39 35 37 40 45 58 63 63
88 88 91 95 99 99 98 99 99 99 99 99 96 92 88 87 90 97 98 93 97 99 100 100 99 100 100 98 92 50 43 38 35 32 29 30 32 33 35 39 44 54 59 62
71 79 82 85 85 86 89 97 98 98 99 99 99 99 99 99 98 98 99 98 99 100 99 99 99 100 99 98 97 59 45 38 35 31 27 27 29 30 30 30 34 41 49 57
74 79 66 66 72 75 89 99 90 89 76 98 98 98 98 98 98 98 98 98 99 99 99 99 99 99 99 98 98 68 45 38 35 30 27 27 28 28 26 27 30 40 45 51
58 56 55 58 70 75 87 94 94 92 86 74 74 78 91 98 95 92 87 97 96 100 99 100 100 100 100 97 98 84 47 38 34 31 28 27 27 27 24 24 30 41 45 51
56 56 54 49 58 71 79 80 84 87 91 92 88 74 73 79 92 98 96 75 75 93 98 98 98 98 98 98 91 61 47 37 33 30 28 26 26 25 22 22 33 42 47 52

GFSNGP_925_rhum_072.txt.gz
RH
54 53 55 76 72 73 87 74 80 55 42 37 38 39 35 45 48 58 58 57 58 60 62 57 55 58 62 63 66 68 74 79 84 88 90 91 92 93 90 88 87 87 81 78
87 52 55 69 62 64 71 65 58 48 48 29 30 30 40 45 58 63 61 58 56 58 56 57 58 61 63 64 66 69 74 81 85 90 96 98 99 98 98 99 99 100 99 100
85 58 62 81 67 64 64 57 55 66 50 36 41 40 42 51 63 66 61 55 54 61 59 60 62 62 64 67 70 71 76 81 88 94 99 100 98 98 100 100 100 100 98 98
80 61 88 58 45 50 57 52 51 48 42 40 39 41 43 52 59 65 59 53 53 58 62 64 66 67 68 71 75 77 83 86 94 99 99 99 98 99 99 99 100 100 100 100
83 69 51 68 58 55 62 64 49 50 44 43 54 62 62 58 58 60 55 53 52 59 64 68 69 73 75 79 82 86 93 99 99 99 99 99 100 100 100 100 100 100 99 92
82 87 74 72 56 45 46 88 49 47 48 55 66 87 89 62 56 55 51 55 62 66 70 71 76 81 81 83 90 96 99 100 99 99 99 99 99 100 99 100 99 98 91 91
74 78 61 62 57 45 88 91 55 50 51 55 71 76 71 61 58 54 58 62 63 67 68 77 83 86 93 98 99 99 100 98 98 99 99 99 100 97 94 77 74 78 81 76
62 72 78 55 54 64 69 55 56 58 60 63 75 68 64 63 63 62 68 70 71 75 79 82 89 94 100 100 100 99 99 100 100 99 99 95 92 80 63 57 56 54 54 60
56 62 47 51 48 43 45 55 56 60 59 59 76 72 69 71 66 65 69 73 79 84 86 87 90 99 100 100 99 99 100 100 98 97 82 62 51 47 43 38 35 35 37 44
60 47 49 45 48 51 50 60 58 56 54 60 64 74 71 70 70 71 70 76 80 79 88 89 95 100 99 99 99 99 97 93 68 46 39 38 37 35 34 30 29 32 36 43
55 48 45 43 46 62 60 59 61 59 57 54 57 74 70 74 72 71 71 72 72 76 86 88 99 99 99 99 99 92 83 52 37 40 39 36 36 31 30 34 35 36 43 44
62 53 52 64 62 59 59 62 61 64 66 56 58 66 71 77 72 69 73 76 76 76 85 89 99 99 99 96 85 68 44 39 39 34 32 36 41 54 60 48 35 37 42 49
55 55 59 58 60 60 62 62 61 62 60 61 60 62 68 78 74 68 70 79 80 82 86 92 100 98 94 88 76 47 40 40 38 36 44 50 56 56 61 64 44 28 29 38
59 58 62 58 69 60 60 61 60 60 62 61 59 61 67 76 74 73 72 76 82 82 90 93 92 90 86 83 66 40 38 38 39 41 44 43 41 50 51 52 46 39 38 35
62 63 67 62 60 60 66 69 71 72 66 65 65 69 68 81 82 80 74 74 80 82 89 93 91 90 87 78 60 39 38 40 39 42 42 39 32 29 28 29 29 32 36 41
68 68 68 71 72 73 72 72 74 74 68 69 68 72 70 69 75 78 77 75 80 81 84 86 86 84 82 74 56 41 40 39 39 39 38 34 29 28 30 31 32 34 36 41
75 78 78 79 75 70 76 78 78 79 78 75 73 68 73 72 74 82 83 80 78 80 82 84 84 83 79 74 56 41 40 40 39 37 34 30 29 30 31 32 33 35 38 42
76 76 76 78 82 83 84 76 75 76 81 80 77 73 76 83 84 87 85 84 79 82 81 81 81 82 79 71 57 42 39 37 42 36 35 33 30 30 31 31 33 37 38 43
78 82 84 84 85 86 87 88 85 74 67 66 69 81 78 79 81 83 85 87 86 88 84 80 80 84 84 73 60 45 41 39 40 38 36 33 33 32 31 32 33 35 40 44
85 89 91 97 96 98 98 100 98 84 68 62 69 80 83 78 81 87 89 91 87 85 85 83 85 86 86 84 70 52 44 41 40 40 36 34 33 33 32 32 33 36 40 43
93 92 94 98 98 99 98 99 99 98 94 72 72 76 78 77 83 89 96 97 92 87 85 85 89 91 91 89 88 85 52 45 43 40 35 37 32 35 36 35 32 34 36 40
98 96 96 97 96 97 99 99 99 99 99 99 85 78 81 85 89 92 94 94 91 90 92 94 95 98 96 96 98 97 86 55 43 38 34 33 34 33 33 32 31 30 33 38
86 85 85 87 92 98 99 99 99 99 99 99 99 99 98 91 88 97 98 91 95 95 96 97 98 100 100 100 100 99 98 92 45 38 33 32 30 28 29 29 28 29 35 39
70 77 79 70 78 84 93 95 97 99 93 98 99 99 98 98 98 99 99 99 99 100 100 99 99 100 99 99 99 99 98 97 47 40 35 32 30 27 27 28 29 30 32 35
66 65 59 59 69 73 82 90 93 92 90 82 88 97 98 98 98 98 98 98 98 99 99 99 99 99 99 99 99 99 98 94 81 96 42 34 30 26 25 26 26 24 26 32
60 60 58 57 65 67 75 81 85 88 92 94 92 89 75 79 93 98 98 97 98 98 99 99 99 100 100 99 98 98 98 98 98 93 41 35 30 26 25 25 25 23 25 35
51 51 55 51 54 57 69 83 80 82 73 80 90 93 82 75 77 90 100 98 97 96 99 98 99 100 100 100 100 99 99 98 98 74 40 36 31 26 24 24 24 22 27 38

GFSNGP_925_rhum_075.txt.gz
RH
59 59 70 78 74 78 78 68 74 55 48 49 44 43 41 43 53 69 65 63 65 70 71 62 61 63 64 67 71 75 79 84 90 91 92 91 91 90 88 87 88 86 85 86
86 56 59 70 70 76 68 62 64 60 53 35 36 38 40 54 62 69 66 63 64 66 65 64 62 64 65 67 72 76 82 89 93 97 99 100 99 99 99 99 100 99 99 100
88 62 65 81 74 74 75 67 61 67 51 38 38 39 52 62 69 70 68 62 64 64 64 65 63 65 67 69 72 78 85 90 94 97 99 99 100 98 98 98 99 98 98 99
86 68 91 54 49 57 66 61 61 51 45 41 46 49 54 59 69 73 66 62 61 62 64 65 65 66 70 73 77 82 89 94 98 99 100 100 100 99 100 99 98 98 100 100
85 85 62 65 60 62 66 66 55 55 47 46 60 62 62 60 60 70 62 57 60 62 63 68 70 71 75 80 82 90 96 98 99 99 100 100 99 100 99 98 99 98 100 97
84 90 85 72 53 48 50 83 59 53 50 55 70 82 82 63 59 60 57 60 66 66 69 73 76 76 80 88 90 97 100 99 99 100 99 99 99 99 99 99 96 95 76 68
80 89 68 63 59 47 88 80 55 54 58 71 76 76 75 65 60 58 63 66 68 70 73 76 79 81 88 94 98 100 100 99 99 99 100 99 99 99 87 91 87 87 82 80
63 69 83 52 53 64 67 59 60 62 63 73 75 71 67 65 64 67 70 72 68 75 79 80 85 86 97 100 100 100 99 100 99 99 100 100 96 77 74 70 67 66 67 69
62 65 50 60 52 49 56 62 60 64 62 68 76 74 69 70 66 69 72 74 75 81 86 88 91 93 100 100 100 99 99 100 100 99 95 93 79 61 54 49 44 42 43 49
57 50 51 52 54 52 51 62 62 59 58 65 75 76 72 71 70 70 77 82 81 86 90 92 92 96 99 100 100 100 100 99 99 94 76 60 49 42 38 36 33 34 41 45
63 53 49 49 63 67 66 64 63 61 58 57 64 78 77 76 75 71 77 80 83 88 87 91 94 100 99 100 99 100 97 90 78 57 48 41 37 35 32 32 30 31 38 44
73 54 63 72 68 63 68 66 63 64 66 62 58 71 75 81 74 73 76 79 81 84 86 90 95 100 100 100 100 92 90 68 41 41 39 40 36 44 42 44 41 42 39 42
58 58 63 67 70 62 69 65 64 65 66 65 62 67 71 80 77 72 75 78 79 83 82 89 96 97 100 100 97 86 77 46 39 39 34 38 46 50 62 62 40 29 31 35
63 62 62 65 75 66 65 64 63 64 64 67 64 65 71 77 77 76 79 78 78 79 82 88 97 100 98 94 86 75 59 42 39 35 35 45 50 51 50 48 44 37 37 34
70 66 69 69 65 68 71 73 75 79 75 71 68 72 74 81 83 80 74 74 78 84 86 91 99 97 90 88 83 63 48 40 38 37 42 45 46 50 47 44 36 28 32 39
79 77 74 74 75 76 73 76 80 84 82 79 76 71 74 76 76 77 76 75 85 88 90 92 93 89 84 83 83 70 47 38 38 39 42 44 38 33 29 28 28 28 31 32
75 77 80 81 80 76 78 79 83 85 86 87 85 80 74 74 79 83 82 77 79 83 85 90 94 92 87 88 87 72 50 39 39 40 41 41 35 28 27 28 28 28 28 31
78 79 81 84 88 88 85 81 84 82 79 79 76 78 84 81 86 84 84 80 79 81 81 83 85 86 86 86 83 73 56 41 44 41 37 36 33 28 27 28 28 28 28 31
82 86 88 88 92 92 92 92 93 89 80 72 66 70 70 76 82 80 83 87 87 88 85 81 82 83 83 83 82 74 58 43 43 44 37 34 35 30 29 29 29 28 28 30
92 90 91 94 97 99 98 99 99 99 95 83 73 70 74 84 85 84 87 92 87 85 83 81 82 85 84 82 84 81 62 46 44 42 40 36 36 34 30 29 29 29 28 29
89 89 96 98 98 99 98 99 100 99 100 99 96 79 80 83 86 88 97 100 90 88 87 84 83 86 86 87 88 87 65 52 47 44 41 40 36 34 32 30 30 30 29 29
98 96 92 94 95 96 99 100 99 99 99 99 98 99 96 85 88 93 95 96 92 91 91 89 88 92 92 92 93 93 80 91 83 63 43 40 37 34 32 30 30 30 27 25
89 82 82 80 83 91 91 93 96 99 99 98 99 99 99 100 100 97 96 90 93 94 95 95 93 94 100 100 100 100 99 98 98 96 87 50 36 32 31 30 28 27 26 25
69 73 74 60 64 69 84 88 90 93 93 94 98 99 99 98 96 99 99 99 99 99 100 99 100 100 100 100 100 99 98 98 98 98 98 80 45 83 33 30 27 25 25 25
61 59 58 56 65 71 74 77 80 85 87 87 91 94 84 93 98 98 98 98 98 98 99 99 99 99 100 100 99 98 98 98 98 98 98 80 95 81 33 30 26 25 25 24
57 55 56 57 59 59 66 80 86 81 75 79 84 88 88 79 79 84 96 98 98 98 98 98 99 99 99 99 99 99 98 98 98 98 98 97 98 86 35 31 27 24 24 24
50 53 52 49 54 54 58 79 86 88 80 73 84 84 86 82 77 77 82 90 97 98 98 98 98 99 99 99 99 99 98 98 98 98 98 98 98 49 35 31 27 26 26 23

GFSNGP_925_rhum_078.txt.gz
RH
62 72 71 74 78 81 77 64 76 55 58 50 48 52 52 57 70 74 72 77 72 74 73 66 65 64 66 71 77 78 81 86 90 91 91 90 90 90 89 86 86 85 84 85
84 58 62 71 75 78 70 60 62 63 60 40 41 38 43 49 62 73 70 69 70 70 72 69 66 66 67 72 77 79 85 92 97 98 97 98 99 100 100 99 98 100 97 95
88 65 68 81 75 82 76 67 60 67 51 40 43 41 42 50 56 66 71 67 68 69 69 66 65 65 68 70 78 83 88 94 96 99 99 99 99 99 99 100 99 98 100 100
88 72 95 50 53 60 69 66 62 53 49 43 42 43 47 57 61 71 72 67 68 67 65 64 64 67 68 72 78 83 90 94 99 99 100 99 99 99 99 99 100 100 100 99
87 88 62 61 60 68 72 70 62 61 52 54 60 59 59 59 63 71 71 65 64 62 64 65 67 68 71 78 82 88 94 98 99 99 99 99 100 100 99 98 99 99 97 98
89 90 86 62 56 50 58 87 60 58 56 66 72 73 67 64 62 66 61 61 65 64 66 70 72 73 77 84 88 95 100 99 99 99 99 100 99 99 99 99 96 87 78 73
82 90 75 56 60 54 84 71 56 58 57 72 74 66 72 66 60 63 66 66 66 67 72 74 76 78 84 87 92 95 100 100 100 99 99 99 98 98 99 94 82 75 72 73
78 73 80 58 52 69 65 60 60 64 63 69 74 73 69 66 68 71 72 75 72 76 78 80 79 80 90 94 95 99 100 100 100 99 99 99 98 96 92 88 83 80 75 73
66 66 49 56 52 50 59 64 62 63 64 71 74 72 70 69 67 70 71 72 72 76 84 85 84 84 93 99 100 100 100 100 100 100 98 100 86 77 74 69 62 60 58 62
59 51 54 58 52 52 50 61 62 60 61 70 72 74 72 71 69 71 73 76 76 84 90 94 91 93 93 100 100 100 100 99 99 98 100 97 78 60 52 48 43 39 41 44
66 57 50 49 58 65 68 67 67 64 61 59 63 75 75 76 75 72 75 78 81 87 90 90 92 94 99 100 100 100 100 100 99 99 89 67 55 47 40 36 32 30 33 38
73 57 58 66 69 67 69 69 67 64 64 65 62 66 76 80 76 74 77 79 87 88 88 88 90 96 99 100 100 100 100 99 98 84 72 51 43 39 38 41 38 33 36 35
56 57 64 70 68 65 72 70 66 65 66 68 66 70 75 81 77 75 76 79 84 87 86 87 93 100 96 100 100 99 95 89 76 51 44 45 42 39 54 64 58 43 33 32
57 66 71 71 74 66 68 66 65 67 69 70 71 68 74 78 78 79 78 75 76 80 85 85 92 93 99 99 100 95 87 82 50 41 41 42 42 43 49 49 45 36 29 37
67 73 66 74 73 75 74 74 76 80 82 78 72 76 79 82 83 80 75 74 76 79 84 86 90 92 99 100 100 94 86 79 52 39 38 35 37 44 47 49 49 41 32 34
83 80 78 78 79 77 75 79 80 83 84 84 86 82 81 79 82 78 78 77 82 86 85 86 88 91 98 100 96 90 79 67 53 40 38 38 46 50 55 56 47 34 27 26
80 81 84 85 83 79 80 80 81 84 86 86 86 85 85 86 82 85 83 80 77 78 78 82 85 88 92 94 91 88 80 60 49 42 38 40 44 45 42 36 29 28 26 25
82 83 84 83 88 88 86 84 85 86 85 80 75 72 74 79 88 85 83 83 82 83 82 80 82 84 89 89 88 87 82 71 53 44 40 41 43 42 38 31 27 27 26 26
84 87 88 89 93 92 91 91 96 99 97 89 77 71 70 70 72 75 78 88 90 90 86 83 81 82 85 86 86 86 85 82 62 50 45 40 42 40 37 30 28 27 27 27
93 92 92 94 98 99 98 99 100 100 98 98 99 85 74 77 79 86 90 92 87 85 85 82 87 86 84 86 88 87 86 82 69 58 50 46 40 38 36 32 28 28 27 28
91 91 95 97 98 99 100 99 100 96 98 98 99 99 99 92 83 91 99 100 88 87 90 88 85 86 90 90 90 92 85 79 69 61 54 51 43 40 36 35 32 29 27 27
98 94 90 90 91 93 94 98 96 98 98 97 97 98 99 98 97 91 88 96 95 96 94 92 91 88 90 93 91 94 92 83 83 94 80 64 50 43 39 35 33 31 28 27
93 83 80 76 70 88 80 84 92 98 98 97 99 98 99 99 100 100 96 97 98 96 98 96 96 95 97 100 99 99 98 92 98 98 97 97 95 76 56 37 33 31 29 28
70 67 72 55 62 60 77 74 78 87 89 89 92 97 98 99 94 99 98 98 98 99 99 99 99 100 100 100 100 100 100 99 98 98 98 98 98 97 97 82 60 67 32 29
59 58 56 55 58 64 66 72 76 77 72 63 76 85 86 84 91 86 94 98 98 98 98 98 99 99 99 100 100 99 99 99 98 98 98 98 97 98 98 96 98 70 53 30
54 51 52 55 57 59 58 68 86 81 83 72 68 80 76 85 81 80 78 85 95 98 98 98 98 98 99 99 99 99 99 98 98 98 98 98 98 98 98 98 98 92 38 29
52 56 56 49 46 52 54 68 82 86 79 69 79 75 70 77 78 85 85 83 84 88 95 98 98 98 98 99 99 99 99 98 98 98 98 98 98 98 97 97 97 50 33 29

GFSNGP_925_rhum_081.txt.gz
RH
66 73 73 79 84 94 91 79 81 62 63 44 52 60 62 65 76 78 84 87 82 81 77 69 66 65 67 75 77 78 80 84 87 88 88 89 89 89 87 86 86 86 86 87
82 63 68 73 76 88 88 81 75 65 65 46 44 52 58 68 81 77 74 81 81 78 76 71 68 66 69 76 78 80 84 90 94 94 95 96 99 100 100 99 96 93 93 96
78 68 68 74 75 83 76 69 66 70 53 42 47 46 54 60 73 74 74 74 75 73 72 69 67 66 70 75 80 83 87 94 97 98 100 100 100 100 100 100 100 100 98 98
91 72 83 47 56 62 69 67 67 55 49 46 47 43 41 45 52 61 72 73 72 73 70 66 64 67 69 74 80 83 90 94 97 99 100 100 100 100 100 99 100 100 100 100
89 90 66 56 61 71 75 68 64 61 53 51 58 55 54 60 61 56 68 67 66 63 64 65 65 68 70 78 82 86 92 96 99 99 100 100 100 100 100 100 100 99 96 92
91 90 82 57 60 54 57 81 61 62 60 64 67 70 67 62 59 66 68 65 65 64 64 66 69 69 74 81 85 90 94 99 100 99 99 99 99 99 99 99 97 95 73 71
84 92 76 56 62 59 81 69 57 61 60 70 73 62 66 66 63 66 66 67 67 67 68 68 69 72 78 83 88 88 95 99 100 100 99 99 99 99 99 99 86 75 71 78
81 81 81 56 56 68 64 62 62 63 63 71 71 75 70 66 68 70 72 76 72 74 75 75 74 76 83 86 86 91 96 100 100 100 100 100 99 100 93 82 75 75 71 72
66 65 47 52 54 49 60 64 63 63 67 70 73 70 70 70 69 70 72 74 75 76 81 83 82 82 87 88 92 97 100 100 100 100 99 99 99 98 95 90 79 74 67 62
60 51 53 52 53 54 53 62 63 62 67 68 68 72 69 69 70 71 72 73 73 79 87 91 88 87 86 91 97 100 100 100 100 99 100 99 93 86 79 71 62 54 51 47
67 59 55 51 58 61 68 69 69 66 62 61 65 70 70 74 74 71 73 72 74 80 84 87 90 93 94 97 100 100 100 100 100 99 99 100 83 68 57 47 41 35 32 34
73 57 55 56 61 69 74 71 67 64 65 65 63 66 73 79 76 73 76 76 81 81 83 85 90 94 99 100 100 100 100 100 100 98 100 98 73 59 50 41 36 33 30 32
56 53 65 70 71 67 73 74 68 68 67 68 69 70 73 80 78 76 74 76 80 82 82 84 88 92 97 100 100 100 100 99 97 99 99 75 62 47 48 63 60 47 40 36
55 70 72 72 72 70 71 70 68 71 74 74 75 75 79 80 79 81 80 74 74 79 81 83 87 90 93 94 100 100 99 94 95 96 80 58 47 42 43 49 55 46 40 40
72 69 66 76 79 79 78 76 78 83 84 83 80 82 82 86 86 82 78 76 76 79 82 84 89 90 93 92 100 100 99 93 88 76 53 44 43 45 44 48 50 39 35 33
82 81 79 81 84 80 78 79 81 84 85 87 88 87 89 89 86 83 84 81 82 88 82 82 85 82 88 93 99 100 98 92 86 76 48 43 42 44 45 48 49 50 48 35
82 84 85 85 83 80 83 84 84 85 85 86 86 84 81 81 81 82 83 86 82 80 78 79 80 81 84 89 99 100 98 92 87 81 56 44 41 40 41 49 52 53 46 30
86 86 85 83 87 87 87 87 90 91 90 90 85 79 75 75 81 76 72 77 88 88 83 80 79 80 83 88 95 100 96 91 82 74 61 49 42 39 41 46 46 43 34 26
86 87 89 91 93 92 93 96 99 100 97 96 93 89 85 77 75 80 83 87 88 94 87 85 82 82 83 85 89 96 96 91 84 72 64 56 48 44 42 44 43 39 33 27
90 90 90 95 98 98 98 99 95 93 93 94 96 95 93 89 88 84 86 98 94 92 90 88 84 87 87 86 89 93 93 90 85 80 78 70 54 49 43 41 40 39 34 28
90 90 93 94 94 93 91 98 98 98 98 97 98 96 98 97 97 97 93 99 96 97 96 96 93 89 93 96 97 99 96 91 87 89 81 81 67 55 46 42 39 36 34 31
99 97 90 82 80 90 95 94 90 98 97 96 97 98 98 97 97 96 99 100 100 97 97 96 95 95 96 98 100 100 100 96 90 85 89 92 94 78 59 45 39 36 34 32
99 85 77 68 62 85 70 71 76 95 97 93 99 100 100 99 99 100 96 97 98 98 99 97 98 100 100 100 100 100 100 99 95 93 98 97 97 97 96 84 79 85 41 34
78 63 67 56 53 58 73 64 71 79 77 64 78 91 93 98 91 94 86 95 98 99 99 99 99 99 99 100 100 100 100 100 99 99 98 98 98 98 98 98 98 98 97 58
60 56 56 54 53 57 58 57 69 73 74 67 60 74 73 83 93 88 85 82 87 98 98 98 98 99 99 99 99 100 99 99 99 99 98 98 98 98 98 98 98 98 98 97
51 50 48 49 54 55 55 55 76 78 82 74 61 73 66 66 71 78 83 86 86 88 88 96 98 98 98 99 99 99 99 99 99 99 98 98 98 98 98 98 98 98 98 97
74 70 59 50 43 45 50 59 73 72 79 71 75 80 67 64 69 70 70 76 89 92 93 93 96 100 98 98 98 98 99 99 99 98 98 98 98 98 98 97 98 98 99 98

GFSNGP_925_rhum_084.txt.gz
RH
68 69 84 86 91 91 88 75 81 70 72 56 47 47 64 78 86 86 89 91 88 87 85 72 69 68 73 75 76 76 77 80 82 84 84 85 85 86 86 86 86 86 87 89
82 73 72 78 84 91 85 75 85 75 74 52 47 52 64 78 86 82 82 86 87 83 82 75 69 68 71 75 77 78 81 86 90 91 93 94 96 100 96 93 93 92 92 95
74 70 66 69 73 86 84 82 80 88 62 51 46 50 58 68 83 76 78 81 83 80 78 72 67 64 69 74 78 81 84 90 95 97 98 99 100 100 99 99 99 99 99 99
93 71 76 45 58 64 74 72 74 68 53 47 46 45 47 57 65 76 76 75 80 78 74 69 65 65 67 74 78 82 87 92 97 98 99 99 100 100 100 100 99 99 100 100
90 88 65 57 65 70 75 64 66 68 60 50 54 52 51 51 53 62 66 73 67 67 69 68 66 66 69 78 82 85 89 92 95 98 99 99 100 100 100 100 100 100 100 99
91 89 75 52 64 57 57 80 57 66 63 58 67 70 63 64 65 68 67 65 66 67 67 68 69 68 72 80 84 87 89 92 97 100 100 100 99 99 100 100 99 93 78 71
79 88 78 56 56 62 82 67 64 60 65 66 74 62 66 66 65 67 69 69 68 69 69 68 69 70 76 80 85 83 88 94 99 100 100 99 99 99 100 99 95 74 74 79
81 91 86 47 59 69 61 65 65 63 59 68 70 74 69 68 69 70 75 78 74 75 74 72 71 72 77 82 80 85 91 98 100 100 100 100 99 100 100 99 78 72 73 74
74 75 51 48 60 53 61 64 64 63 69 72 71 69 70 70 68 69 72 75 75 75 80 78 75 74 80 82 85 90 97 100 100 100 100 100 100 100 99 82 69 70 68 66
63 52 55 53 57 56 56 62 63 64 69 67 70 70 66 69 71 71 72 75 75 78 83 85 82 82 82 84 87 93 100 100 100 100 100 100 100 98 90 81 78 72 65 59
69 61 58 54 58 61 66 67 69 68 65 66 66 69 68 73 72 72 72 72 73 77 80 81 85 88 89 88 92 99 100 100 100 100 100 100 99 92 82 73 59 48 42 39
71 58 56 57 56 68 73 72 68 65 66 68 69 72 70 77 76 73 74 73 76 77 80 79 85 91 98 98 97 100 100 100 100 100 100 99 99 90 77 61 50 44 38 32
57 53 65 71 71 68 72 74 70 74 73 73 75 75 77 81 80 80 76 75 77 76 75 78 84 90 96 100 100 100 100 100 100 100 99 99 100 84 65 54 61 58 50 37
56 67 70 74 73 72 76 76 74 78 80 80 80 80 83 86 82 84 83 78 76 77 78 80 84 87 86 90 100 100 100 99 99 100 95 99 98 68 52 51 62 53 57 58
68 69 71 81 82 83 80 76 80 85 85 85 84 87 88 91 91 89 86 84 80 80 81 85 85 84 84 90 99 100 100 100 99 100 99 99 83 62 50 47 50 46 44 42
81 80 80 83 86 82 79 81 82 85 86 88 88 87 88 86 84 80 82 87 87 85 80 86 85 80 83 89 96 100 100 99 97 94 96 97 74 56 51 50 49 49 47 35
79 80 83 86 84 84 90 90 89 90 90 88 87 84 81 79 79 77 71 71 83 90 85 83 81 83 82 84 91 98 100 100 98 93 88 80 60 50 48 50 50 47 42 38
89 88 85 82 89 87 90 91 93 94 94 96 95 92 87 84 85 80 76 77 79 80 87 87 83 81 83 85 87 96 100 99 99 97 90 82 71 54 47 46 47 45 43 44
86 88 90 92 93 93 97 98 94 93 92 92 91 94 96 91 86 87 83 84 90 94 84 84 86 86 84 83 87 94 100 100 98 96 91 86 78 68 57 48 44 40 40 43
93 92 91 95 96 97 97 96 99 98 96 95 95 92 92 94 96 98 97 94 95 100 100 99 95 93 91 89 92 97 100 100 98 92 89 89 80 68 63 56 48 44 40 40
99 88 89 89 91 91 87 88 96 94 98 96 98 99 99 97 98 99 100 99 99 98 97 99 99 99 97 98 99 100 100 100 98 93 89 89 84 91 85 72 59 50 43 39
97 100 98 78 67 82 92 80 78 94 96 93 94 98 100 99 97 99 98 100 98 96 99 98 98 100 100 100 100 100 100 100 99 98 99 98 99 100 99 95 95 93 70 43
99 96 77 65 57 82 64 65 68 84 85 71 79 99 100 94 94 100 96 88 95 100 100 99 99 99 99 100 100 100 100 100 100 100 99 100 99 100 99 98 98 98 98 91
84 64 61 59 49 54 64 55 58 72 75 72 62 78 86 87 84 94 90 86 83 100 100 99 100 99 98 99 99 100 100 100 100 100 100 99 99 99 99 99 99 98 98 98
61 55 53 52 51 51 54 53 53 64 69 70 58 63 72 66 84 77 81 76 85 89 91 87 98 99 98 98 98 99 99 99 99 100 99 99 99 99 98 98 98 98 98 98
53 50 48 47 48 48 50 53 57 64 72 76 62 64 75 62 62 68 64 65 70 81 90 93 94 98 100 98 98 98 98 99 99 99 99 99 99 98 98 98 98 98 98 97
58 79 86 66 46 41 44 49 65 61 62 77 76 76 75 62 67 68 65 65 68 74 81 82 83 89 96 100 98 97 97 98 98 98 98 98 98 98 98 98 98 97 97 98

GFSNGP_925_rhum_087.txt.gz
RH
73 69 83 84 89 91 88 77 80 66 69 49 50 50 47 59 82 84 86 87 82 80 77 77 74 73 76 75 76 76 74 74 78 80 81 82 83 83 84 85 84 85 85 87
82 78 75 80 84 88 86 80 79 79 78 54 48 49 57 68 85 85 83 83 83 80 79 77 72 70 72 73 73 74 75 79 82 86 89 90 91 92 91 91 92 92 93 95
79 73 68 66 70 87 86 83 73 83 59 52 50 50 49 62 83 79 77 78 81 78 77 75 70 66 70 72 74 77 80 84 88 92 95 95 96 100 98 95 97 100 100 99
90 70 75 43 59 65 79 76 80 75 66 55 53 46 46 54 69 78 76 77 78 77 78 73 68 66 66 74 78 82 86 89 93 96 97 99 100 100 100 100 100 99 100 100
83 84 60 60 65 68 68 60 64 73 68 61 50 52 53 49 59 65 73 72 70 70 70 70 68 66 68 76 79 83 87 91 95 98 99 99 100 100 100 100 100 100 100 100
87 86 69 50 65 57 58 74 57 66 67 68 65 69 63 64 58 59 58 60 66 67 69 70 70 67 70 78 82 84 84 87 91 95 97 99 99 99 99 100 100 100 100 97
74 77 73 57 56 61 74 66 68 63 64 66 68 60 66 65 68 69 71 70 69 70 71 72 71 70 74 77 81 76 80 86 92 96 99 99 100 100 100 100 97 88 72 75
83 83 83 47 61 68 60 63 66 69 60 66 74 73 70 70 71 71 74 75 74 75 75 74 72 72 75 77 74 79 84 90 95 99 100 100 100 100 100 99 91 76 78 82
74 73 53 47 63 54 58 66 64 64 69 70 72 70 70 71 68 69 72 74 75 75 78 76 74 72 75 74 78 83 89 94 99 100 100 100 100 100 100 99 86 75 79 73
64 53 56 53 54 61 59 62 63 68 68 68 69 71 70 70 68 71 72 74 75 79 82 82 77 75 74 76 82 88 95 100 100 100 100 100 100 100 99 99 78 70 72 66
71 61 59 53 56 58 68 67 68 72 69 71 73 72 70 74 73 71 70 71 74 77 78 78 80 81 83 83 86 92 97 100 100 99 100 100 99 98 99 87 58 60 58 52
68 60 61 60 69 66 72 73 70 68 72 74 74 78 78 82 80 76 74 73 74 74 75 74 80 84 88 90 91 94 100 100 100 100 100 100 100 100 96 77 71 64 49 40
62 57 62 68 73 70 74 75 74 78 77 77 82 83 83 85 85 84 81 78 77 75 73 74 78 82 87 92 96 100 100 100 100 100 100 100 100 100 98 86 74 55 48 48
65 63 71 74 75 78 79 80 79 82 83 84 82 84 83 85 84 86 88 87 82 79 78 78 79 81 83 89 99 100 100 100 100 100 100 100 99 100 89 71 70 62 62 72
81 72 74 82 82 84 80 78 83 87 86 86 85 88 89 91 90 87 82 85 86 83 81 81 84 85 82 86 94 99 100 100 100 100 100 100 99 100 95 71 57 52 55 62
86 81 81 84 88 83 81 83 85 88 88 89 89 88 86 84 83 80 77 75 88 93 87 84 83 81 87 84 88 96 100 100 100 100 100 100 100 100 98 72 56 52 51 42
83 82 86 87 86 88 92 92 93 94 93 95 95 92 88 85 82 81 78 77 78 78 79 92 87 84 87 88 89 95 99 100 100 100 100 100 99 99 94 73 60 53 45 39
90 90 90 84 90 91 93 95 93 93 93 93 91 91 94 96 95 90 89 86 80 79 86 89 88 91 87 87 90 94 97 100 100 99 99 98 93 93 90 71 55 52 46 41
90 93 93 95 95 96 94 90 92 92 94 94 93 92 91 92 95 96 95 95 92 99 99 99 98 96 97 91 92 94 98 100 100 100 100 100 99 97 82 72 62 52 46 42
99 100 98 94 94 94 92 92 92 93 96 95 95 98 98 96 98 98 98 100 100 100 100 97 98 100 100 100 99 99 99 100 100 100 100 100 99 99 97 91 79 67 60 52
99 97 79 76 83 90 92 89 78 88 94 92 97 98 100 100 94 98 100 99 97 97 100 99 98 97 99 100 100 100 100 100 100 100 100 100 100 100 100 99 98 95 83 73
98 100 99 91 62 79 78 66 66 81 82 75 74 99 96 97 95 100 98 100 89 96 100 100 99 99 99 99 100 100 100 100 100 100 100 100 100 100 99 99 98 98 98 99
100 98 85 73 54 74 63 59 58 70 76 70 64 78 90 85 80 100 89 82 86 95 99 100 100 99 99 98 99 100 100 100 100 100 100 100 100 99 100 99 99 99 99 98
98 80 56 58 47 52 61 48 49 62 71 73 65 63 80 72 60 88 72 70 65 96 91 90 100 100 100 98 99 100 100 99 99 100 100 100 100 100 100 100 100 99 99 99
99 74 54 52 51 46 47 49 48 51 60 64 62 57 72 72 68 64 74 64 63 70 77 79 93 100 97 99 98 99 100 99 99 99 99 99 99 99 99 99 99 99 99 98
68 59 52 53 51 47 45 48 50 49 59 64 59 60 68 67 59 62 63 61 62 66 66 72 76 79 79 89 100 97 97 98 98 98 99 99 99 99 99 99 99 98 98 98
69 64 69 88 82 52 42 42 50 57 52 58 67 65 74 65 61 68 69 65 66 68 70 75 75 76 83 93 96 93 95 96 97 100 98 98 98 98 98 98 98 98 98 98

GFSNGP_925_rhum_090.txt.gz
RH
67 64 66 72 75 74 86 67 77 47 53 34 29 33 33 38 49 54 60 62 60 56 53 57 61 64 67 69 72 73 75 76 78 81 83 84 84 86 85 87 86 87 89 90
75 64 66 71 69 69 67 62 58 56 53 39 34 32 35 34 50 56 58 61 58 57 54 55 57 60 66 69 73 76 75 78 84 86 88 90 92 92 93 94 94 94 97 99
77 64 58 58 52 67 68 66 58 71 48 40 40 40 38 36 46 54 52 55 58 56 57 56 57 59 63 67 72 74 76 81 86 88 90 92 94 96 96 97 99 100 100 100
64 58 53 43 49 54 58 58 60 56 53 45 43 40 37 33 36 42 51 51 54 56 58 60 59 61 62 68 73 78 78 82 86 88 91 96 99 99 99 99 99 100 99 99
63 56 48 60 59 56 56 56 52 55 50 48 48 46 46 38 37 36 44 46 50 54 58 61 62 62 65 72 77 82 80 86 89 90 94 98 99 99 100 100 100 100 100 99
69 68 52 54 54 50 51 67 55 55 51 52 53 59 41 51 53 43 48 55 57 60 64 64 64 64 66 70 75 78 81 84 88 96 98 100 99 98 99 100 100 100 100 100
61 64 49 44 52 53 66 66 56 60 55 55 55 48 58 55 57 60 63 63 65 66 66 68 70 70 70 72 78 82 88 91 95 99 98 98 100 100 100 100 100 100 100 94
63 64 66 42 58 63 53 54 60 62 53 55 58 62 60 60 61 62 64 66 72 70 75 77 79 76 77 82 80 80 87 94 99 99 99 99 99 100 100 100 100 94 82 79
50 46 42 40 52 48 49 56 58 59 60 56 62 62 62 60 59 60 63 65 70 70 73 78 81 78 81 82 78 82 93 97 100 99 100 100 100 100 100 100 94 84 75 72
54 47 45 44 43 44 51 56 58 59 58 60 60 59 59 57 57 58 61 63 70 71 71 73 78 78 73 79 79 88 88 94 100 100 100 100 100 100 100 100 95 81 70 66
52 48 45 47 50 49 58 64 61 61 61 62 63 66 62 68 68 67 67 69 72 68 68 68 77 79 76 81 86 88 88 96 100 100 100 100 100 99 99 99 97 80 64 61
52 50 52 47 58 59 61 65 64 62 64 65 62 66 64 69 72 72 69 71 73 78 77 72 77 78 80 82 88 87 90 99 100 100 100 100 100 100 100 100 99 84 63 59
57 51 52 51 64 64 66 66 65 64 65 68 72 72 73 73 79 82 78 77 75 73 71 71 77 79 80 83 89 93 89 97 100 100 100 100 100 100 100 100 93 72 63 56
59 65 59 65 65 69 67 72 74 74 76 76 76 78 78 79 80 80 81 86 88 84 80 78 79 80 77 83 90 95 98 99 100 100 100 100 100 100 100 92 88 86 86 80
68 68 67 70 71 74 73 71 74 74 74 75 79 79 79 78 78 80 81 82 86 86 84 84 84 80 81 86 90 94 98 99 100 100 100 100 100 100 99 88 72 65 73 61
79 73 74 74 78 76 74 74 74 79 79 82 82 83 83 81 81 79 79 79 77 75 79 88 89 84 83 87 90 96 98 98 100 100 100 100 100 100 100 97 80 66 62 57
89 78 82 84 79 78 80 79 80 84 85 85 85 85 85 85 84 83 84 86 85 83 85 89 91 96 93 90 93 94 97 97 100 100 100 99 99 100 100 99 88 72 61 51
82 82 83 77 76 80 85 85 83 84 84 85 84 84 85 85 87 90 95 94 91 91 100 100 100 100 97 94 93 96 98 98 99 100 99 100 99 99 99 97 90 78 65 56
94 95 93 90 88 86 82 82 86 87 87 88 85 86 86 86 90 92 96 98 99 100 99 97 95 98 100 100 99 98 100 100 100 100 100 100 100 99 99 98 94 81 72 61
99 98 98 99 95 88 82 79 78 78 88 87 85 80 82 87 89 88 97 100 100 100 99 100 99 98 99 99 100 100 100 100 100 100 100 100 100 100 99 99 99 98 95 76
100 98 93 68 74 84 85 73 69 74 86 84 78 79 86 88 84 91 91 95 94 93 99 99 100 100 100 99 99 99 100 100 100 100 100 100 100 100 100 100 99 99 99 99
97 97 99 99 83 89 87 67 64 75 76 69 69 79 78 74 75 83 92 94 89 95 96 98 100 100 100 100 99 99 99 100 100 100 100 100 100 100 100 100 99 99 99 99
100 99 93 85 72 64 62 56 51 57 72 74 73 71 77 78 73 79 63 76 86 90 94 96 99 99 100 100 100 100 99 99 99 100 100 100 100 100 100 100 100 100 99 99
99 99 98 70 59 60 57 51 47 47 59 64 68 61 71 77 69 69 71 66 63 88 86 81 95 96 95 100 100 100 98 98 99 99 99 99 100 100 100 100 100 99 99 99
100 99 98 73 57 49 44 44 48 46 50 56 60 57 58 74 74 64 62 64 60 70 82 64 74 75 88 94 98 100 100 100 100 100 100 99 99 99 99 99 99 99 100 100
95 85 67 54 56 56 51 47 50 47 54 57 57 53 56 67 66 60 67 73 72 73 73 71 76 90 89 93 96 98 97 98 100 100 100 100 99 98 99 99 99 99 99 99
83 80 71 63 69 85 72 48 50 47 50 49 55 53 63 66 63 65 68 68 69 71 76 80 90 89 92 94 95 97 98 98 99 100 100 100 100 99 99 97 97 97 98 98

GFSNGP_925_rhum_093.txt.gz
RH
56 55 56 70 68 61 91 61 71 44 43 29 26 29 28 28 36 41 46 49 48 46 45 48 53 56 56 59 62 64 65 67 69 73 75 76 77 78 78 79 80 83 84 87
70 57 57 65 58 60 59 55 51 49 49 34 31 30 30 28 35 42 46 50 48 47 45 48 52 54 57 61 63 66 65 67 74 76 78 81 82 83 85 86 86 86 89 91
74 56 52 66 58 59 58 54 53 65 48 37 37 33 35 32 34 39 42 46 49 48 47 47 49 52 57 60 63 64 65 68 74 75 79 82 85 87 89 91 93 96 98 99
52 49 57 44 40 45 52 46 48 50 46 42 39 36 36 33 33 32 38 42 45 46 48 49 50 52 55 58 62 66 66 69 74 76 79 85 89 94 100 100 100 99 96 97
57 45 46 57 54 49 53 54 48 50 46 42 42 42 45 36 35 35 32 38 40 45 48 52 52 53 55 60 64 71 68 72 75 78 81 86 94 99 100 98 98 99 99 100
56 61 47 50 47 44 45 63 51 52 49 49 47 57 49 48 47 41 38 44 43 46 50 53 54 55 57 61 64 69 72 72 77 84 84 91 98 100 99 100 100 99 99 100
51 56 43 40 47 46 69 84 55 55 49 47 48 50 52 48 52 52 56 56 58 55 56 57 58 59 60 62 65 70 77 80 82 90 93 97 99 97 98 99 100 100 100 99
52 58 58 38 54 60 51 48 53 54 47 48 51 54 55 55 56 57 58 60 66 61 68 69 70 68 68 70 75 79 84 87 91 96 99 100 98 100 100 100 100 99 100 91
48 47 39 35 40 39 43 47 54 54 52 49 54 58 56 55 54 56 56 60 63 63 67 71 74 72 72 79 86 86 87 90 94 98 99 100 100 100 100 100 100 98 88 78
48 43 41 40 39 40 40 52 55 54 54 55 58 56 57 56 56 55 57 58 62 62 62 66 72 73 68 76 79 80 81 83 89 96 100 100 100 100 100 100 99 96 86 74
45 42 41 45 48 45 50 57 56 55 56 59 65 67 58 66 63 65 67 63 64 62 60 60 67 69 70 75 78 78 76 78 89 97 100 100 99 99 99 99 99 98 94 76
79 49 49 43 43 54 54 58 57 57 59 59 56 60 57 62 64 65 65 66 66 68 72 73 75 76 75 76 78 80 80 80 92 99 100 100 100 99 100 100 100 99 99 80
56 48 49 46 50 58 59 60 58 58 58 63 64 63 65 66 72 73 72 74 75 74 71 68 66 72 77 77 80 83 84 83 94 99 100 100 100 100 100 100 98 99 99 82
51 57 51 58 63 63 61 65 67 67 68 68 68 71 71 72 71 69 72 74 79 81 78 76 75 75 78 80 82 87 88 90 93 97 99 100 100 100 99 100 100 99 98 98
62 64 63 59 63 68 66 65 67 68 67 68 72 72 73 71 72 74 74 73 72 73 76 80 81 80 83 82 85 90 92 94 94 97 100 100 100 100 100 99 100 92 85 83
74 70 66 68 68 70 69 68 68 72 72 75 75 77 78 77 77 77 76 77 76 73 75 78 79 86 93 89 89 92 94 97 99 98 100 100 100 100 100 99 99 94 71 70
88 79 80 76 75 70 70 70 72 75 77 76 76 77 77 79 77 78 81 85 87 84 85 93 97 100 100 99 95 95 99 98 100 100 100 100 100 99 99 99 99 99 98 83
92 79 76 78 76 74 78 75 74 75 76 79 77 77 76 77 80 84 88 93 95 99 100 99 100 98 100 100 100 100 99 100 100 100 100 100 100 100 99 99 99 100 99 98
97 97 97 96 93 81 75 74 77 78 74 72 69 70 75 76 80 80 86 92 95 90 99 99 99 99 100 100 100 100 100 100 100 100 100 100 100 100 100 100 99 99 99 99
98 98 98 99 99 99 96 76 62 62 70 71 67 61 62 69 76 74 88 95 97 94 99 100 99 99 100 100 99 100 100 100 100 100 100 100 100 100 100 100 100 100 100 100
99 98 95 72 74 75 70 58 56 59 72 69 62 59 65 68 70 72 76 77 84 82 89 92 98 99 99 99 99 99 100 100 100 100 100 100 100 100 100 100 100 100 99 99
98 96 97 99 98 99 97 77 60 64 67 64 60 62 67 64 62 63 79 87 80 82 87 88 91 92 94 96 98 100 99 99 99 99 100 100 100 100 100 100 100 100 99 99
99 98 99 99 98 90 92 82 70 60 70 71 72 69 66 69 70 62 59 67 70 77 85 83 88 93 94 93 96 99 99 100 100 100 100 99 100 100 100 100 100 100 100 100
99 99 99 99 98 89 64 60 53 50 50 57 59 64 61 71 69 67 82 74 81 80 77 76 82 88 92 88 90 92 94 99 99 99 100 100 100 100 100 100 100 100 99 99
100 99 100 99 98 90 51 47 47 46 46 49 55 56 54 59 74 63 59 60 67 76 70 75 82 87 86 85 86 90 93 95 95 97 99 99 100 100 100 100 99 100 99 99
90 95 97 92 75 57 58 54 50 44 43 45 47 49 54 57 64 66 62 70 71 71 68 69 73 82 88 88 88 89 92 93 95 95 95 98 99 100 100 100 99 98 98 98
76 81 80 72 64 58 65 76 56 46 43 46 46 45 49 58 63 67 64 61 65 65 67 72 76 81 88 90 92 90 90 94 94 94 95 98 100 100 99 99 100 100 100 98

GFSNGP_925_rhum_096.txt.gz
RH
58 55 63 75 82 72 83 72 79 55 46 40 37 34 32 35 39 49 56 55 56 58 62 56 56 57 59 62 64 64 64 64 66 67 66 66 66 68 69 70 72 74 77 79
82 55 58 70 66 64 66 62 58 55 56 38 39 36 38 36 41 44 54 56 55 56 58 58 57 57 59 61 64 65 66 68 68 67 68 70 71 72 73 76 78 81 85 88
91 56 54 78 64 65 60 54 56 70 53 49 48 42 37 42 39 40 46 56 57 58 56 53 55 56 60 62 64 65 66 68 69 70 73 76 79 79 82 84 86 87 87 89
73 56 76 51 43 52 56 50 48 51 50 48 48 44 41 41 42 39 44 51 57 56 51 50 52 55 59 62 64 65 66 68 71 74 78 81 83 87 90 93 98 100 93 94
77 58 56 59 54 51 58 59 50 53 52 49 47 52 57 50 49 46 43 46 50 48 49 50 52 53 57 61 63 65 67 69 72 74 78 81 85 90 100 99 97 93 95 99
75 77 63 61 50 46 46 78 54 57 58 55 53 74 75 60 58 60 52 58 55 47 50 53 53 54 57 62 64 69 68 69 72 75 79 82 87 98 100 99 96 96 98 99
72 74 57 48 49 47 80 91 60 59 52 53 69 69 62 58 62 59 62 62 59 58 58 56 55 55 58 62 65 68 70 71 75 78 82 85 90 100 97 100 100 99 99 99
66 66 72 48 56 69 59 55 57 61 53 54 63 63 63 63 65 67 66 68 67 68 70 68 63 60 62 65 67 68 72 76 80 83 87 92 100 99 100 100 100 100 100 99
58 62 44 37 40 39 42 48 60 61 59 56 63 65 63 65 65 65 63 63 65 68 71 72 72 70 72 75 73 74 78 81 85 88 94 98 100 100 100 100 100 99 99 98
52 49 47 51 48 45 44 62 62 60 59 61 68 68 72 71 70 70 64 64 63 63 67 70 73 72 72 77 79 81 83 86 89 93 95 98 98 100 100 100 100 99 99 94
53 57 54 56 56 61 56 59 61 63 65 74 72 67 68 73 69 70 68 67 66 66 64 66 68 69 69 73 76 78 79 80 86 91 96 98 99 100 100 99 99 99 98 98
92 61 60 54 54 62 64 62 64 66 70 69 66 68 69 76 73 72 73 72 71 69 68 68 70 71 72 72 74 75 76 77 83 89 96 99 99 99 100 100 100 100 100 100
63 61 64 62 57 68 66 66 65 67 69 72 70 69 72 77 74 73 73 76 79 82 79 75 71 70 72 75 78 79 80 80 84 91 98 99 100 100 100 99 100 99 99 99
66 68 64 68 75 71 67 70 69 70 70 72 76 72 72 74 73 73 75 74 71 72 79 80 80 78 78 78 79 82 84 85 88 90 93 98 99 99 100 100 100 99 98 98
75 73 74 71 67 70 68 69 71 77 73 73 74 75 76 78 79 77 75 74 73 71 73 75 78 85 89 87 85 85 88 89 90 94 96 97 99 100 100 100 100 100 98 100
82 79 77 79 77 72 72 71 72 78 78 79 79 79 78 78 78 79 79 82 84 84 81 87 90 95 95 97 96 94 94 95 95 96 98 100 100 100 100 100 100 100 100 97
97 88 88 87 84 75 73 75 77 80 80 78 77 77 78 79 78 82 86 88 91 93 99 98 100 96 98 100 100 100 98 98 100 100 100 100 100 100 100 100 100 100 98 98
91 96 87 90 95 89 79 77 79 80 80 79 75 76 76 78 85 84 85 91 94 96 98 93 100 97 100 100 100 100 100 100 100 100 100 100 100 100 100 100 100 100 99 99
96 98 97 97 98 98 97 97 99 89 69 69 68 70 72 73 77 74 79 86 87 88 90 84 100 100 100 99 100 99 100 100 100 100 100 100 100 100 100 100 100 99 100 100
92 96 92 98 100 98 98 99 98 88 70 68 62 57 62 65 68 66 70 87 93 90 72 85 93 98 98 99 99 99 99 100 100 100 100 100 100 100 100 100 100 100 100 100
92 90 91 86 96 88 73 69 62 72 74 67 57 60 63 62 64 62 69 82 86 70 71 77 91 90 88 91 89 92 99 99 100 100 100 100 100 100 100 100 100 99 99 100
92 91 92 97 98 99 99 92 73 66 82 82 78 62 57 60 61 57 57 79 77 63 70 64 83 88 91 91 89 88 93 96 98 100 99 99 100 100 100 100 100 100 99 99
98 97 96 99 96 94 95 97 98 95 71 61 68 63 62 58 62 70 68 71 62 58 72 59 76 88 88 88 77 89 92 91 92 95 97 98 99 100 100 100 100 100 99 100
99 98 99 99 100 100 98 91 69 60 50 46 46 49 56 55 52 54 64 58 52 65 76 63 77 83 85 78 82 84 87 90 96 97 97 96 95 94 98 99 100 99 99 99
87 98 100 100 100 97 94 92 60 50 46 44 43 46 48 49 57 51 57 53 55 66 62 60 76 78 75 77 80 83 86 86 93 94 92 96 97 98 97 97 97 95 99 99
92 91 92 95 95 92 80 57 56 56 45 42 39 42 43 47 50 57 57 57 61 59 59 58 61 75 78 81 86 89 87 89 88 92 95 95 95 95 98 99 99 100 100 99
73 75 79 81 77 72 66 59 64 70 59 45 43 38 40 45 52 58 58 54 54 58 60 62 68 74 80 83 86 84 85 87 88 94 95 92 87 94 96 97 95 99 100 99

GFSNGP_925_rhum_099.txt.gz
RH
83 68 72 80 82 81 85 68 82 73 55 47 39 39 36 41 55 59 59 58 60 67 74 68 66 66 66 65 64 64 64 65 66 66 64 62 60 63 65 68 69 70 70 72
87 57 66 80 79 78 72 65 64 59 57 48 40 41 41 43 47 58 61 59 60 62 70 71 66 66 65 65 65 64 64 65 66 65 63 62 63 66 69 70 72 74 77 80
96 60 60 79 67 72 66 57 58 72 60 51 50 47 47 46 43 46 59 61 62 65 67 66 63 62 64 63 65 66 66 67 66 64 64 68 71 73 75 77 79 80 81 84
85 60 78 55 46 53 62 53 51 51 51 49 48 47 62 58 44 46 48 58 62 62 60 58 59 60 61 63 64 66 68 67 67 68 70 73 75 77 79 82 85 85 86 87
80 76 58 61 57 56 57 67 54 58 60 58 54 53 64 64 62 55 50 64 58 52 54 55 57 59 61 64 65 67 68 69 70 70 74 78 80 82 87 91 97 93 90 91
86 82 70 65 53 49 50 88 65 64 59 57 58 76 77 65 63 68 68 66 70 55 53 53 56 58 62 65 66 68 68 66 68 71 74 77 79 84 98 100 99 99 94 96
80 84 64 52 53 50 72 80 63 58 54 61 73 72 67 66 71 67 70 72 73 65 64 57 56 57 62 64 66 64 67 68 70 74 77 79 82 89 100 100 100 99 98 98
79 74 76 51 56 71 66 57 64 61 55 71 70 67 67 69 72 73 72 72 72 73 74 69 62 58 62 66 65 67 71 72 74 76 80 83 88 100 100 100 100 100 100 100
69 73 48 40 43 46 45 50 65 63 60 64 71 68 68 71 71 72 70 69 70 71 71 71 70 66 68 68 68 70 73 75 78 81 84 87 94 99 99 100 100 99 100 99
58 66 65 66 62 64 60 64 64 64 63 68 72 75 79 77 77 75 70 69 68 68 71 72 72 73 74 76 76 76 78 80 82 85 89 93 96 99 99 100 100 100 100 99
75 70 61 59 65 70 69 62 70 71 74 77 77 78 74 79 75 75 73 71 71 71 72 71 69 70 73 76 79 82 83 84 87 88 93 94 97 99 98 99 100 100 99 99
94 80 79 70 65 71 74 70 70 74 75 78 73 77 78 85 81 81 83 81 82 81 77 75 73 72 72 72 75 77 79 80 83 85 89 92 96 99 99 98 99 100 100 99
70 69 66 66 72 72 73 71 74 78 76 78 75 76 76 81 78 77 75 74 75 79 82 80 78 76 75 76 77 78 79 78 81 85 87 92 98 100 100 97 100 99 99 99
79 71 72 73 79 76 72 71 73 78 76 78 81 79 81 79 78 78 79 76 73 74 78 77 82 90 86 86 84 84 86 86 86 87 89 94 96 98 100 100 100 98 99 99
90 86 82 76 74 75 71 73 76 81 77 77 77 79 79 82 83 83 80 80 79 79 80 84 90 94 92 92 95 93 92 91 92 94 95 96 98 100 100 100 100 99 99 99
82 88 86 86 86 83 75 75 77 83 81 81 86 86 80 80 83 83 84 84 88 93 98 97 100 96 92 100 99 98 98 97 98 99 98 100 100 100 100 100 100 100 100 99
97 86 85 86 87 89 79 78 79 81 80 81 83 79 80 80 84 85 86 92 96 98 99 94 100 94 100 100 99 99 100 100 100 100 100 100 100 100 100 100 100 100 99 99
94 87 91 97 96 97 84 91 93 97 97 99 81 76 78 80 85 80 78 87 85 96 89 72 99 99 100 98 100 99 100 100 100 100 100 100 100 100 100 100 100 100 99 99
90 92 95 98 98 98 97 97 98 99 98 91 78 69 71 73 71 66 66 85 86 90 75 74 90 89 92 91 97 94 100 99 99 99 100 100 100 100 100 100 100 100 100 100
91 95 91 91 98 99 97 99 97 93 71 62 57 58 61 63 66 62 63 84 96 81 68 66 86 88 78 82 96 84 91 97 99 99 99 99 100 100 100 100 100 99 99 99
89 90 88 91 96 83 69 61 61 67 70 65 60 62 62 59 62 58 59 75 85 71 56 54 68 82 79 88 87 81 82 87 93 93 97 99 99 99 99 100 100 100 99 100
89 93 93 92 91 94 98 88 68 63 84 97 98 97 88 63 61 54 54 66 81 60 56 58 55 71 90 89 81 78 87 89 89 90 89 91 93 95 96 97 99 100 100 100
95 95 94 96 97 95 93 96 94 96 95 71 58 60 62 57 56 67 64 66 69 55 72 63 69 87 87 87 75 77 81 87 92 95 95 94 95 92 95 92 96 97 95 98
89 96 97 98 99 99 99 96 94 70 66 60 48 43 48 52 44 41 55 63 57 60 74 65 78 82 80 75 74 78 83 88 87 93 95 95 96 98 98 96 96 95 93 93
87 86 89 100 100 99 98 97 99 79 58 51 44 40 40 46 50 44 49 49 52 55 56 60 68 69 68 74 76 83 88 85 87 93 92 92 97 93 94 92 92 96 99 97
88 89 84 82 88 87 86 91 80 59 60 54 45 40 39 40 44 48 50 54 54 53 55 58 60 68 73 75 83 86 84 83 85 85 91 94 95 92 86 90 94 92 92 92
73 79 81 84 80 82 82 78 71 66 64 70 59 48 41 39 43 49 55 54 50 51 56 59 65 72 77 82 83 80 82 84 86 91 95 91 88 88 89 90 91 91 93 98

GFSNGP_925_rhum_102.txt.gz
RH
82 78 78 79 82 84 84 86 96 82 75 51 44 39 39 41 54 57 58 63 71 77 80 75 73 71 68 67 67 66 64 62 60 61 61 61 62 63 63 64 62 61 62 64
87 62 76 84 79 81 78 68 83 80 72 53 46 46 50 46 55 58 60 58 63 70 75 76 72 70 68 66 66 65 64 64 64 64 64 64 64 65 65 65 65 67 70 73
90 66 62 82 78 81 72 61 62 76 60 50 48 48 50 48 44 49 61 62 63 67 70 70 70 68 68 66 65 66 66 66 66 66 66 66 67 68 69 70 71 72 73 75
87 64 77 55 47 56 62 56 56 55 52 51 52 63 65 64 57 49 50 60 63 64 64 65 66 66 65 66 67 67 67 67 68 68 68 70 72 73 72 73 75 78 80 82
84 80 61 63 64 59 58 73 60 65 62 57 55 57 62 65 64 68 68 68 68 58 58 61 62 62 64 67 67 69 69 69 69 68 70 72 73 73 76 79 82 88 87 87
87 85 74 66 54 50 50 89 68 62 57 58 60 76 74 68 69 73 72 76 77 62 57 58 62 63 64 67 68 70 68 67 67 68 69 71 74 78 82 85 94 100 99 93
83 86 67 53 54 52 64 72 65 56 56 63 70 73 70 70 74 72 75 80 79 70 64 60 60 62 65 66 68 64 66 67 68 70 71 74 78 81 85 93 100 100 97 94
83 84 83 53 57 70 66 60 67 58 58 68 71 68 70 72 74 76 77 77 77 79 78 70 64 65 66 67 62 65 67 68 69 71 74 78 80 84 92 100 100 99 100 98
69 71 54 63 56 60 52 53 68 63 62 70 73 70 69 75 77 77 75 74 75 74 75 74 71 67 68 66 67 67 71 73 74 76 79 82 85 91 99 100 100 99 100 99
64 74 73 73 68 73 72 67 67 68 64 71 72 73 78 80 80 79 75 75 72 71 74 76 74 73 75 73 74 75 76 78 80 82 85 88 92 95 96 99 100 99 99 99
81 70 67 64 73 79 76 68 72 76 78 77 82 80 77 81 82 80 80 78 75 75 75 75 72 71 77 80 82 83 84 84 86 87 89 90 92 92 94 98 99 99 99 99
90 80 81 81 80 77 79 77 74 75 80 79 77 81 83 88 86 85 84 82 83 84 81 79 76 76 75 74 76 80 82 83 84 86 88 91 92 92 94 97 99 99 100 100
71 72 70 68 68 73 81 75 75 76 76 80 78 76 77 82 81 80 76 75 75 82 86 84 84 84 82 82 81 80 81 81 82 84 86 90 92 95 98 92 95 99 100 99
89 85 76 71 78 76 79 74 76 79 81 82 84 84 84 87 86 80 80 79 77 80 78 82 90 92 91 90 89 88 87 87 89 88 88 90 93 94 97 100 99 95 93 99
91 89 92 90 86 87 76 77 77 83 80 80 79 80 80 82 85 86 84 82 83 84 92 96 96 94 89 95 98 98 97 95 93 93 94 96 96 98 99 100 100 99 99 98
83 76 84 90 89 83 88 80 80 84 81 84 86 86 89 90 88 87 86 87 88 99 98 96 100 94 98 100 99 99 100 100 100 100 100 100 100 100 100 100 99 100 100 99
91 86 85 81 80 87 91 80 81 82 82 86 87 85 83 85 85 84 84 93 96 98 91 82 95 97 100 97 100 100 100 99 100 100 100 100 100 100 100 100 100 100 99 99
91 88 86 90 96 97 91 94 97 99 98 99 100 99 84 79 80 75 72 87 90 98 76 63 80 95 97 93 97 92 100 100 100 100 100 100 100 100 100 100 100 100 99 99
87 88 90 92 99 98 98 98 99 99 99 99 98 98 95 89 75 61 59 83 88 86 63 63 82 80 71 73 96 79 91 94 100 99 99 100 99 100 100 100 100 100 100 100
90 92 91 90 92 97 99 98 97 93 80 69 63 63 62 66 68 61 59 80 92 75 62 57 63 79 75 78 96 74 78 79 88 91 93 100 99 100 100 99 100 100 100 100
86 88 88 88 92 93 73 65 64 74 69 60 56 61 69 72 92 85 66 84 89 77 59 59 55 59 76 90 88 68 79 83 85 86 91 88 88 90 92 96 98 100 100 100
80 90 91 90 92 91 91 94 78 66 73 78 91 98 98 89 75 64 55 61 80 71 55 60 56 76 89 89 85 68 74 80 84 89 92 92 90 92 91 90 91 90 93 92
84 91 93 94 93 94 96 96 95 95 96 99 90 73 68 62 57 61 59 61 67 55 64 60 66 87 86 83 76 70 75 80 86 86 92 92 93 95 95 95 97 92 95 90
82 82 84 94 98 100 100 92 96 98 92 76 96 88 65 57 50 42 42 59 66 58 63 57 70 80 81 68 68 72 78 84 84 81 90 99 92 90 93 96 94 92 91 89
87 87 90 95 100 100 99 95 99 98 99 92 62 51 46 45 49 42 45 49 53 54 50 54 58 58 63 67 70 76 83 84 82 93 91 85 91 96 95 92 85 88 98 100
83 89 90 89 87 80 84 85 93 88 84 63 62 59 45 41 42 45 47 49 52 53 50 51 54 59 67 71 76 82 80 80 82 81 88 90 90 89 86 85 86 86 86 88
75 82 85 85 83 85 88 91 97 91 77 70 68 70 60 47 41 41 46 53 54 51 49 52 56 65 74 76 80 79 80 80 81 84 87 85 85 86 88 87 88 88 87 87

GFSNGP_925_rhum_105.txt.gz
RH
84 74 80 78 81 84 86 86 90 89 74 55 52 48 46 45 58 64 65 65 72 80 86 81 78 74 69 66 66 67 66 66 65 64 62 60 60 61 61 61 61 61 62 64
85 68 78 86 80 81 78 87 85 82 75 54 49 51 58 58 56 60 62 62 66 74 79 81 78 75 72 71 70 68 67 66 65 64 64 64 64 64 62 62 64 67 70 71
83 68 67 81 69 81 75 64 80 80 66 51 52 54 62 66 58 56 57 61 64 69 73 74 73 70 70 70 69 70 68 68 68 67 66 66 65 64 66 68 69 70 72 73
88 64 79 59 53 63 67 64 57 57 56 58 58 65 69 70 69 64 66 74 71 67 65 65 67 69 70 70 69 69 70 70 69 68 67 67 67 68 69 72 74 76 76 77
83 81 60 69 66 74 65 76 70 66 62 57 59 61 64 70 70 74 75 72 74 72 63 64 66 68 68 70 70 71 70 69 68 68 68 68 70 72 74 76 79 82 82 81
88 84 78 64 55 51 53 89 69 60 58 62 61 72 72 74 74 76 75 78 83 78 65 62 66 67 68 70 70 70 69 68 68 68 68 69 71 74 77 81 83 82 91 95
85 90 72 52 58 56 66 66 66 56 57 64 68 70 75 76 78 76 78 82 81 80 71 65 66 67 69 71 69 66 67 68 69 69 69 71 75 77 80 84 88 97 99 92
85 87 83 58 60 70 65 66 74 60 59 68 72 72 73 77 80 81 82 81 81 83 83 76 71 70 71 71 69 69 69 70 70 70 72 74 77 80 84 88 93 100 100 99
72 73 68 75 74 75 76 59 72 66 61 68 73 72 72 78 79 81 80 78 77 79 80 78 75 73 73 72 70 69 70 71 72 74 76 78 80 84 90 94 100 99 99 99
75 76 78 79 72 81 80 76 73 75 67 72 71 73 80 82 83 83 81 80 76 73 77 78 76 78 77 75 73 73 75 78 79 80 82 84 87 89 92 95 98 100 99 99
83 71 69 70 82 82 82 79 77 78 83 80 85 79 78 83 86 88 88 84 80 80 80 80 75 77 80 82 82 82 82 83 84 84 87 88 90 89 90 88 91 97 99 100
84 80 79 79 80 78 81 83 80 79 78 79 80 83 82 88 88 85 82 79 83 86 84 84 80 80 80 79 78 80 83 85 86 88 89 90 91 91 91 91 91 95 98 100
77 78 75 71 72 80 82 84 81 81 74 76 78 79 80 83 80 80 76 76 78 88 86 88 88 88 88 86 84 83 83 83 84 86 89 90 92 95 94 87 91 93 94 98
89 80 76 82 86 91 89 82 78 81 84 82 82 81 80 83 84 84 85 84 82 82 84 90 92 90 88 88 89 90 91 90 89 88 88 90 92 92 92 96 97 92 91 94
90 88 87 89 85 85 87 82 80 84 83 82 79 80 82 85 86 88 85 83 86 89 96 98 97 92 92 99 99 98 99 98 98 97 95 95 95 96 96 99 100 98 98 99
85 79 77 84 88 86 90 84 83 84 83 84 86 86 89 91 93 94 92 89 90 98 97 96 99 95 99 99 100 100 100 100 100 100 100 100 100 100 100 100 100 99 99 99
85 85 84 84 79 84 91 83 83 84 85 90 97 98 100 100 99 92 81 88 94 92 88 78 82 88 100 98 99 98 99 100 99 100 100 100 100 100 100 100 100 100 99 99
82 83 84 86 90 89 85 93 98 99 99 99 99 99 99 96 85 76 71 82 94 95 86 62 80 82 84 73 93 86 82 99 99 100 100 99 100 100 100 100 100 100 99 99
90 85 87 87 96 98 98 97 99 99 99 100 99 98 98 98 91 80 72 86 91 88 72 55 64 79 75 68 94 72 73 74 79 90 96 99 99 99 99 99 100 100 100 100
88 87 86 87 88 92 97 98 99 96 88 83 74 83 70 69 73 73 67 71 83 83 65 55 53 58 69 72 91 73 67 73 76 76 77 90 86 89 94 98 100 100 100 100
81 85 84 86 87 86 88 71 67 82 74 65 58 58 63 72 85 95 97 97 86 80 69 54 56 53 64 83 91 76 67 71 77 80 84 85 88 88 86 87 89 88 88 87
76 84 86 86 89 89 88 89 83 64 68 77 84 87 98 98 88 72 66 65 53 80 66 60 58 62 85 90 87 74 66 71 76 79 80 88 92 92 90 90 92 92 92 89
78 81 83 92 94 89 90 96 98 98 91 82 95 96 83 63 65 67 65 43 63 78 58 55 57 82 85 83 78 66 68 73 78 84 81 85 92 97 96 88 89 94 96 93
80 78 79 78 89 98 100 96 95 96 98 97 95 83 95 95 65 49 43 49 52 67 58 59 56 81 79 75 65 66 69 77 81 81 80 95 94 87 86 93 98 94 88 81
87 85 86 93 100 100 98 94 99 98 99 98 97 94 79 61 58 42 40 41 53 61 56 52 54 66 63 61 66 70 76 81 78 86 93 87 86 89 88 88 86 85 91 92
88 90 88 89 94 91 90 78 94 89 93 92 87 65 63 56 45 47 51 53 50 51 52 50 50 54 58 64 71 76 81 79 78 78 80 83 84 85 85 85 85 85 84 84
80 83 84 85 84 86 87 83 89 93 91 93 85 73 68 70 57 47 46 48 50 56 57 53 51 54 59 70 75 79 81 79 78 80 83 82 81 84 87 84 82 83 83 82

GFSNGP_925_rhum_108.txt.gz
RH
83 75 80 83 83 86 92 87 83 78 70 58 59 58 60 61 68 70 70 68 81 86 89 86 82 76 72 70 71 74 76 76 76 75 73 71 68 64 63 63 62 62 60 62
83 71 79 91 87 83 83 84 84 78 74 56 54 58 64 68 61 64 71 71 71 80 83 84 82 80 76 73 72 72 70 70 70 68 66 65 66 65 64 62 61 59 62 64
80 68 73 81 69 81 76 69 77 72 64 54 60 63 74 74 70 64 69 78 73 71 76 78 78 76 77 77 75 72 70 70 69 68 66 66 66 64 64 64 65 67 69 70
88 61 85 61 59 60 70 70 62 59 63 62 62 69 74 75 75 77 78 77 80 80 71 70 73 73 72 72 73 73 73 72 71 69 68 68 68 68 68 70 72 73 74 74
83 82 61 72 69 85 83 84 75 67 62 58 60 65 72 74 75 79 80 79 82 80 75 67 70 73 72 74 73 72 73 72 72 71 70 72 71 71 73 74 77 78 79 79
90 84 81 68 56 53 62 88 70 60 59 63 62 69 75 79 79 80 80 84 89 82 76 70 71 71 71 73 73 73 71 70 70 71 71 71 71 74 75 77 80 83 83 88
86 91 72 54 63 60 67 63 75 58 60 66 70 70 78 76 80 79 81 83 84 84 80 74 74 73 73 74 73 70 72 72 72 71 69 71 73 75 77 81 84 85 88 88
88 89 86 69 64 65 65 68 75 67 62 69 73 74 77 81 82 83 85 82 84 86 87 84 79 73 76 76 73 71 72 74 74 75 75 74 76 78 82 85 87 88 91 91
73 75 75 78 80 79 83 71 78 72 68 69 73 73 76 82 83 84 83 82 80 82 81 83 79 78 77 77 73 72 73 74 75 74 76 79 79 81 86 88 90 91 96 96
81 80 78 81 75 81 84 81 80 82 75 71 73 76 80 84 86 88 86 85 80 78 81 84 87 83 83 80 78 76 77 79 80 80 81 82 83 84 86 89 91 93 97 95
82 75 73 73 80 82 82 82 84 82 86 79 80 78 77 83 88 91 90 88 85 84 85 86 81 80 82 85 86 84 84 85 85 85 86 86 87 86 87 86 86 87 88 92
87 77 76 78 85 79 80 84 85 89 81 77 80 85 82 88 89 83 80 78 84 88 89 89 86 85 84 81 79 80 83 86 88 89 90 91 92 91 89 89 90 91 91 93
82 77 78 72 83 86 82 80 81 83 85 80 78 80 82 84 81 81 78 79 81 88 89 93 92 90 90 91 89 87 86 85 84 86 89 91 92 95 94 90 90 90 91 91
87 77 76 83 85 91 89 84 81 82 84 85 82 82 81 82 83 83 87 86 85 87 90 94 93 91 92 97 98 97 96 96 96 94 92 92 92 94 95 96 94 90 90 91
89 88 87 88 85 87 87 85 82 85 85 84 81 82 83 87 88 89 88 88 88 89 94 99 100 96 98 98 98 99 100 100 99 99 100 99 97 97 98 98 98 97 96 97
90 84 84 86 84 84 91 92 87 82 83 84 86 86 90 93 95 96 94 94 96 99 99 93 95 91 99 99 99 99 99 98 98 99 99 100 100 100 100 100 100 100 100 99
91 90 88 86 78 76 83 78 88 88 87 91 97 99 99 99 99 99 98 95 97 93 87 77 71 72 93 92 94 95 87 96 100 99 99 100 100 100 100 100 100 100 100 100
78 78 76 75 79 82 85 90 99 99 99 100 100 100 98 97 95 92 73 67 91 94 92 68 65 78 71 64 80 79 68 78 76 89 99 99 100 100 100 100 100 99 99 99
89 89 86 86 91 93 96 96 99 99 100 99 98 97 97 97 94 83 71 67 87 91 84 61 52 56 71 68 89 81 65 70 69 71 75 86 88 94 98 99 99 99 99 99
90 84 84 85 85 87 94 97 98 97 93 91 84 90 85 73 70 72 68 65 63 81 75 59 50 49 52 62 82 84 65 67 72 73 74 83 78 86 87 87 92 90 90 92
90 88 84 83 83 86 86 83 70 82 88 73 64 67 61 62 70 91 100 100 78 70 88 79 52 49 52 73 89 86 70 66 70 75 77 80 84 88 89 88 89 89 90 90
86 84 81 78 82 86 85 87 89 76 67 71 71 83 88 95 96 89 69 67 47 54 78 73 53 55 67 90 89 81 68 69 73 78 82 81 86 94 94 96 94 89 90 93
78 77 80 80 89 86 86 89 92 95 97 87 79 86 96 91 74 69 68 50 42 52 78 65 58 66 91 88 83 75 66 68 73 79 81 80 87 97 97 92 93 97 96 91
81 82 80 78 75 95 98 91 93 93 94 93 94 94 96 92 89 88 76 52 54 56 63 63 65 79 85 82 77 64 66 69 76 77 77 82 88 84 82 85 85 83 82 81
84 83 84 87 100 98 98 91 95 98 99 98 96 96 98 98 98 74 56 44 40 48 57 57 60 69 72 58 58 62 69 74 79 86 86 82 82 86 87 86 84 85 89 88
88 90 88 89 96 96 93 91 97 87 91 95 88 84 88 75 65 62 50 48 51 55 54 53 56 53 51 54 59 69 75 79 79 77 77 79 81 82 83 83 85 83 80 79
89 90 87 83 77 82 90 94 95 87 83 90 92 85 80 75 70 68 58 52 50 50 51 56 59 56 54 58 64 75 81 82 81 79 77 79 80 79 82 84 82 81 82 82

GFSNGP_925_rhum_111.txt.gz
RH
80 79 81 87 88 87 95 87 83 77 73 69 66 66 66 65 62 63 70 71 80 82 83 87 83 79 78 85 93 96 94 92 90 88 84 81 80 77 72 66 63 62 61 61
81 82 79 81 83 82 83 80 83 76 77 60 59 63 67 73 64 67 73 79 76 78 82 85 85 81 76 75 78 83 84 84 83 81 79 76 72 67 64 62 62 61 61 64
82 69 74 80 70 80 75 78 71 82 69 61 69 74 80 76 75 77 76 74 77 81 78 82 82 80 80 78 78 75 75 78 77 74 71 68 66 65 66 67 68 68 71 72
86 60 85 61 65 60 74 81 72 70 70 65 70 78 78 79 80 80 80 79 79 85 84 75 79 79 79 79 77 76 74 73 72 69 68 70 70 69 69 70 71 72 71 69
80 84 63 71 69 81 71 91 79 72 64 65 65 67 73 80 81 82 84 86 90 86 84 77 78 77 76 79 79 78 78 76 74 71 70 71 70 70 71 71 72 72 72 74
87 82 82 71 60 59 65 94 76 61 66 69 63 70 72 82 82 82 84 87 91 87 82 75 78 78 76 78 78 78 77 76 75 74 71 72 72 73 74 76 76 80 80 80
88 90 73 55 63 63 67 68 81 62 66 70 74 73 77 80 81 81 82 85 86 86 88 86 80 78 78 78 76 74 74 75 75 75 73 72 72 73 74 78 81 83 85 85
89 88 84 73 69 64 62 68 78 72 67 76 81 82 79 79 82 84 84 83 84 86 90 88 84 79 77 75 74 74 74 73 73 74 74 74 73 76 81 84 87 88 90 92
72 72 70 80 81 81 84 78 83 80 76 70 75 76 78 84 84 86 86 83 80 82 88 88 84 82 81 83 80 78 77 77 78 78 78 79 79 81 86 88 89 93 98 93
80 80 79 79 79 83 84 83 84 85 80 72 73 77 81 83 87 89 89 87 83 80 84 88 91 90 90 85 82 81 81 82 82 80 80 81 82 83 86 90 93 92 92 89
83 80 76 72 80 82 82 83 83 81 85 83 78 78 77 83 87 91 89 89 88 88 89 90 87 86 85 88 91 90 92 93 93 92 92 90 90 89 88 86 87 88 86 86
84 78 75 77 84 77 78 81 84 86 82 78 80 86 83 87 88 81 78 80 86 89 90 93 90 90 90 88 85 84 91 92 93 93 96 96 94 92 92 92 92 90 89 89
81 81 81 87 86 88 83 83 82 83 86 83 81 81 82 85 82 81 80 82 86 86 91 92 89 86 87 89 89 91 92 93 91 90 92 97 98 98 97 94 94 95 92 88
83 79 82 81 88 88 88 85 83 83 84 86 84 84 82 83 84 85 88 88 88 90 94 95 93 92 95 100 99 100 100 99 100 100 99 98 96 95 96 97 95 91 90 92
89 81 81 90 86 88 87 88 83 84 84 84 83 84 86 88 89 90 91 92 90 93 96 96 96 95 97 99 100 100 99 99 99 99 98 99 100 100 100 99 99 98 98 97
93 92 91 87 88 86 88 87 91 91 86 85 86 88 92 91 93 94 91 88 91 98 95 92 94 90 94 95 96 97 94 97 99 99 99 99 99 99 100 100 100 100 100 100
94 94 90 89 85 80 81 79 82 89 90 92 96 99 100 100 100 99 98 96 96 97 87 79 67 73 82 73 78 81 70 74 98 95 100 100 100 99 100 100 100 99 100 100
74 77 81 81 85 82 82 90 95 99 98 99 100 100 96 96 94 91 76 64 72 93 90 83 54 64 70 66 72 78 63 66 67 72 77 82 99 100 100 100 100 100 99 99
83 86 84 86 87 87 88 93 98 99 99 99 99 97 95 94 94 90 79 64 68 85 77 73 49 46 49 67 81 87 75 64 68 69 69 82 75 79 88 90 96 98 98 99
91 85 85 87 83 82 92 95 95 96 94 94 92 91 91 85 73 69 70 66 62 64 75 71 64 78 51 49 70 84 76 65 68 71 73 83 75 84 84 85 86 86 87 96
91 89 87 84 84 79 78 82 79 82 91 87 79 72 75 62 62 68 96 100 83 68 60 81 83 54 51 63 85 88 78 65 67 72 77 79 79 85 87 89 91 89 86 94
92 92 87 82 80 80 80 82 84 85 73 74 72 65 73 82 89 95 94 81 46 51 54 68 79 56 56 85 88 84 73 66 68 70 75 78 77 82 90 94 95 96 95 93
88 85 80 79 77 75 79 82 85 88 90 89 76 72 82 86 92 89 73 59 56 49 48 59 69 55 71 89 85 80 72 74 80 81 83 80 79 87 89 83 83 89 85 84
84 81 80 80 80 89 96 78 86 89 92 91 92 92 94 95 93 92 89 86 75 66 59 62 62 63 86 86 82 78 70 76 71 75 75 79 86 85 82 85 85 84 82 82
84 83 85 87 100 98 99 85 94 95 95 97 95 93 96 98 100 92 96 89 66 46 44 64 68 80 81 76 65 57 61 75 74 79 81 79 78 80 82 84 83 81 86 86
89 89 86 86 95 98 100 98 99 92 92 96 91 87 85 85 86 88 68 67 58 56 56 55 56 57 59 56 55 60 62 71 78 80 80 79 81 83 83 81 81 81 80 79
90 89 90 89 83 82 83 87 97 96 92 92 87 80 83 80 78 77 72 69 62 57 53 52 53 59 63 60 57 60 66 75 82 82 80 80 81 81 82 83 82 81 81 83

GFSNGP_925_rhum_114.txt.gz
RH
68 67 68 73 71 64 88 65 77 62 64 59 56 54 52 48 53 62 68 65 67 70 69 68 70 76 88 98 100 100 99 99 99 97 94 92 90 87 83 81 80 77 71 66
74 56 53 63 63 57 62 58 58 55 64 51 51 47 50 53 54 58 60 61 67 62 64 68 71 72 79 90 96 96 96 95 96 92 90 90 88 85 82 78 73 69 68 65
75 59 60 65 72 68 63 62 57 65 62 51 55 60 64 60 57 60 60 60 67 64 66 70 72 73 73 78 83 86 88 89 89 88 86 84 80 76 72 69 67 66 66 67
59 50 67 60 58 61 68 68 59 59 56 55 58 61 62 61 62 60 62 63 64 67 68 68 74 75 77 78 78 81 80 82 82 82 83 82 81 80 75 71 69 68 70 71
57 61 63 61 62 75 68 77 62 54 52 54 57 55 61 63 62 64 66 68 72 74 74 72 74 75 76 77 79 79 77 78 80 79 80 81 80 77 77 75 73 73 72 73
62 64 67 58 54 55 56 79 63 53 56 55 50 49 60 63 63 62 68 75 77 77 73 70 79 77 73 73 72 75 78 79 80 79 78 82 80 79 77 79 75 78 79 77
61 65 57 49 54 55 56 71 68 57 60 57 55 61 65 62 65 66 70 76 77 79 82 84 82 78 76 76 77 77 79 83 83 81 81 82 79 76 77 79 81 86 92 98
64 67 70 59 60 54 59 64 67 62 62 65 64 66 66 68 69 70 71 72 78 80 86 89 87 80 80 83 85 78 77 75 76 78 77 79 78 77 86 91 93 96 93 96
52 53 66 71 69 69 63 65 71 67 66 62 66 67 68 70 68 72 74 75 75 76 80 89 95 90 85 92 89 88 86 86 88 88 84 83 85 89 86 88 84 90 99 95
64 68 68 68 70 72 70 70 72 73 68 65 63 65 73 72 69 72 78 78 77 74 75 83 88 89 95 94 90 86 85 87 88 86 87 88 92 90 84 86 85 89 98 94
64 70 68 66 66 70 71 70 70 69 74 69 64 67 66 72 74 77 75 79 80 78 78 84 86 90 90 89 95 94 98 97 94 91 90 90 92 92 89 88 92 94 95 92
52 51 50 53 63 66 65 69 72 72 71 70 73 70 72 75 78 70 68 74 76 82 82 86 85 89 89 88 94 89 88 92 97 98 100 100 100 98 97 95 94 94 94 93
53 54 63 64 67 68 66 70 72 72 76 73 73 74 74 80 77 75 73 76 80 85 89 88 87 90 93 94 97 98 97 98 95 91 90 93 99 100 100 97 98 96 95 93
60 65 75 71 67 73 73 76 79 77 77 78 77 78 77 77 80 78 81 86 87 92 94 94 94 98 98 96 96 100 100 100 99 99 100 100 98 99 99 99 95 93 89 91
66 63 58 66 73 76 78 77 76 72 72 74 77 77 80 78 80 83 88 88 89 92 94 95 92 90 91 90 89 95 98 100 100 100 100 100 100 99 99 99 100 98 99 96
75 72 72 71 74 76 76 78 76 75 75 75 77 81 85 84 88 93 93 91 95 95 96 86 83 76 75 79 78 90 90 89 98 100 100 100 100 100 100 100 100 100 100 100
80 86 80 77 75 71 69 65 67 73 81 82 87 95 98 99 99 99 98 96 97 97 88 80 74 64 72 71 79 78 71 69 71 71 91 98 100 100 100 100 100 100 100 100
62 59 61 57 65 68 69 70 77 84 88 97 99 99 98 96 93 89 88 72 68 89 88 84 71 63 67 67 79 87 79 75 76 80 76 82 91 95 99 99 99 100 99 99
65 64 66 67 67 66 69 75 83 90 98 100 98 93 92 92 91 91 88 79 68 71 70 78 64 50 64 72 84 96 88 80 80 83 85 87 84 82 87 88 89 93 96 98
75 74 75 79 79 77 80 83 87 90 93 96 94 89 86 86 85 77 77 73 63 62 70 73 66 66 80 58 61 91 84 76 73 74 78 78 78 80 83 85 87 86 87 90
81 82 79 79 78 77 79 80 82 84 92 93 87 79 74 75 68 69 78 84 84 73 71 70 79 91 57 49 68 93 86 74 71 73 77 77 77 79 83 86 89 90 88 88
89 89 88 86 84 81 80 78 78 82 81 75 82 78 70 71 77 82 83 92 78 54 53 55 62 71 57 53 92 92 84 75 72 77 80 84 84 85 90 95 96 95 96 98
91 89 86 86 85 81 76 80 82 79 84 86 84 72 75 75 85 92 87 71 62 55 53 50 50 65 59 80 94 91 84 77 78 82 87 94 93 94 99 98 96 98 99 96
90 88 85 80 82 86 90 83 83 83 86 87 87 88 90 94 94 89 88 88 90 89 83 60 53 64 87 87 92 92 84 74 71 75 78 82 88 90 92 90 91 90 86 84
86 84 83 87 93 88 93 88 88 88 92 92 92 92 92 93 99 94 93 96 96 83 67 49 58 87 90 88 85 78 68 59 59 70 77 82 84 79 81 83 85 84 84 90
88 85 83 86 86 89 92 99 100 92 94 93 93 86 86 88 88 90 89 87 85 71 70 64 57 66 70 68 69 63 56 60 63 73 83 86 85 82 82 83 81 80 81 81
86 87 90 91 84 84 88 95 97 90 86 94 95 87 85 82 84 85 81 80 74 71 67 62 60 60 62 61 63 63 60 61 66 76 81 82 81 81 80 78 81 83 84 84

GFSNGP_925_rhum_117.txt.gz
RH
54 58 53 56 56 51 69 54 79 65 66 59 52 51 51 49 51 57 62 74 81 80 65 65 69 84 97 99 100 100 100 100 100 99 100 100 100 100 99 98 93 88 83 81
62 48 49 65 58 55 54 50 53 55 64 49 47 47 51 51 53 57 58 59 61 66 72 68 67 72 86 95 98 96 97 98 98 98 99 99 96 93 90 86 82 80 79 75
66 51 50 57 71 62 58 55 52 68 57 44 54 59 59 54 52 57 57 59 58 61 60 66 66 67 72 82 87 90 93 94 93 92 93 93 90 87 85 82 80 76 72 69
50 44 60 59 54 58 62 60 50 50 49 50 53 57 57 55 56 59 60 63 61 60 64 63 65 69 71 74 78 82 86 89 89 88 89 89 87 86 85 82 79 77 76 75
52 54 57 57 56 67 81 69 49 48 45 44 49 45 63 57 55 59 62 64 65 64 64 65 68 68 69 72 75 74 76 78 79 82 82 82 84 84 82 80 80 79 78 80
52 59 59 49 51 49 49 83 53 49 50 47 39 53 71 60 58 58 64 69 69 69 68 68 69 67 65 66 68 73 72 75 79 81 82 82 83 87 88 81 78 80 80 79
49 55 54 45 48 48 63 80 55 52 52 51 62 62 62 59 62 60 63 70 71 76 79 78 75 70 71 74 81 81 81 81 80 80 80 82 83 80 80 83 82 87 86 86
48 50 64 50 53 55 60 60 54 54 55 59 59 59 62 60 62 64 64 65 72 75 81 86 84 75 82 84 83 83 82 83 85 85 84 88 87 88 89 88 92 93 91 90
49 55 60 59 60 59 50 55 60 58 59 56 60 61 62 61 61 64 65 66 66 70 78 85 89 88 92 93 85 82 78 79 82 83 84 84 86 86 85 85 83 84 86 89
53 57 59 59 62 60 57 61 63 63 59 59 58 59 62 61 61 63 68 68 66 66 68 74 84 88 92 94 90 83 83 84 85 81 79 78 81 80 78 78 77 76 87 93
50 55 57 57 55 59 62 61 62 62 64 60 57 59 58 65 63 64 65 67 67 66 68 72 75 80 84 86 86 93 96 95 92 94 94 90 91 91 87 80 82 82 86 90
37 38 40 42 51 58 60 62 62 63 64 64 65 61 63 65 64 61 60 65 67 70 71 73 74 79 84 86 85 82 79 86 92 96 98 98 96 96 98 97 96 96 96 96
40 39 41 44 53 54 55 60 60 59 65 65 64 66 68 68 69 70 65 68 72 79 82 82 84 89 90 88 88 92 92 93 90 86 86 85 89 99 100 97 98 99 99 100
44 56 65 61 61 59 58 62 71 65 66 67 67 69 70 71 74 69 71 77 81 84 85 86 89 94 92 94 90 97 99 98 100 99 98 98 98 98 99 99 97 95 96 99
54 52 46 52 55 62 64 66 66 64 62 65 68 69 72 71 72 74 80 84 86 85 88 91 91 90 85 90 94 94 95 97 100 99 100 100 100 99 100 100 100 98 96 97
54 58 59 62 62 65 65 66 65 60 63 63 66 71 75 77 80 83 86 88 87 86 92 91 85 81 70 83 77 82 83 79 87 97 98 99 100 100 99 99 100 100 100 99
70 75 67 65 64 61 62 57 57 60 70 72 73 82 90 89 91 92 92 94 94 94 90 83 76 75 76 75 75 79 78 76 83 77 80 84 86 97 99 99 100 100 100 100
52 53 54 50 55 54 56 58 61 66 70 80 90 95 96 97 95 90 87 84 70 66 76 78 77 71 74 72 72 77 74 76 76 76 77 76 82 88 85 91 93 98 99 99
54 52 52 50 50 53 56 60 68 75 85 91 94 92 89 87 87 85 86 84 78 68 62 71 79 65 60 65 58 81 86 80 72 72 76 80 84 80 83 84 82 82 86 91
56 56 58 62 59 60 64 66 72 76 82 89 89 88 84 80 83 83 76 75 69 60 60 65 72 68 63 74 69 68 83 78 70 66 68 72 72 72 75 79 82 83 82 83
68 68 67 67 68 67 68 70 75 74 82 89 88 84 79 74 72 70 72 73 66 75 75 77 77 73 86 73 58 70 86 81 69 64 66 69 69 72 73 77 82 86 87 87
80 81 80 76 73 71 72 72 74 76 77 78 77 81 81 75 68 69 70 70 75 85 66 56 61 61 70 77 59 82 90 82 71 68 72 75 79 81 84 88 92 94 94 94
93 89 86 86 85 83 80 80 80 79 81 81 82 82 78 72 68 78 81 80 79 70 61 55 57 57 61 74 73 86 90 84 80 76 76 80 89 93 93 95 98 96 95 96
87 82 82 83 84 85 87 83 79 81 83 83 84 84 86 87 87 85 85 87 91 94 96 93 87 63 76 80 82 86 89 88 84 75 73 87 86 87 92 94 93 91 94 92
85 86 85 85 85 80 81 85 88 86 84 87 88 87 85 88 96 90 93 94 95 98 98 93 79 73 83 85 85 88 90 89 82 73 74 81 86 89 88 86 87 89 89 87
83 79 77 81 77 75 77 82 88 82 82 84 85 88 87 89 89 90 92 95 90 87 89 86 81 73 80 90 86 86 87 82 77 76 85 93 90 88 86 85 87 86 82 82
84 82 81 84 83 82 85 88 92 88 83 87 86 82 86 87 88 87 87 86 83 80 79 77 77 74 74 73 72 71 72 73 76 76 78 81 88 90 87 84 81 81 83 82

GFSNGP_925_rhum_120.txt.gz
RH
57 57 64 70 65 66 72 68 93 77 78 69 65 62 62 60 65 75 81 84 88 88 86 89 94 100 99 100 100 100 100 100 100 100 100 100 100 100 100 99 100 100 100 100
64 51 62 74 77 69 87 96 65 76 76 61 62 62 64 65 66 70 73 76 76 76 77 77 84 94 98 99 97 98 98 99 100 100 100 100 100 100 100 100 99 100 100 98
71 50 51 81 90 69 65 58 60 81 66 63 72 72 72 69 69 75 75 72 71 73 73 78 79 80 85 90 93 95 95 96 98 99 99 99 99 99 98 97 97 95 91 84
76 48 80 62 56 61 61 58 53 55 59 67 74 72 69 66 73 78 76 74 71 70 72 71 70 73 76 79 84 89 91 91 90 92 94 93 92 91 91 88 85 83 80 76
74 73 66 62 60 63 68 73 58 59 54 58 68 68 79 67 67 76 76 74 74 72 71 70 68 68 70 73 74 76 80 81 86 90 90 88 88 88 87 85 84 82 80 78
62 71 76 64 55 50 55 84 59 60 62 64 58 92 92 74 70 74 76 76 80 80 79 76 71 71 78 80 80 81 77 79 81 82 83 86 87 87 85 84 81 80 81 80
61 75 62 50 52 50 70 82 60 62 66 73 87 84 75 71 72 67 72 76 81 85 89 87 80 78 84 84 83 81 80 80 80 79 82 84 86 86 85 82 81 82 79 80
60 60 80 52 54 71 74 64 63 67 67 73 73 72 71 72 74 73 71 74 79 85 88 87 85 83 89 89 82 80 80 81 82 82 82 82 82 84 89 88 88 89 87 88
65 72 65 60 70 61 58 67 67 70 66 66 70 72 70 74 74 73 70 68 72 77 82 84 88 90 95 97 85 80 79 81 82 81 80 84 84 84 88 88 89 90 89 90
64 67 71 69 63 60 62 72 71 68 65 61 70 69 71 72 73 75 71 69 68 72 76 80 80 80 83 85 91 89 88 86 84 82 80 78 80 80 82 80 82 81 83 85
64 64 64 64 67 69 70 67 69 71 71 68 64 66 70 74 73 69 69 68 67 70 73 76 79 77 71 69 72 80 85 91 94 96 95 90 87 84 83 83 82 81 85 87
60 59 62 64 66 66 71 70 66 68 71 70 70 71 71 76 67 63 67 68 72 73 74 74 77 82 83 81 74 73 78 81 86 86 89 94 98 100 99 100 100 97 94 94
47 52 51 60 67 63 64 67 64 68 70 69 69 70 70 75 69 68 67 71 76 81 80 80 84 87 90 88 88 86 85 86 86 89 89 90 92 96 98 94 96 99 100 100
63 66 69 65 74 63 66 66 68 66 68 69 70 70 72 75 76 70 73 77 81 83 84 84 85 88 87 88 90 93 96 98 97 99 98 98 98 98 99 100 100 98 95 96
67 58 59 66 70 71 68 71 76 74 72 71 69 72 74 76 77 77 80 83 85 85 86 89 91 90 81 78 88 86 91 93 95 97 100 100 100 100 100 100 99 99 98 94
68 60 68 73 76 79 76 75 73 71 69 66 70 74 80 80 83 84 86 86 87 88 88 90 84 79 72 75 66 73 78 71 69 81 82 82 91 99 99 99 99 100 99 99
80 79 76 78 80 79 77 72 69 68 74 76 78 82 86 86 89 88 85 82 87 89 88 90 83 73 68 69 57 68 71 65 74 65 68 69 68 78 95 93 97 99 99 99
59 66 66 70 73 70 69 63 63 65 74 77 83 89 88 93 95 92 89 87 83 72 67 68 74 73 67 61 56 60 69 70 70 67 68 69 71 80 75 78 85 86 90 92
58 67 61 56 58 59 64 67 69 72 80 85 90 90 89 88 87 86 86 86 84 82 67 61 68 70 66 56 56 57 71 78 72 68 67 71 71 75 75 79 82 82 80 79
62 59 58 58 56 60 67 67 74 80 84 88 88 87 86 83 80 81 84 80 74 71 63 58 60 75 70 62 69 70 55 76 77 72 64 66 69 70 70 74 79 80 82 82
75 71 73 70 70 67 69 72 77 80 82 85 88 87 85 80 74 74 74 73 65 64 73 75 71 72 68 67 74 64 52 75 82 74 65 65 68 69 72 74 75 82 89 91
81 83 79 74 73 72 70 70 73 75 76 77 77 79 77 78 79 75 68 67 64 69 74 79 68 55 55 60 76 68 59 82 88 78 68 67 71 77 80 84 86 89 94 92
85 82 80 79 78 75 74 74 74 74 76 77 78 78 80 78 80 73 81 72 77 79 80 72 62 57 63 80 80 79 69 84 88 84 79 75 73 76 82 83 83 92 92 88
87 84 82 78 80 83 90 82 79 76 78 79 79 78 81 85 83 81 81 79 82 87 91 92 94 96 100 87 78 79 79 85 88 89 85 80 78 76 79 82 85 85 86 88
83 82 82 85 88 86 79 78 83 85 84 83 81 80 80 82 90 82 87 89 90 92 92 87 95 99 98 95 82 86 86 85 87 89 86 79 71 73 79 88 87 87 89 93
88 89 85 80 77 74 74 77 82 80 80 82 78 78 80 81 84 89 90 92 93 89 94 91 87 89 91 83 85 85 88 88 88 86 80 76 80 86 84 84 86 85 85 84
82 80 79 82 80 77 78 80 84 83 80 82 82 73 74 78 85 88 91 90 87 88 85 80 79 79 81 81 83 88 82 76 78 75 74 76 77 78 84 86 80 81 80 82

GFSNGP_925_rhum_123.txt.gz
RH
73 64 79 91 95 96 94 98 97 95 89 87 83 84 87 86 88 89 92 93 93 93 95 97 98 99 100 100 100 100 100 100 100 98 98 100 100 100 100 99 98 99 100 99
63 62 72 95 80 77 84 70 78 85 89 76 75 73 81 88 86 91 93 89 88 87 87 90 95 97 99 100 100 99 100 100 100 100 100 100 100 100 100 100 100 99 99 100
77 57 56 84 93 70 68 66 68 92 83 79 84 82 83 87 86 89 88 89 88 89 90 91 92 95 96 94 94 96 98 100 100 100 100 100 100 100 100 100 100 100 100 100
82 59 92 69 61 63 72 67 64 66 77 81 83 80 77 76 87 88 88 87 81 78 78 80 80 81 80 85 91 93 94 93 95 96 97 97 99 99 98 99 100 100 100 100
75 86 73 71 63 62 72 80 70 71 68 74 75 71 81 75 78 86 88 87 89 87 84 82 82 79 78 78 77 80 83 87 91 92 90 91 91 91 91 91 90 90 91 93
68 80 80 67 58 52 56 90 69 73 79 77 68 93 92 83 77 82 87 90 92 92 91 90 86 83 83 85 82 82 80 81 82 83 88 89 89 89 89 86 85 85 85 87
71 80 70 56 54 52 74 83 69 73 80 86 92 88 80 79 81 77 86 89 89 91 95 92 86 86 92 91 88 84 81 80 79 79 80 82 84 85 83 84 84 85 85 87
68 69 71 56 57 69 71 68 73 74 76 84 82 78 79 79 81 80 82 84 85 89 92 90 87 84 92 91 86 84 82 82 81 81 82 83 82 84 85 85 85 89 90 92
66 64 69 66 68 65 70 76 74 76 74 75 79 77 78 82 82 80 77 77 78 81 84 82 82 84 92 95 84 82 81 83 83 82 82 83 81 82 86 87 87 86 86 85
66 64 73 73 67 66 75 81 78 72 71 76 80 77 78 80 80 79 74 75 73 75 81 83 78 78 81 80 79 82 89 92 92 87 85 83 85 86 85 83 84 86 88 87
71 70 69 72 73 78 79 79 80 76 71 75 77 79 79 82 81 76 72 70 69 71 73 75 78 78 79 79 76 79 79 81 83 86 91 95 96 94 93 96 98 96 92 90
72 70 72 72 77 77 80 80 80 80 79 74 74 78 79 82 73 74 74 73 72 72 72 74 75 76 79 80 80 82 84 87 89 88 90 90 92 91 93 95 96 98 100 100
50 58 58 64 77 75 78 78 75 79 76 80 77 76 77 80 71 72 73 78 80 79 79 81 84 84 82 78 75 77 84 90 94 98 100 100 98 98 98 92 92 93 95 96
67 68 71 74 82 76 72 71 70 74 73 75 75 77 78 77 75 73 77 78 82 85 85 86 88 88 85 79 76 78 82 90 94 95 97 99 100 99 100 100 100 98 92 95
69 58 68 74 78 80 75 80 82 82 80 78 76 80 80 84 84 82 82 84 85 86 87 90 91 89 82 71 71 68 81 83 80 74 81 83 76 88 96 100 100 100 99 98
73 72 80 80 84 85 83 85 84 84 81 75 80 82 83 86 88 88 86 85 86 90 90 90 86 80 76 66 63 62 71 68 66 63 60 61 68 70 83 91 94 99 100 100
80 83 84 87 86 87 85 82 81 78 78 80 83 84 84 87 88 86 76 77 79 84 86 81 82 78 68 65 58 54 63 59 65 62 59 61 61 63 75 76 76 87 94 94
68 70 74 77 84 85 84 77 72 76 81 78 83 86 88 87 88 90 90 89 86 81 75 72 70 74 71 66 58 54 60 64 67 66 61 61 63 70 74 71 74 78 74 74
70 76 76 76 75 76 75 73 70 70 76 81 87 89 85 86 86 84 79 85 87 86 72 63 62 72 71 66 59 57 59 72 77 71 66 66 70 65 70 70 72 76 75 73
75 69 64 70 64 66 73 68 72 79 82 85 87 90 89 85 84 84 78 83 81 75 69 65 61 60 66 73 64 66 75 59 65 73 72 65 67 67 68 70 72 74 78 81
79 74 73 71 71 65 66 73 79 85 86 86 88 88 87 83 80 77 78 78 73 64 64 70 73 71 67 71 68 72 73 60 59 77 79 69 65 66 66 69 75 78 80 82
82 80 79 77 79 78 74 74 75 78 84 86 84 82 82 82 79 78 80 77 68 64 68 72 75 79 72 60 63 72 71 65 63 81 87 77 70 69 71 76 79 80 80 88
82 80 80 80 81 77 74 72 70 68 73 74 75 77 78 77 78 86 87 72 69 75 80 81 80 75 68 73 82 86 82 78 68 74 87 88 84 79 74 74 77 81 86 91
84 82 80 75 73 81 90 78 74 73 72 73 75 76 78 81 79 79 80 81 82 85 86 87 88 92 97 98 99 99 88 78 75 79 88 90 89 85 78 74 76 80 86 85
84 84 82 88 88 85 74 74 78 80 81 80 78 77 78 79 88 78 84 88 88 90 92 94 98 100 96 98 100 100 98 85 84 88 88 91 90 84 74 77 84 90 93 96
89 89 88 82 77 73 71 77 79 76 78 79 72 70 71 73 76 80 82 85 90 92 94 90 91 91 89 91 95 91 88 88 86 90 92 91 86 78 78 83 85 88 87 87
86 85 86 87 80 74 72 73 77 76 77 79 79 70 69 68 68 76 82 84 87 90 89 86 84 81 80 81 84 84 86 95 93 83 79 78 78 80 83 85 88 86 82 84